<?xml version="1.0" encoding="UTF-8" standalone="no" ?>
<gpx xmlns="http://www.topografix.com/GPX/1/1" xmlns:xsi="http://www.w3.org/2001/XMLSchema-instance" xsi:schemaLocation="http://www.topografix.com/GPX/1/1 http://www.topografix.com/GPX/1/1/gpx.xsd" version="1.1" creator="VisuGPX - https://www.visugpx.com">
  <metadata>
    <name>Vagabondage 29 - 2019-04-25 - Basel, Liel</name>
    <desc><![CDATA[comment ...]]></desc>
  </metadata>
  <trk>
    <name><![CDATA[25 avr. 2019]]></name>
    <cmt><![CDATA[6:46:23 AM]]></cmt>
    <desc><![CDATA[comment ...]]></desc>
    <trkseg>
      <trkpt lat="47.57007" lon="7.57218">
        <ele>268</ele>
        <time>2019-04-25T04:46:12Z</time>
      </trkpt>
      <trkpt lat="47.56969" lon="7.57222">
        <ele>271</ele>
        <time>2019-04-25T04:46:24Z</time>
      </trkpt>
      <trkpt lat="47.56978" lon="7.57207">
        <ele>257</ele>
        <time>2019-04-25T04:47:07Z</time>
      </trkpt>
      <trkpt lat="47.56978" lon="7.57185">
        <ele>260</ele>
        <time>2019-04-25T04:47:23Z</time>
      </trkpt>
      <trkpt lat="47.56977" lon="7.57186">
        <ele>267</ele>
        <time>2019-04-25T04:48:12Z</time>
      </trkpt>
      <trkpt lat="47.56983" lon="7.57218">
        <ele>269</ele>
        <time>2019-04-25T04:48:28Z</time>
      </trkpt>
      <trkpt lat="47.56972" lon="7.57226">
        <ele>270</ele>
        <time>2019-04-25T04:48:37Z</time>
      </trkpt>
      <trkpt lat="47.5697" lon="7.57234">
        <ele>272</ele>
        <time>2019-04-25T04:48:42Z</time>
      </trkpt>
      <trkpt lat="47.56974" lon="7.57238">
        <ele>271</ele>
        <time>2019-04-25T04:48:46Z</time>
      </trkpt>
      <trkpt lat="47.56993" lon="7.57297">
        <ele>269</ele>
        <time>2019-04-25T04:49:18Z</time>
      </trkpt>
      <trkpt lat="47.56994" lon="7.57305">
        <ele>270</ele>
        <time>2019-04-25T04:49:22Z</time>
      </trkpt>
      <trkpt lat="47.57006" lon="7.57335">
        <ele>268</ele>
        <time>2019-04-25T04:49:40Z</time>
      </trkpt>
      <trkpt lat="47.57027" lon="7.57365">
        <ele>265</ele>
        <time>2019-04-25T04:50:00Z</time>
      </trkpt>
      <trkpt lat="47.57044" lon="7.57383">
        <ele>264</ele>
        <time>2019-04-25T04:50:13Z</time>
      </trkpt>
      <trkpt lat="47.57051" lon="7.57399">
        <ele>265</ele>
        <time>2019-04-25T04:50:25Z</time>
      </trkpt>
      <trkpt lat="47.57062" lon="7.57411">
        <ele>270</ele>
        <time>2019-04-25T04:50:32Z</time>
      </trkpt>
      <trkpt lat="47.57092" lon="7.57424">
        <ele>272</ele>
        <time>2019-04-25T04:50:44Z</time>
      </trkpt>
      <trkpt lat="47.57085" lon="7.57457">
        <ele>276</ele>
        <time>2019-04-25T04:51:00Z</time>
      </trkpt>
      <trkpt lat="47.57087" lon="7.57484">
        <ele>273</ele>
        <time>2019-04-25T04:51:14Z</time>
      </trkpt>
      <trkpt lat="47.57089" lon="7.57506">
        <ele>272</ele>
        <time>2019-04-25T04:51:25Z</time>
      </trkpt>
      <trkpt lat="47.57088" lon="7.57517">
        <ele>270</ele>
        <time>2019-04-25T04:51:31Z</time>
      </trkpt>
      <trkpt lat="47.57092" lon="7.57545">
        <ele>271</ele>
        <time>2019-04-25T04:51:41Z</time>
      </trkpt>
      <trkpt lat="47.5709" lon="7.57581">
        <ele>272</ele>
        <time>2019-04-25T04:51:59Z</time>
      </trkpt>
      <trkpt lat="47.57088" lon="7.57638">
        <ele>261</ele>
        <time>2019-04-25T04:52:30Z</time>
      </trkpt>
      <trkpt lat="47.5709" lon="7.57664">
        <ele>261</ele>
        <time>2019-04-25T04:52:42Z</time>
      </trkpt>
      <trkpt lat="47.57092" lon="7.57687">
        <ele>261</ele>
        <time>2019-04-25T04:52:53Z</time>
      </trkpt>
      <trkpt lat="47.57095" lon="7.57698">
        <ele>258</ele>
        <time>2019-04-25T04:52:59Z</time>
      </trkpt>
      <trkpt lat="47.57095" lon="7.57711">
        <ele>257</ele>
        <time>2019-04-25T04:53:05Z</time>
      </trkpt>
      <trkpt lat="47.5709" lon="7.57722">
        <ele>258</ele>
        <time>2019-04-25T04:53:10Z</time>
      </trkpt>
      <trkpt lat="47.57073" lon="7.57794">
        <ele>255</ele>
        <time>2019-04-25T04:53:45Z</time>
      </trkpt>
      <trkpt lat="47.57075" lon="7.57803">
        <ele>258</ele>
        <time>2019-04-25T04:54:08Z</time>
      </trkpt>
      <trkpt lat="47.57069" lon="7.5783">
        <ele>260</ele>
        <time>2019-04-25T04:54:20Z</time>
      </trkpt>
      <trkpt lat="47.57068" lon="7.57837">
        <ele>262</ele>
        <time>2019-04-25T04:54:23Z</time>
      </trkpt>
      <trkpt lat="47.5707" lon="7.5787">
        <ele>265</ele>
        <time>2019-04-25T04:54:39Z</time>
      </trkpt>
      <trkpt lat="47.57075" lon="7.57881">
        <ele>266</ele>
        <time>2019-04-25T04:54:45Z</time>
      </trkpt>
      <trkpt lat="47.57073" lon="7.57888">
        <ele>264</ele>
        <time>2019-04-25T04:54:48Z</time>
      </trkpt>
      <trkpt lat="47.57066" lon="7.579">
        <ele>261</ele>
        <time>2019-04-25T04:54:54Z</time>
      </trkpt>
      <trkpt lat="47.57068" lon="7.57921">
        <ele>261</ele>
        <time>2019-04-25T04:55:04Z</time>
      </trkpt>
      <trkpt lat="47.57072" lon="7.57936">
        <ele>260</ele>
        <time>2019-04-25T04:55:10Z</time>
      </trkpt>
      <trkpt lat="47.5707" lon="7.57942">
        <ele>260</ele>
        <time>2019-04-25T04:55:13Z</time>
      </trkpt>
      <trkpt lat="47.5707" lon="7.57952">
        <ele>260</ele>
        <time>2019-04-25T04:55:17Z</time>
      </trkpt>
      <trkpt lat="47.57071" lon="7.57961">
        <ele>257</ele>
        <time>2019-04-25T04:55:21Z</time>
      </trkpt>
      <trkpt lat="47.5707" lon="7.57973">
        <ele>255</ele>
        <time>2019-04-25T04:55:26Z</time>
      </trkpt>
      <trkpt lat="47.57075" lon="7.57982">
        <ele>255</ele>
        <time>2019-04-25T04:55:31Z</time>
      </trkpt>
      <trkpt lat="47.57075" lon="7.57994">
        <ele>256</ele>
        <time>2019-04-25T04:55:36Z</time>
      </trkpt>
      <trkpt lat="47.57076" lon="7.58005">
        <ele>258</ele>
        <time>2019-04-25T04:55:42Z</time>
      </trkpt>
      <trkpt lat="47.57075" lon="7.58023">
        <ele>257</ele>
        <time>2019-04-25T04:55:51Z</time>
      </trkpt>
      <trkpt lat="47.57075" lon="7.58035">
        <ele>257</ele>
        <time>2019-04-25T04:55:58Z</time>
      </trkpt>
      <trkpt lat="47.57074" lon="7.58046">
        <ele>261</ele>
        <time>2019-04-25T04:56:03Z</time>
      </trkpt>
      <trkpt lat="47.57076" lon="7.58056">
        <ele>263</ele>
        <time>2019-04-25T04:56:08Z</time>
      </trkpt>
      <trkpt lat="47.57068" lon="7.5808">
        <ele>263</ele>
        <time>2019-04-25T04:56:20Z</time>
      </trkpt>
      <trkpt lat="47.57068" lon="7.58091">
        <ele>262</ele>
        <time>2019-04-25T04:56:25Z</time>
      </trkpt>
      <trkpt lat="47.57057" lon="7.58111">
        <ele>262</ele>
        <time>2019-04-25T04:56:39Z</time>
      </trkpt>
      <trkpt lat="47.57059" lon="7.58134">
        <ele>262</ele>
        <time>2019-04-25T04:56:48Z</time>
      </trkpt>
      <trkpt lat="47.57063" lon="7.58144">
        <ele>261</ele>
        <time>2019-04-25T04:56:52Z</time>
      </trkpt>
      <trkpt lat="47.5706" lon="7.58166">
        <ele>259</ele>
        <time>2019-04-25T04:57:02Z</time>
      </trkpt>
      <trkpt lat="47.5706" lon="7.5818">
        <ele>260</ele>
        <time>2019-04-25T04:57:09Z</time>
      </trkpt>
      <trkpt lat="47.57059" lon="7.58189">
        <ele>261</ele>
        <time>2019-04-25T04:57:13Z</time>
      </trkpt>
      <trkpt lat="47.57054" lon="7.58195">
        <ele>261</ele>
        <time>2019-04-25T04:57:16Z</time>
      </trkpt>
      <trkpt lat="47.57057" lon="7.58203">
        <ele>260</ele>
        <time>2019-04-25T04:57:20Z</time>
      </trkpt>
      <trkpt lat="47.57056" lon="7.58212">
        <ele>258</ele>
        <time>2019-04-25T04:57:23Z</time>
      </trkpt>
      <trkpt lat="47.5706" lon="7.58229">
        <ele>259</ele>
        <time>2019-04-25T04:57:30Z</time>
      </trkpt>
      <trkpt lat="47.57058" lon="7.58248">
        <ele>261</ele>
        <time>2019-04-25T04:57:39Z</time>
      </trkpt>
      <trkpt lat="47.57061" lon="7.58264">
        <ele>260</ele>
        <time>2019-04-25T04:57:46Z</time>
      </trkpt>
      <trkpt lat="47.57057" lon="7.58282">
        <ele>258</ele>
        <time>2019-04-25T04:57:57Z</time>
      </trkpt>
      <trkpt lat="47.5706" lon="7.58299">
        <ele>260</ele>
        <time>2019-04-25T04:58:04Z</time>
      </trkpt>
      <trkpt lat="47.57064" lon="7.58306">
        <ele>259</ele>
        <time>2019-04-25T04:58:07Z</time>
      </trkpt>
      <trkpt lat="47.57061" lon="7.58337">
        <ele>264</ele>
        <time>2019-04-25T04:58:23Z</time>
      </trkpt>
      <trkpt lat="47.57061" lon="7.58347">
        <ele>265</ele>
        <time>2019-04-25T04:58:30Z</time>
      </trkpt>
      <trkpt lat="47.57061" lon="7.5836">
        <ele>262</ele>
        <time>2019-04-25T04:58:51Z</time>
      </trkpt>
      <trkpt lat="47.57062" lon="7.58368">
        <ele>259</ele>
        <time>2019-04-25T04:58:54Z</time>
      </trkpt>
      <trkpt lat="47.57061" lon="7.58446">
        <ele>265</ele>
        <time>2019-04-25T04:59:26Z</time>
      </trkpt>
      <trkpt lat="47.57062" lon="7.58491">
        <ele>263</ele>
        <time>2019-04-25T04:59:47Z</time>
      </trkpt>
      <trkpt lat="47.57057" lon="7.58554">
        <ele>263</ele>
        <time>2019-04-25T05:00:19Z</time>
      </trkpt>
      <trkpt lat="47.57059" lon="7.58591">
        <ele>261</ele>
        <time>2019-04-25T05:00:36Z</time>
      </trkpt>
      <trkpt lat="47.57061" lon="7.586">
        <ele>261</ele>
        <time>2019-04-25T05:00:40Z</time>
      </trkpt>
      <trkpt lat="47.57059" lon="7.58634">
        <ele>263</ele>
        <time>2019-04-25T05:00:57Z</time>
      </trkpt>
      <trkpt lat="47.57059" lon="7.58641">
        <ele>264</ele>
        <time>2019-04-25T05:01:00Z</time>
      </trkpt>
      <trkpt lat="47.57061" lon="7.58703">
        <ele>259</ele>
        <time>2019-04-25T05:01:28Z</time>
      </trkpt>
      <trkpt lat="47.57061" lon="7.58711">
        <ele>259</ele>
        <time>2019-04-25T05:01:32Z</time>
      </trkpt>
      <trkpt lat="47.57059" lon="7.58761">
        <ele>256</ele>
        <time>2019-04-25T05:01:56Z</time>
      </trkpt>
      <trkpt lat="47.57057" lon="7.58767">
        <ele>255</ele>
        <time>2019-04-25T05:02:00Z</time>
      </trkpt>
      <trkpt lat="47.57057" lon="7.58774">
        <ele>257</ele>
        <time>2019-04-25T05:02:12Z</time>
      </trkpt>
      <trkpt lat="47.57055" lon="7.58778">
        <ele>257</ele>
        <time>2019-04-25T05:02:15Z</time>
      </trkpt>
      <trkpt lat="47.57056" lon="7.58793">
        <ele>258</ele>
        <time>2019-04-25T05:02:23Z</time>
      </trkpt>
      <trkpt lat="47.57055" lon="7.58799">
        <ele>258</ele>
        <time>2019-04-25T05:02:26Z</time>
      </trkpt>
      <trkpt lat="47.57054" lon="7.58846">
        <ele>256</ele>
        <time>2019-04-25T05:02:48Z</time>
      </trkpt>
      <trkpt lat="47.57055" lon="7.58863">
        <ele>258</ele>
        <time>2019-04-25T05:02:56Z</time>
      </trkpt>
      <trkpt lat="47.57057" lon="7.58897">
        <ele>257</ele>
        <time>2019-04-25T05:03:12Z</time>
      </trkpt>
      <trkpt lat="47.57082" lon="7.58953">
        <ele>244</ele>
        <time>2019-04-25T05:03:46Z</time>
      </trkpt>
      <trkpt lat="47.57072" lon="7.58965">
        <ele>242</ele>
        <time>2019-04-25T05:03:48Z</time>
      </trkpt>
      <trkpt lat="47.57071" lon="7.58976">
        <ele>248</ele>
        <time>2019-04-25T05:03:53Z</time>
      </trkpt>
      <trkpt lat="47.57075" lon="7.5898">
        <ele>254</ele>
        <time>2019-04-25T05:04:07Z</time>
      </trkpt>
      <trkpt lat="47.57094" lon="7.58982">
        <ele>253</ele>
        <time>2019-04-25T05:04:21Z</time>
      </trkpt>
      <trkpt lat="47.57103" lon="7.58988">
        <ele>253</ele>
        <time>2019-04-25T05:04:28Z</time>
      </trkpt>
      <trkpt lat="47.57112" lon="7.58987">
        <ele>253</ele>
        <time>2019-04-25T05:04:35Z</time>
      </trkpt>
      <trkpt lat="47.5712" lon="7.58983">
        <ele>253</ele>
        <time>2019-04-25T05:04:38Z</time>
      </trkpt>
      <trkpt lat="47.57133" lon="7.58981">
        <ele>253</ele>
        <time>2019-04-25T05:04:53Z</time>
      </trkpt>
      <trkpt lat="47.5714" lon="7.58975">
        <ele>256</ele>
        <time>2019-04-25T05:04:56Z</time>
      </trkpt>
      <trkpt lat="47.57155" lon="7.58977">
        <ele>259</ele>
        <time>2019-04-25T05:05:10Z</time>
      </trkpt>
      <trkpt lat="47.57191" lon="7.58981">
        <ele>263</ele>
        <time>2019-04-25T05:05:33Z</time>
      </trkpt>
      <trkpt lat="47.57207" lon="7.58983">
        <ele>261</ele>
        <time>2019-04-25T05:05:44Z</time>
      </trkpt>
      <trkpt lat="47.57213" lon="7.58982">
        <ele>259</ele>
        <time>2019-04-25T05:05:48Z</time>
      </trkpt>
      <trkpt lat="47.5722" lon="7.58987">
        <ele>257</ele>
        <time>2019-04-25T05:05:55Z</time>
      </trkpt>
      <trkpt lat="47.57222" lon="7.58997">
        <ele>257</ele>
        <time>2019-04-25T05:06:04Z</time>
      </trkpt>
      <trkpt lat="47.57242" lon="7.58999">
        <ele>261</ele>
        <time>2019-04-25T05:06:37Z</time>
      </trkpt>
      <trkpt lat="47.57256" lon="7.58992">
        <ele>269</ele>
        <time>2019-04-25T05:06:47Z</time>
      </trkpt>
      <trkpt lat="47.57269" lon="7.5899">
        <ele>274</ele>
        <time>2019-04-25T05:06:58Z</time>
      </trkpt>
      <trkpt lat="47.57286" lon="7.5899">
        <ele>279</ele>
        <time>2019-04-25T05:07:07Z</time>
      </trkpt>
      <trkpt lat="47.57297" lon="7.58997">
        <ele>278</ele>
        <time>2019-04-25T05:07:12Z</time>
      </trkpt>
      <trkpt lat="47.57317" lon="7.59013">
        <ele>279</ele>
        <time>2019-04-25T05:07:20Z</time>
      </trkpt>
      <trkpt lat="47.57337" lon="7.59031">
        <ele>282</ele>
        <time>2019-04-25T05:07:26Z</time>
      </trkpt>
      <trkpt lat="47.57363" lon="7.59042">
        <ele>264</ele>
        <time>2019-04-25T05:07:52Z</time>
      </trkpt>
      <trkpt lat="47.5737" lon="7.59049">
        <ele>263</ele>
        <time>2019-04-25T05:07:57Z</time>
      </trkpt>
      <trkpt lat="47.57375" lon="7.59055">
        <ele>262</ele>
        <time>2019-04-25T05:08:01Z</time>
      </trkpt>
      <trkpt lat="47.57379" lon="7.59062">
        <ele>261</ele>
        <time>2019-04-25T05:08:05Z</time>
      </trkpt>
      <trkpt lat="47.57381" lon="7.59076">
        <ele>261</ele>
        <time>2019-04-25T05:08:12Z</time>
      </trkpt>
      <trkpt lat="47.5738" lon="7.59082">
        <ele>261</ele>
        <time>2019-04-25T05:08:15Z</time>
      </trkpt>
      <trkpt lat="47.57369" lon="7.59146">
        <ele>258</ele>
        <time>2019-04-25T05:08:47Z</time>
      </trkpt>
      <trkpt lat="47.57372" lon="7.5916">
        <ele>252</ele>
        <time>2019-04-25T05:08:54Z</time>
      </trkpt>
      <trkpt lat="47.57378" lon="7.59224">
        <ele>249</ele>
        <time>2019-04-25T05:09:24Z</time>
      </trkpt>
      <trkpt lat="47.57379" lon="7.59246">
        <ele>251</ele>
        <time>2019-04-25T05:09:33Z</time>
      </trkpt>
      <trkpt lat="47.57376" lon="7.59259">
        <ele>255</ele>
        <time>2019-04-25T05:09:39Z</time>
      </trkpt>
      <trkpt lat="47.57374" lon="7.59289">
        <ele>260</ele>
        <time>2019-04-25T05:09:53Z</time>
      </trkpt>
      <trkpt lat="47.57375" lon="7.59304">
        <ele>261</ele>
        <time>2019-04-25T05:10:00Z</time>
      </trkpt>
      <trkpt lat="47.57372" lon="7.59312">
        <ele>260</ele>
        <time>2019-04-25T05:10:04Z</time>
      </trkpt>
      <trkpt lat="47.57372" lon="7.59322">
        <ele>261</ele>
        <time>2019-04-25T05:10:08Z</time>
      </trkpt>
      <trkpt lat="47.57368" lon="7.59328">
        <ele>260</ele>
        <time>2019-04-25T05:10:10Z</time>
      </trkpt>
      <trkpt lat="47.57368" lon="7.59336">
        <ele>260</ele>
        <time>2019-04-25T05:10:13Z</time>
      </trkpt>
      <trkpt lat="47.57369" lon="7.59342">
        <ele>261</ele>
        <time>2019-04-25T05:10:16Z</time>
      </trkpt>
      <trkpt lat="47.57372" lon="7.59347">
        <ele>262</ele>
        <time>2019-04-25T05:10:19Z</time>
      </trkpt>
      <trkpt lat="47.5737" lon="7.59354">
        <ele>262</ele>
        <time>2019-04-25T05:10:22Z</time>
      </trkpt>
      <trkpt lat="47.57368" lon="7.59361">
        <ele>258</ele>
        <time>2019-04-25T05:10:27Z</time>
      </trkpt>
      <trkpt lat="47.57369" lon="7.59373">
        <ele>256</ele>
        <time>2019-04-25T05:10:32Z</time>
      </trkpt>
      <trkpt lat="47.57368" lon="7.59397">
        <ele>253</ele>
        <time>2019-04-25T05:10:44Z</time>
      </trkpt>
      <trkpt lat="47.57366" lon="7.59408">
        <ele>255</ele>
        <time>2019-04-25T05:10:50Z</time>
      </trkpt>
      <trkpt lat="47.57368" lon="7.59416">
        <ele>255</ele>
        <time>2019-04-25T05:10:53Z</time>
      </trkpt>
      <trkpt lat="47.57365" lon="7.59427">
        <ele>253</ele>
        <time>2019-04-25T05:10:57Z</time>
      </trkpt>
      <trkpt lat="47.57368" lon="7.59443">
        <ele>253</ele>
        <time>2019-04-25T05:11:04Z</time>
      </trkpt>
      <trkpt lat="47.57365" lon="7.59464">
        <ele>256</ele>
        <time>2019-04-25T05:11:15Z</time>
      </trkpt>
      <trkpt lat="47.57371" lon="7.59507">
        <ele>258</ele>
        <time>2019-04-25T05:11:34Z</time>
      </trkpt>
      <trkpt lat="47.57371" lon="7.59516">
        <ele>257</ele>
        <time>2019-04-25T05:11:38Z</time>
      </trkpt>
      <trkpt lat="47.57376" lon="7.59525">
        <ele>257</ele>
        <time>2019-04-25T05:11:42Z</time>
      </trkpt>
      <trkpt lat="47.57371" lon="7.59543">
        <ele>258</ele>
        <time>2019-04-25T05:11:51Z</time>
      </trkpt>
      <trkpt lat="47.57375" lon="7.5955">
        <ele>257</ele>
        <time>2019-04-25T05:11:55Z</time>
      </trkpt>
      <trkpt lat="47.57381" lon="7.59565">
        <ele>255</ele>
        <time>2019-04-25T05:12:04Z</time>
      </trkpt>
      <trkpt lat="47.57382" lon="7.59572">
        <ele>257</ele>
        <time>2019-04-25T05:12:07Z</time>
      </trkpt>
      <trkpt lat="47.5738" lon="7.59581">
        <ele>258</ele>
        <time>2019-04-25T05:12:11Z</time>
      </trkpt>
      <trkpt lat="47.57379" lon="7.5959">
        <ele>260</ele>
        <time>2019-04-25T05:12:16Z</time>
      </trkpt>
      <trkpt lat="47.57381" lon="7.59599">
        <ele>261</ele>
        <time>2019-04-25T05:12:20Z</time>
      </trkpt>
      <trkpt lat="47.57384" lon="7.59629">
        <ele>262</ele>
        <time>2019-04-25T05:12:34Z</time>
      </trkpt>
      <trkpt lat="47.57381" lon="7.59639">
        <ele>262</ele>
        <time>2019-04-25T05:12:39Z</time>
      </trkpt>
      <trkpt lat="47.57382" lon="7.59653">
        <ele>262</ele>
        <time>2019-04-25T05:12:44Z</time>
      </trkpt>
      <trkpt lat="47.57386" lon="7.59669">
        <ele>261</ele>
        <time>2019-04-25T05:12:52Z</time>
      </trkpt>
      <trkpt lat="47.57383" lon="7.59686">
        <ele>262</ele>
        <time>2019-04-25T05:12:59Z</time>
      </trkpt>
      <trkpt lat="47.57372" lon="7.59693">
        <ele>263</ele>
        <time>2019-04-25T05:13:04Z</time>
      </trkpt>
      <trkpt lat="47.57377" lon="7.59704">
        <ele>266</ele>
        <time>2019-04-25T05:13:09Z</time>
      </trkpt>
      <trkpt lat="47.57378" lon="7.59719">
        <ele>269</ele>
        <time>2019-04-25T05:13:16Z</time>
      </trkpt>
      <trkpt lat="47.57376" lon="7.59784">
        <ele>266</ele>
        <time>2019-04-25T05:13:47Z</time>
      </trkpt>
      <trkpt lat="47.57383" lon="7.59794">
        <ele>260</ele>
        <time>2019-04-25T05:13:50Z</time>
      </trkpt>
      <trkpt lat="47.57392" lon="7.5981">
        <ele>258</ele>
        <time>2019-04-25T05:14:00Z</time>
      </trkpt>
      <trkpt lat="47.57395" lon="7.59816">
        <ele>259</ele>
        <time>2019-04-25T05:14:04Z</time>
      </trkpt>
      <trkpt lat="47.57401" lon="7.59815">
        <ele>261</ele>
        <time>2019-04-25T05:14:10Z</time>
      </trkpt>
      <trkpt lat="47.57405" lon="7.59811">
        <ele>259</ele>
        <time>2019-04-25T05:14:15Z</time>
      </trkpt>
      <trkpt lat="47.57412" lon="7.59812">
        <ele>257</ele>
        <time>2019-04-25T05:14:19Z</time>
      </trkpt>
      <trkpt lat="47.57432" lon="7.59811">
        <ele>257</ele>
        <time>2019-04-25T05:14:31Z</time>
      </trkpt>
      <trkpt lat="47.57438" lon="7.59818">
        <ele>258</ele>
        <time>2019-04-25T05:14:43Z</time>
      </trkpt>
      <trkpt lat="47.57484" lon="7.59832">
        <ele>260</ele>
        <time>2019-04-25T05:15:16Z</time>
      </trkpt>
      <trkpt lat="47.57475" lon="7.59897">
        <ele>258</ele>
        <time>2019-04-25T05:15:49Z</time>
      </trkpt>
      <trkpt lat="47.5748" lon="7.59945">
        <ele>263</ele>
        <time>2019-04-25T05:16:10Z</time>
      </trkpt>
      <trkpt lat="47.57474" lon="7.59977">
        <ele>265</ele>
        <time>2019-04-25T05:16:30Z</time>
      </trkpt>
      <trkpt lat="47.57487" lon="7.60024">
        <ele>262</ele>
        <time>2019-04-25T05:16:46Z</time>
      </trkpt>
      <trkpt lat="47.57486" lon="7.60092">
        <ele>267</ele>
        <time>2019-04-25T05:17:16Z</time>
      </trkpt>
      <trkpt lat="47.5749" lon="7.60104">
        <ele>266</ele>
        <time>2019-04-25T05:17:25Z</time>
      </trkpt>
      <trkpt lat="47.57493" lon="7.60109">
        <ele>261</ele>
        <time>2019-04-25T05:17:30Z</time>
      </trkpt>
      <trkpt lat="47.57491" lon="7.60115">
        <ele>257</ele>
        <time>2019-04-25T05:17:47Z</time>
      </trkpt>
      <trkpt lat="47.5749" lon="7.60129">
        <ele>255</ele>
        <time>2019-04-25T05:18:17Z</time>
      </trkpt>
      <trkpt lat="47.57492" lon="7.60193">
        <ele>276</ele>
        <time>2019-04-25T05:18:49Z</time>
      </trkpt>
      <trkpt lat="47.575" lon="7.60204">
        <ele>276</ele>
        <time>2019-04-25T05:18:53Z</time>
      </trkpt>
      <trkpt lat="47.57501" lon="7.60211">
        <ele>267</ele>
        <time>2019-04-25T05:18:59Z</time>
      </trkpt>
      <trkpt lat="47.57501" lon="7.60221">
        <ele>266</ele>
        <time>2019-04-25T05:19:04Z</time>
      </trkpt>
      <trkpt lat="47.5751" lon="7.60246">
        <ele>268</ele>
        <time>2019-04-25T05:19:18Z</time>
      </trkpt>
      <trkpt lat="47.57506" lon="7.60263">
        <ele>266</ele>
        <time>2019-04-25T05:19:27Z</time>
      </trkpt>
      <trkpt lat="47.57512" lon="7.60297">
        <ele>259</ele>
        <time>2019-04-25T05:19:39Z</time>
      </trkpt>
      <trkpt lat="47.57517" lon="7.60298">
        <ele>260</ele>
        <time>2019-04-25T05:19:53Z</time>
      </trkpt>
      <trkpt lat="47.57518" lon="7.603">
        <ele>260</ele>
        <time>2019-04-25T05:20:04Z</time>
      </trkpt>
      <trkpt lat="47.57519" lon="7.60306">
        <ele>260</ele>
        <time>2019-04-25T05:20:07Z</time>
      </trkpt>
      <trkpt lat="47.57519" lon="7.60326">
        <ele>259</ele>
        <time>2019-04-25T05:20:19Z</time>
      </trkpt>
      <trkpt lat="47.57523" lon="7.60335">
        <ele>259</ele>
        <time>2019-04-25T05:20:22Z</time>
      </trkpt>
      <trkpt lat="47.5752" lon="7.60343">
        <ele>257</ele>
        <time>2019-04-25T05:20:28Z</time>
      </trkpt>
      <trkpt lat="47.57519" lon="7.60352">
        <ele>256</ele>
        <time>2019-04-25T05:20:32Z</time>
      </trkpt>
      <trkpt lat="47.57522" lon="7.6036">
        <ele>255</ele>
        <time>2019-04-25T05:20:36Z</time>
      </trkpt>
      <trkpt lat="47.57521" lon="7.6037">
        <ele>255</ele>
        <time>2019-04-25T05:20:41Z</time>
      </trkpt>
      <trkpt lat="47.5752" lon="7.60379">
        <ele>253</ele>
        <time>2019-04-25T05:20:45Z</time>
      </trkpt>
      <trkpt lat="47.57524" lon="7.60389">
        <ele>252</ele>
        <time>2019-04-25T05:20:49Z</time>
      </trkpt>
      <trkpt lat="47.57526" lon="7.60409">
        <ele>248</ele>
        <time>2019-04-25T05:20:58Z</time>
      </trkpt>
      <trkpt lat="47.57523" lon="7.60424">
        <ele>248</ele>
        <time>2019-04-25T05:21:06Z</time>
      </trkpt>
      <trkpt lat="47.57528" lon="7.60463">
        <ele>257</ele>
        <time>2019-04-25T05:21:25Z</time>
      </trkpt>
      <trkpt lat="47.57529" lon="7.60474">
        <ele>256</ele>
        <time>2019-04-25T05:21:30Z</time>
      </trkpt>
      <trkpt lat="47.57533" lon="7.60485">
        <ele>255</ele>
        <time>2019-04-25T05:21:34Z</time>
      </trkpt>
      <trkpt lat="47.57537" lon="7.60506">
        <ele>255</ele>
        <time>2019-04-25T05:21:43Z</time>
      </trkpt>
      <trkpt lat="47.57541" lon="7.60567">
        <ele>255</ele>
        <time>2019-04-25T05:22:11Z</time>
      </trkpt>
      <trkpt lat="47.57543" lon="7.60575">
        <ele>252</ele>
        <time>2019-04-25T05:22:14Z</time>
      </trkpt>
      <trkpt lat="47.57544" lon="7.60584">
        <ele>253</ele>
        <time>2019-04-25T05:22:18Z</time>
      </trkpt>
      <trkpt lat="47.57544" lon="7.606">
        <ele>253</ele>
        <time>2019-04-25T05:22:26Z</time>
      </trkpt>
      <trkpt lat="47.57543" lon="7.6061">
        <ele>253</ele>
        <time>2019-04-25T05:22:31Z</time>
      </trkpt>
      <trkpt lat="47.57546" lon="7.6062">
        <ele>251</ele>
        <time>2019-04-25T05:22:34Z</time>
      </trkpt>
      <trkpt lat="47.57549" lon="7.60631">
        <ele>252</ele>
        <time>2019-04-25T05:22:39Z</time>
      </trkpt>
      <trkpt lat="47.57554" lon="7.60658">
        <ele>255</ele>
        <time>2019-04-25T05:22:53Z</time>
      </trkpt>
      <trkpt lat="47.57552" lon="7.60667">
        <ele>258</ele>
        <time>2019-04-25T05:22:58Z</time>
      </trkpt>
      <trkpt lat="47.57555" lon="7.60678">
        <ele>258</ele>
        <time>2019-04-25T05:23:02Z</time>
      </trkpt>
      <trkpt lat="47.57555" lon="7.607">
        <ele>259</ele>
        <time>2019-04-25T05:23:11Z</time>
      </trkpt>
      <trkpt lat="47.57554" lon="7.60783">
        <ele>259</ele>
        <time>2019-04-25T05:23:48Z</time>
      </trkpt>
      <trkpt lat="47.57559" lon="7.60789">
        <ele>254</ele>
        <time>2019-04-25T05:23:52Z</time>
      </trkpt>
      <trkpt lat="47.57561" lon="7.60795">
        <ele>252</ele>
        <time>2019-04-25T05:23:56Z</time>
      </trkpt>
      <trkpt lat="47.57564" lon="7.60802">
        <ele>251</ele>
        <time>2019-04-25T05:23:59Z</time>
      </trkpt>
      <trkpt lat="47.57567" lon="7.6084">
        <ele>250</ele>
        <time>2019-04-25T05:24:16Z</time>
      </trkpt>
      <trkpt lat="47.57568" lon="7.60848">
        <ele>251</ele>
        <time>2019-04-25T05:24:19Z</time>
      </trkpt>
      <trkpt lat="47.57571" lon="7.60866">
        <ele>253</ele>
        <time>2019-04-25T05:24:32Z</time>
      </trkpt>
      <trkpt lat="47.57572" lon="7.60876">
        <ele>250</ele>
        <time>2019-04-25T05:24:37Z</time>
      </trkpt>
      <trkpt lat="47.57573" lon="7.60887">
        <ele>250</ele>
        <time>2019-04-25T05:24:42Z</time>
      </trkpt>
      <trkpt lat="47.57573" lon="7.60899">
        <ele>251</ele>
        <time>2019-04-25T05:24:47Z</time>
      </trkpt>
      <trkpt lat="47.57581" lon="7.60955">
        <ele>262</ele>
        <time>2019-04-25T05:25:11Z</time>
      </trkpt>
      <trkpt lat="47.57585" lon="7.60975">
        <ele>263</ele>
        <time>2019-04-25T05:25:20Z</time>
      </trkpt>
      <trkpt lat="47.57584" lon="7.60984">
        <ele>265</ele>
        <time>2019-04-25T05:25:24Z</time>
      </trkpt>
      <trkpt lat="47.57582" lon="7.60993">
        <ele>265</ele>
        <time>2019-04-25T05:25:28Z</time>
      </trkpt>
      <trkpt lat="47.57582" lon="7.61001">
        <ele>264</ele>
        <time>2019-04-25T05:25:33Z</time>
      </trkpt>
      <trkpt lat="47.57584" lon="7.61018">
        <ele>263</ele>
        <time>2019-04-25T05:25:39Z</time>
      </trkpt>
      <trkpt lat="47.57583" lon="7.61028">
        <ele>262</ele>
        <time>2019-04-25T05:25:44Z</time>
      </trkpt>
      <trkpt lat="47.57586" lon="7.61036">
        <ele>258</ele>
        <time>2019-04-25T05:25:50Z</time>
      </trkpt>
      <trkpt lat="47.57588" lon="7.61049">
        <ele>257</ele>
        <time>2019-04-25T05:25:57Z</time>
      </trkpt>
      <trkpt lat="47.57594" lon="7.61061">
        <ele>256</ele>
        <time>2019-04-25T05:26:02Z</time>
      </trkpt>
      <trkpt lat="47.57593" lon="7.61075">
        <ele>258</ele>
        <time>2019-04-25T05:26:09Z</time>
      </trkpt>
      <trkpt lat="47.57598" lon="7.6109">
        <ele>262</ele>
        <time>2019-04-25T05:26:15Z</time>
      </trkpt>
      <trkpt lat="47.57595" lon="7.61103">
        <ele>263</ele>
        <time>2019-04-25T05:26:21Z</time>
      </trkpt>
      <trkpt lat="47.576" lon="7.61114">
        <ele>260</ele>
        <time>2019-04-25T05:26:25Z</time>
      </trkpt>
      <trkpt lat="47.57601" lon="7.61149">
        <ele>261</ele>
        <time>2019-04-25T05:26:40Z</time>
      </trkpt>
      <trkpt lat="47.57601" lon="7.61158">
        <ele>263</ele>
        <time>2019-04-25T05:26:45Z</time>
      </trkpt>
      <trkpt lat="47.57602" lon="7.61168">
        <ele>264</ele>
        <time>2019-04-25T05:26:50Z</time>
      </trkpt>
      <trkpt lat="47.576" lon="7.61211">
        <ele>264</ele>
        <time>2019-04-25T05:27:06Z</time>
      </trkpt>
      <trkpt lat="47.57607" lon="7.61216">
        <ele>259</ele>
        <time>2019-04-25T05:27:11Z</time>
      </trkpt>
      <trkpt lat="47.57609" lon="7.61233">
        <ele>261</ele>
        <time>2019-04-25T05:27:20Z</time>
      </trkpt>
      <trkpt lat="47.57613" lon="7.61248">
        <ele>267</ele>
        <time>2019-04-25T05:27:27Z</time>
      </trkpt>
      <trkpt lat="47.57613" lon="7.61255">
        <ele>266</ele>
        <time>2019-04-25T05:27:31Z</time>
      </trkpt>
      <trkpt lat="47.57613" lon="7.61262">
        <ele>264</ele>
        <time>2019-04-25T05:27:35Z</time>
      </trkpt>
      <trkpt lat="47.57617" lon="7.61296">
        <ele>265</ele>
        <time>2019-04-25T05:27:51Z</time>
      </trkpt>
      <trkpt lat="47.57622" lon="7.61317">
        <ele>268</ele>
        <time>2019-04-25T05:28:01Z</time>
      </trkpt>
      <trkpt lat="47.57626" lon="7.61335">
        <ele>270</ele>
        <time>2019-04-25T05:28:12Z</time>
      </trkpt>
      <trkpt lat="47.57627" lon="7.61423">
        <ele>260</ele>
        <time>2019-04-25T05:28:49Z</time>
      </trkpt>
      <trkpt lat="47.57636" lon="7.61433">
        <ele>257</ele>
        <time>2019-04-25T05:28:53Z</time>
      </trkpt>
      <trkpt lat="47.57636" lon="7.61441">
        <ele>263</ele>
        <time>2019-04-25T05:28:57Z</time>
      </trkpt>
      <trkpt lat="47.57638" lon="7.61448">
        <ele>265</ele>
        <time>2019-04-25T05:29:00Z</time>
      </trkpt>
      <trkpt lat="47.57639" lon="7.61456">
        <ele>267</ele>
        <time>2019-04-25T05:29:03Z</time>
      </trkpt>
      <trkpt lat="47.57635" lon="7.61469">
        <ele>267</ele>
        <time>2019-04-25T05:29:11Z</time>
      </trkpt>
      <trkpt lat="47.57644" lon="7.61537">
        <ele>268</ele>
        <time>2019-04-25T05:29:43Z</time>
      </trkpt>
      <trkpt lat="47.57643" lon="7.61546">
        <ele>269</ele>
        <time>2019-04-25T05:29:47Z</time>
      </trkpt>
      <trkpt lat="47.57649" lon="7.61562">
        <ele>271</ele>
        <time>2019-04-25T05:29:54Z</time>
      </trkpt>
      <trkpt lat="47.57647" lon="7.61579">
        <ele>273</ele>
        <time>2019-04-25T05:30:01Z</time>
      </trkpt>
      <trkpt lat="47.57646" lon="7.61596">
        <ele>273</ele>
        <time>2019-04-25T05:30:10Z</time>
      </trkpt>
      <trkpt lat="47.57651" lon="7.61622">
        <ele>272</ele>
        <time>2019-04-25T05:30:22Z</time>
      </trkpt>
      <trkpt lat="47.57649" lon="7.6163">
        <ele>272</ele>
        <time>2019-04-25T05:30:25Z</time>
      </trkpt>
      <trkpt lat="47.57655" lon="7.61653">
        <ele>276</ele>
        <time>2019-04-25T05:30:35Z</time>
      </trkpt>
      <trkpt lat="47.57653" lon="7.61665">
        <ele>274</ele>
        <time>2019-04-25T05:30:44Z</time>
      </trkpt>
      <trkpt lat="47.57658" lon="7.61679">
        <ele>275</ele>
        <time>2019-04-25T05:30:49Z</time>
      </trkpt>
      <trkpt lat="47.57657" lon="7.61692">
        <ele>273</ele>
        <time>2019-04-25T05:30:54Z</time>
      </trkpt>
      <trkpt lat="47.57664" lon="7.61717">
        <ele>276</ele>
        <time>2019-04-25T05:31:08Z</time>
      </trkpt>
      <trkpt lat="47.57663" lon="7.61729">
        <ele>276</ele>
        <time>2019-04-25T05:31:13Z</time>
      </trkpt>
      <trkpt lat="47.57664" lon="7.61743">
        <ele>275</ele>
        <time>2019-04-25T05:31:19Z</time>
      </trkpt>
      <trkpt lat="47.57664" lon="7.61755">
        <ele>273</ele>
        <time>2019-04-25T05:31:24Z</time>
      </trkpt>
      <trkpt lat="47.57664" lon="7.61766">
        <ele>271</ele>
        <time>2019-04-25T05:31:28Z</time>
      </trkpt>
      <trkpt lat="47.57662" lon="7.6178">
        <ele>272</ele>
        <time>2019-04-25T05:31:35Z</time>
      </trkpt>
      <trkpt lat="47.57666" lon="7.61796">
        <ele>275</ele>
        <time>2019-04-25T05:31:43Z</time>
      </trkpt>
      <trkpt lat="47.57663" lon="7.61808">
        <ele>281</ele>
        <time>2019-04-25T05:31:50Z</time>
      </trkpt>
      <trkpt lat="47.57667" lon="7.61822">
        <ele>281</ele>
        <time>2019-04-25T05:31:57Z</time>
      </trkpt>
      <trkpt lat="47.5767" lon="7.61834">
        <ele>277</ele>
        <time>2019-04-25T05:32:04Z</time>
      </trkpt>
      <trkpt lat="47.5767" lon="7.61849">
        <ele>275</ele>
        <time>2019-04-25T05:32:13Z</time>
      </trkpt>
      <trkpt lat="47.5768" lon="7.61861">
        <ele>274</ele>
        <time>2019-04-25T05:32:19Z</time>
      </trkpt>
      <trkpt lat="47.5768" lon="7.61877">
        <ele>272</ele>
        <time>2019-04-25T05:32:25Z</time>
      </trkpt>
      <trkpt lat="47.57677" lon="7.61899">
        <ele>268</ele>
        <time>2019-04-25T05:32:35Z</time>
      </trkpt>
      <trkpt lat="47.57677" lon="7.61922">
        <ele>271</ele>
        <time>2019-04-25T05:32:47Z</time>
      </trkpt>
      <trkpt lat="47.57675" lon="7.61933">
        <ele>271</ele>
        <time>2019-04-25T05:32:53Z</time>
      </trkpt>
      <trkpt lat="47.57681" lon="7.61948">
        <ele>273</ele>
        <time>2019-04-25T05:33:00Z</time>
      </trkpt>
      <trkpt lat="47.57686" lon="7.61962">
        <ele>271</ele>
        <time>2019-04-25T05:33:07Z</time>
      </trkpt>
      <trkpt lat="47.57691" lon="7.61978">
        <ele>267</ele>
        <time>2019-04-25T05:33:13Z</time>
      </trkpt>
      <trkpt lat="47.57732" lon="7.62058">
        <ele>275</ele>
        <time>2019-04-25T05:33:50Z</time>
      </trkpt>
      <trkpt lat="47.57732" lon="7.6207">
        <ele>275</ele>
        <time>2019-04-25T05:33:56Z</time>
      </trkpt>
      <trkpt lat="47.57734" lon="7.62077">
        <ele>272</ele>
        <time>2019-04-25T05:33:59Z</time>
      </trkpt>
      <trkpt lat="47.57754" lon="7.62131">
        <ele>272</ele>
        <time>2019-04-25T05:34:25Z</time>
      </trkpt>
      <trkpt lat="47.57755" lon="7.62141">
        <ele>271</ele>
        <time>2019-04-25T05:34:30Z</time>
      </trkpt>
      <trkpt lat="47.57758" lon="7.62146">
        <ele>272</ele>
        <time>2019-04-25T05:34:34Z</time>
      </trkpt>
      <trkpt lat="47.57763" lon="7.62161">
        <ele>272</ele>
        <time>2019-04-25T05:34:43Z</time>
      </trkpt>
      <trkpt lat="47.57764" lon="7.62169">
        <ele>270</ele>
        <time>2019-04-25T05:34:48Z</time>
      </trkpt>
      <trkpt lat="47.57768" lon="7.62176">
        <ele>268</ele>
        <time>2019-04-25T05:34:52Z</time>
      </trkpt>
      <trkpt lat="47.57772" lon="7.62187">
        <ele>268</ele>
        <time>2019-04-25T05:34:58Z</time>
      </trkpt>
      <trkpt lat="47.57776" lon="7.62195">
        <ele>269</ele>
        <time>2019-04-25T05:35:01Z</time>
      </trkpt>
      <trkpt lat="47.5778" lon="7.62201">
        <ele>269</ele>
        <time>2019-04-25T05:35:04Z</time>
      </trkpt>
      <trkpt lat="47.57783" lon="7.62211">
        <ele>269</ele>
        <time>2019-04-25T05:35:10Z</time>
      </trkpt>
      <trkpt lat="47.57788" lon="7.62216">
        <ele>271</ele>
        <time>2019-04-25T05:35:13Z</time>
      </trkpt>
      <trkpt lat="47.57793" lon="7.62225">
        <ele>273</ele>
        <time>2019-04-25T05:35:18Z</time>
      </trkpt>
      <trkpt lat="47.57796" lon="7.62235">
        <ele>272</ele>
        <time>2019-04-25T05:35:24Z</time>
      </trkpt>
      <trkpt lat="47.57806" lon="7.6225">
        <ele>272</ele>
        <time>2019-04-25T05:35:33Z</time>
      </trkpt>
      <trkpt lat="47.57818" lon="7.62266">
        <ele>271</ele>
        <time>2019-04-25T05:35:42Z</time>
      </trkpt>
      <trkpt lat="47.57818" lon="7.62275">
        <ele>270</ele>
        <time>2019-04-25T05:35:47Z</time>
      </trkpt>
      <trkpt lat="47.57822" lon="7.62283">
        <ele>269</ele>
        <time>2019-04-25T05:35:52Z</time>
      </trkpt>
      <trkpt lat="47.5784" lon="7.62307">
        <ele>271</ele>
        <time>2019-04-25T05:36:09Z</time>
      </trkpt>
      <trkpt lat="47.57846" lon="7.62325">
        <ele>270</ele>
        <time>2019-04-25T05:36:19Z</time>
      </trkpt>
      <trkpt lat="47.57848" lon="7.62332">
        <ele>269</ele>
        <time>2019-04-25T05:36:24Z</time>
      </trkpt>
      <trkpt lat="47.57853" lon="7.6234">
        <ele>267</ele>
        <time>2019-04-25T05:36:28Z</time>
      </trkpt>
      <trkpt lat="47.57857" lon="7.62345">
        <ele>267</ele>
        <time>2019-04-25T05:36:31Z</time>
      </trkpt>
      <trkpt lat="47.57862" lon="7.6235">
        <ele>266</ele>
        <time>2019-04-25T05:36:34Z</time>
      </trkpt>
      <trkpt lat="47.57865" lon="7.62358">
        <ele>266</ele>
        <time>2019-04-25T05:36:39Z</time>
      </trkpt>
      <trkpt lat="47.5787" lon="7.62365">
        <ele>265</ele>
        <time>2019-04-25T05:36:43Z</time>
      </trkpt>
      <trkpt lat="47.57874" lon="7.62372">
        <ele>266</ele>
        <time>2019-04-25T05:36:48Z</time>
      </trkpt>
      <trkpt lat="47.57883" lon="7.62386">
        <ele>265</ele>
        <time>2019-04-25T05:36:59Z</time>
      </trkpt>
      <trkpt lat="47.57887" lon="7.62394">
        <ele>266</ele>
        <time>2019-04-25T05:37:04Z</time>
      </trkpt>
      <trkpt lat="47.57898" lon="7.62405">
        <ele>268</ele>
        <time>2019-04-25T05:37:12Z</time>
      </trkpt>
      <trkpt lat="47.57903" lon="7.62409">
        <ele>268</ele>
        <time>2019-04-25T05:37:15Z</time>
      </trkpt>
      <trkpt lat="47.57905" lon="7.62418">
        <ele>269</ele>
        <time>2019-04-25T05:37:20Z</time>
      </trkpt>
      <trkpt lat="47.5791" lon="7.62431">
        <ele>268</ele>
        <time>2019-04-25T05:37:27Z</time>
      </trkpt>
      <trkpt lat="47.57915" lon="7.62442">
        <ele>267</ele>
        <time>2019-04-25T05:37:33Z</time>
      </trkpt>
      <trkpt lat="47.5792" lon="7.62453">
        <ele>269</ele>
        <time>2019-04-25T05:37:39Z</time>
      </trkpt>
      <trkpt lat="47.57926" lon="7.62469">
        <ele>271</ele>
        <time>2019-04-25T05:37:45Z</time>
      </trkpt>
      <trkpt lat="47.57928" lon="7.62479">
        <ele>272</ele>
        <time>2019-04-25T05:37:49Z</time>
      </trkpt>
      <trkpt lat="47.57953" lon="7.62512">
        <ele>272</ele>
        <time>2019-04-25T05:38:12Z</time>
      </trkpt>
      <trkpt lat="47.57962" lon="7.62521">
        <ele>273</ele>
        <time>2019-04-25T05:38:19Z</time>
      </trkpt>
      <trkpt lat="47.57982" lon="7.6257">
        <ele>270</ele>
        <time>2019-04-25T05:38:52Z</time>
      </trkpt>
      <trkpt lat="47.57987" lon="7.62584">
        <ele>263</ele>
        <time>2019-04-25T05:38:56Z</time>
      </trkpt>
      <trkpt lat="47.57997" lon="7.62588">
        <ele>258</ele>
        <time>2019-04-25T05:38:59Z</time>
      </trkpt>
      <trkpt lat="47.58002" lon="7.62595">
        <ele>259</ele>
        <time>2019-04-25T05:39:04Z</time>
      </trkpt>
      <trkpt lat="47.58016" lon="7.62614">
        <ele>260</ele>
        <time>2019-04-25T05:39:16Z</time>
      </trkpt>
      <trkpt lat="47.58022" lon="7.62622">
        <ele>261</ele>
        <time>2019-04-25T05:39:21Z</time>
      </trkpt>
      <trkpt lat="47.58026" lon="7.62628">
        <ele>261</ele>
        <time>2019-04-25T05:39:25Z</time>
      </trkpt>
      <trkpt lat="47.58032" lon="7.62637">
        <ele>260</ele>
        <time>2019-04-25T05:39:30Z</time>
      </trkpt>
      <trkpt lat="47.58045" lon="7.62659">
        <ele>261</ele>
        <time>2019-04-25T05:39:45Z</time>
      </trkpt>
      <trkpt lat="47.58059" lon="7.62679">
        <ele>264</ele>
        <time>2019-04-25T05:39:58Z</time>
      </trkpt>
      <trkpt lat="47.58061" lon="7.62685">
        <ele>264</ele>
        <time>2019-04-25T05:40:01Z</time>
      </trkpt>
      <trkpt lat="47.58074" lon="7.627">
        <ele>267</ele>
        <time>2019-04-25T05:40:10Z</time>
      </trkpt>
      <trkpt lat="47.58077" lon="7.62708">
        <ele>268</ele>
        <time>2019-04-25T05:40:14Z</time>
      </trkpt>
      <trkpt lat="47.58084" lon="7.62713">
        <ele>270</ele>
        <time>2019-04-25T05:40:18Z</time>
      </trkpt>
      <trkpt lat="47.58101" lon="7.62735">
        <ele>270</ele>
        <time>2019-04-25T05:40:31Z</time>
      </trkpt>
      <trkpt lat="47.58107" lon="7.62743">
        <ele>273</ele>
        <time>2019-04-25T05:40:36Z</time>
      </trkpt>
      <trkpt lat="47.58109" lon="7.62751">
        <ele>270</ele>
        <time>2019-04-25T05:40:42Z</time>
      </trkpt>
      <trkpt lat="47.58126" lon="7.62771">
        <ele>272</ele>
        <time>2019-04-25T05:40:54Z</time>
      </trkpt>
      <trkpt lat="47.58127" lon="7.62783">
        <ele>269</ele>
        <time>2019-04-25T05:40:58Z</time>
      </trkpt>
      <trkpt lat="47.58129" lon="7.62795">
        <ele>267</ele>
        <time>2019-04-25T05:41:05Z</time>
      </trkpt>
      <trkpt lat="47.58139" lon="7.62806">
        <ele>268</ele>
        <time>2019-04-25T05:41:11Z</time>
      </trkpt>
      <trkpt lat="47.58141" lon="7.62816">
        <ele>269</ele>
        <time>2019-04-25T05:41:17Z</time>
      </trkpt>
      <trkpt lat="47.58158" lon="7.62841">
        <ele>272</ele>
        <time>2019-04-25T05:41:32Z</time>
      </trkpt>
      <trkpt lat="47.58161" lon="7.62848">
        <ele>271</ele>
        <time>2019-04-25T05:41:36Z</time>
      </trkpt>
      <trkpt lat="47.58167" lon="7.62855">
        <ele>269</ele>
        <time>2019-04-25T05:41:41Z</time>
      </trkpt>
      <trkpt lat="47.5817" lon="7.62863">
        <ele>269</ele>
        <time>2019-04-25T05:41:46Z</time>
      </trkpt>
      <trkpt lat="47.58174" lon="7.62869">
        <ele>269</ele>
        <time>2019-04-25T05:41:50Z</time>
      </trkpt>
      <trkpt lat="47.58178" lon="7.62874">
        <ele>268</ele>
        <time>2019-04-25T05:41:53Z</time>
      </trkpt>
      <trkpt lat="47.58186" lon="7.62887">
        <ele>267</ele>
        <time>2019-04-25T05:42:00Z</time>
      </trkpt>
      <trkpt lat="47.58195" lon="7.62898">
        <ele>268</ele>
        <time>2019-04-25T05:42:07Z</time>
      </trkpt>
      <trkpt lat="47.582" lon="7.62904">
        <ele>270</ele>
        <time>2019-04-25T05:42:11Z</time>
      </trkpt>
      <trkpt lat="47.58205" lon="7.62909">
        <ele>271</ele>
        <time>2019-04-25T05:42:14Z</time>
      </trkpt>
      <trkpt lat="47.58207" lon="7.62917">
        <ele>271</ele>
        <time>2019-04-25T05:42:19Z</time>
      </trkpt>
      <trkpt lat="47.58221" lon="7.62933">
        <ele>272</ele>
        <time>2019-04-25T05:42:32Z</time>
      </trkpt>
      <trkpt lat="47.58221" lon="7.62944">
        <ele>271</ele>
        <time>2019-04-25T05:42:38Z</time>
      </trkpt>
      <trkpt lat="47.58231" lon="7.62961">
        <ele>271</ele>
        <time>2019-04-25T05:42:47Z</time>
      </trkpt>
      <trkpt lat="47.58243" lon="7.62976">
        <ele>272</ele>
        <time>2019-04-25T05:42:56Z</time>
      </trkpt>
      <trkpt lat="47.58247" lon="7.62982">
        <ele>270</ele>
        <time>2019-04-25T05:43:00Z</time>
      </trkpt>
      <trkpt lat="47.58252" lon="7.62988">
        <ele>271</ele>
        <time>2019-04-25T05:43:04Z</time>
      </trkpt>
      <trkpt lat="47.58251" lon="7.62998">
        <ele>270</ele>
        <time>2019-04-25T05:43:09Z</time>
      </trkpt>
      <trkpt lat="47.58258" lon="7.63002">
        <ele>271</ele>
        <time>2019-04-25T05:43:12Z</time>
      </trkpt>
      <trkpt lat="47.58265" lon="7.63009">
        <ele>276</ele>
        <time>2019-04-25T05:43:16Z</time>
      </trkpt>
      <trkpt lat="47.58317" lon="7.63067">
        <ele>286</ele>
        <time>2019-04-25T05:43:50Z</time>
      </trkpt>
      <trkpt lat="47.58311" lon="7.63071">
        <ele>285</ele>
        <time>2019-04-25T05:43:52Z</time>
      </trkpt>
      <trkpt lat="47.58314" lon="7.63076">
        <ele>283</ele>
        <time>2019-04-25T05:43:55Z</time>
      </trkpt>
      <trkpt lat="47.58316" lon="7.63083">
        <ele>281</ele>
        <time>2019-04-25T05:43:59Z</time>
      </trkpt>
      <trkpt lat="47.58336" lon="7.63122">
        <ele>279</ele>
        <time>2019-04-25T05:44:24Z</time>
      </trkpt>
      <trkpt lat="47.58359" lon="7.63169">
        <ele>274</ele>
        <time>2019-04-25T05:44:51Z</time>
      </trkpt>
      <trkpt lat="47.58363" lon="7.63172">
        <ele>274</ele>
        <time>2019-04-25T05:44:53Z</time>
      </trkpt>
      <trkpt lat="47.58364" lon="7.63178">
        <ele>274</ele>
        <time>2019-04-25T05:44:56Z</time>
      </trkpt>
      <trkpt lat="47.58368" lon="7.63183">
        <ele>275</ele>
        <time>2019-04-25T05:44:59Z</time>
      </trkpt>
      <trkpt lat="47.5839" lon="7.63214">
        <ele>275</ele>
        <time>2019-04-25T05:45:18Z</time>
      </trkpt>
      <trkpt lat="47.58392" lon="7.63221">
        <ele>277</ele>
        <time>2019-04-25T05:45:23Z</time>
      </trkpt>
      <trkpt lat="47.584" lon="7.63231">
        <ele>276</ele>
        <time>2019-04-25T05:45:30Z</time>
      </trkpt>
      <trkpt lat="47.58404" lon="7.63238">
        <ele>276</ele>
        <time>2019-04-25T05:45:33Z</time>
      </trkpt>
      <trkpt lat="47.58406" lon="7.63247">
        <ele>274</ele>
        <time>2019-04-25T05:45:38Z</time>
      </trkpt>
      <trkpt lat="47.58411" lon="7.63254">
        <ele>274</ele>
        <time>2019-04-25T05:45:42Z</time>
      </trkpt>
      <trkpt lat="47.58415" lon="7.63258">
        <ele>275</ele>
        <time>2019-04-25T05:45:45Z</time>
      </trkpt>
      <trkpt lat="47.58419" lon="7.63264">
        <ele>276</ele>
        <time>2019-04-25T05:45:48Z</time>
      </trkpt>
      <trkpt lat="47.58423" lon="7.63266">
        <ele>277</ele>
        <time>2019-04-25T05:45:51Z</time>
      </trkpt>
      <trkpt lat="47.5844" lon="7.63304">
        <ele>277</ele>
        <time>2019-04-25T05:46:13Z</time>
      </trkpt>
      <trkpt lat="47.58446" lon="7.6331">
        <ele>279</ele>
        <time>2019-04-25T05:46:16Z</time>
      </trkpt>
      <trkpt lat="47.58459" lon="7.63324">
        <ele>281</ele>
        <time>2019-04-25T05:46:23Z</time>
      </trkpt>
      <trkpt lat="47.58463" lon="7.63331">
        <ele>280</ele>
        <time>2019-04-25T05:46:28Z</time>
      </trkpt>
      <trkpt lat="47.58473" lon="7.63351">
        <ele>279</ele>
        <time>2019-04-25T05:46:40Z</time>
      </trkpt>
      <trkpt lat="47.5848" lon="7.63357">
        <ele>278</ele>
        <time>2019-04-25T05:46:43Z</time>
      </trkpt>
      <trkpt lat="47.58483" lon="7.63364">
        <ele>280</ele>
        <time>2019-04-25T05:46:47Z</time>
      </trkpt>
      <trkpt lat="47.58487" lon="7.6337">
        <ele>281</ele>
        <time>2019-04-25T05:46:51Z</time>
      </trkpt>
      <trkpt lat="47.58491" lon="7.63376">
        <ele>280</ele>
        <time>2019-04-25T05:46:55Z</time>
      </trkpt>
      <trkpt lat="47.58497" lon="7.63392">
        <ele>277</ele>
        <time>2019-04-25T05:47:03Z</time>
      </trkpt>
      <trkpt lat="47.58503" lon="7.634">
        <ele>277</ele>
        <time>2019-04-25T05:47:07Z</time>
      </trkpt>
      <trkpt lat="47.58504" lon="7.63409">
        <ele>277</ele>
        <time>2019-04-25T05:47:12Z</time>
      </trkpt>
      <trkpt lat="47.58512" lon="7.63423">
        <ele>275</ele>
        <time>2019-04-25T05:47:20Z</time>
      </trkpt>
      <trkpt lat="47.58516" lon="7.6343">
        <ele>274</ele>
        <time>2019-04-25T05:47:25Z</time>
      </trkpt>
      <trkpt lat="47.58519" lon="7.63436">
        <ele>274</ele>
        <time>2019-04-25T05:47:29Z</time>
      </trkpt>
      <trkpt lat="47.58523" lon="7.63445">
        <ele>276</ele>
        <time>2019-04-25T05:47:34Z</time>
      </trkpt>
      <trkpt lat="47.58528" lon="7.63452">
        <ele>276</ele>
        <time>2019-04-25T05:47:38Z</time>
      </trkpt>
      <trkpt lat="47.58532" lon="7.63461">
        <ele>276</ele>
        <time>2019-04-25T05:47:43Z</time>
      </trkpt>
      <trkpt lat="47.58537" lon="7.63465">
        <ele>275</ele>
        <time>2019-04-25T05:47:46Z</time>
      </trkpt>
      <trkpt lat="47.58551" lon="7.63489">
        <ele>276</ele>
        <time>2019-04-25T05:48:00Z</time>
      </trkpt>
      <trkpt lat="47.58555" lon="7.63496">
        <ele>275</ele>
        <time>2019-04-25T05:48:03Z</time>
      </trkpt>
      <trkpt lat="47.58559" lon="7.63501">
        <ele>274</ele>
        <time>2019-04-25T05:48:06Z</time>
      </trkpt>
      <trkpt lat="47.58569" lon="7.63512">
        <ele>273</ele>
        <time>2019-04-25T05:48:13Z</time>
      </trkpt>
      <trkpt lat="47.58575" lon="7.63522">
        <ele>272</ele>
        <time>2019-04-25T05:48:19Z</time>
      </trkpt>
      <trkpt lat="47.58614" lon="7.63575">
        <ele>276</ele>
        <time>2019-04-25T05:48:52Z</time>
      </trkpt>
      <trkpt lat="47.58612" lon="7.63585">
        <ele>277</ele>
        <time>2019-04-25T05:48:56Z</time>
      </trkpt>
      <trkpt lat="47.58616" lon="7.63592">
        <ele>273</ele>
        <time>2019-04-25T05:49:00Z</time>
      </trkpt>
      <trkpt lat="47.58627" lon="7.63603">
        <ele>276</ele>
        <time>2019-04-25T05:49:09Z</time>
      </trkpt>
      <trkpt lat="47.58628" lon="7.6361">
        <ele>275</ele>
        <time>2019-04-25T05:49:13Z</time>
      </trkpt>
      <trkpt lat="47.58631" lon="7.63617">
        <ele>273</ele>
        <time>2019-04-25T05:49:17Z</time>
      </trkpt>
      <trkpt lat="47.58638" lon="7.63627">
        <ele>272</ele>
        <time>2019-04-25T05:49:24Z</time>
      </trkpt>
      <trkpt lat="47.58648" lon="7.63644">
        <ele>271</ele>
        <time>2019-04-25T05:49:34Z</time>
      </trkpt>
      <trkpt lat="47.58655" lon="7.63655">
        <ele>274</ele>
        <time>2019-04-25T05:49:41Z</time>
      </trkpt>
      <trkpt lat="47.58658" lon="7.63661">
        <ele>276</ele>
        <time>2019-04-25T05:49:44Z</time>
      </trkpt>
      <trkpt lat="47.58659" lon="7.63668">
        <ele>276</ele>
        <time>2019-04-25T05:49:48Z</time>
      </trkpt>
      <trkpt lat="47.58663" lon="7.63673">
        <ele>276</ele>
        <time>2019-04-25T05:49:51Z</time>
      </trkpt>
      <trkpt lat="47.5867" lon="7.63682">
        <ele>277</ele>
        <time>2019-04-25T05:49:58Z</time>
      </trkpt>
      <trkpt lat="47.58672" lon="7.63689">
        <ele>275</ele>
        <time>2019-04-25T05:50:03Z</time>
      </trkpt>
      <trkpt lat="47.58674" lon="7.637">
        <ele>272</ele>
        <time>2019-04-25T05:50:08Z</time>
      </trkpt>
      <trkpt lat="47.58678" lon="7.63706">
        <ele>270</ele>
        <time>2019-04-25T05:50:12Z</time>
      </trkpt>
      <trkpt lat="47.58683" lon="7.63713">
        <ele>270</ele>
        <time>2019-04-25T05:50:16Z</time>
      </trkpt>
      <trkpt lat="47.58691" lon="7.63729">
        <ele>268</ele>
        <time>2019-04-25T05:50:26Z</time>
      </trkpt>
      <trkpt lat="47.58704" lon="7.63753">
        <ele>268</ele>
        <time>2019-04-25T05:50:38Z</time>
      </trkpt>
      <trkpt lat="47.58713" lon="7.63765">
        <ele>270</ele>
        <time>2019-04-25T05:50:46Z</time>
      </trkpt>
      <trkpt lat="47.58714" lon="7.63772">
        <ele>269</ele>
        <time>2019-04-25T05:50:50Z</time>
      </trkpt>
      <trkpt lat="47.58724" lon="7.63783">
        <ele>271</ele>
        <time>2019-04-25T05:50:57Z</time>
      </trkpt>
      <trkpt lat="47.5873" lon="7.63789">
        <ele>272</ele>
        <time>2019-04-25T05:51:00Z</time>
      </trkpt>
      <trkpt lat="47.58736" lon="7.63795">
        <ele>273</ele>
        <time>2019-04-25T05:51:03Z</time>
      </trkpt>
      <trkpt lat="47.58739" lon="7.638">
        <ele>273</ele>
        <time>2019-04-25T05:51:07Z</time>
      </trkpt>
      <trkpt lat="47.58753" lon="7.63821">
        <ele>275</ele>
        <time>2019-04-25T05:51:19Z</time>
      </trkpt>
      <trkpt lat="47.58767" lon="7.63843">
        <ele>278</ele>
        <time>2019-04-25T05:51:32Z</time>
      </trkpt>
      <trkpt lat="47.58769" lon="7.63851">
        <ele>277</ele>
        <time>2019-04-25T05:51:37Z</time>
      </trkpt>
      <trkpt lat="47.58773" lon="7.63858">
        <ele>277</ele>
        <time>2019-04-25T05:51:41Z</time>
      </trkpt>
      <trkpt lat="47.58802" lon="7.63914">
        <ele>278</ele>
        <time>2019-04-25T05:52:13Z</time>
      </trkpt>
      <trkpt lat="47.58835" lon="7.63972">
        <ele>278</ele>
        <time>2019-04-25T05:52:45Z</time>
      </trkpt>
      <trkpt lat="47.58852" lon="7.64008">
        <ele>278</ele>
        <time>2019-04-25T05:53:06Z</time>
      </trkpt>
      <trkpt lat="47.58857" lon="7.64012">
        <ele>278</ele>
        <time>2019-04-25T05:53:09Z</time>
      </trkpt>
      <trkpt lat="47.58863" lon="7.64017">
        <ele>279</ele>
        <time>2019-04-25T05:53:12Z</time>
      </trkpt>
      <trkpt lat="47.58868" lon="7.64021">
        <ele>282</ele>
        <time>2019-04-25T05:53:14Z</time>
      </trkpt>
      <trkpt lat="47.5886" lon="7.64031">
        <ele>279</ele>
        <time>2019-04-25T05:53:54Z</time>
      </trkpt>
      <trkpt lat="47.58863" lon="7.64039">
        <ele>274</ele>
        <time>2019-04-25T05:53:57Z</time>
      </trkpt>
      <trkpt lat="47.58868" lon="7.64051">
        <ele>272</ele>
        <time>2019-04-25T05:54:03Z</time>
      </trkpt>
      <trkpt lat="47.58884" lon="7.64078">
        <ele>274</ele>
        <time>2019-04-25T05:54:18Z</time>
      </trkpt>
      <trkpt lat="47.58894" lon="7.64091">
        <ele>276</ele>
        <time>2019-04-25T05:54:26Z</time>
      </trkpt>
      <trkpt lat="47.58897" lon="7.64097">
        <ele>276</ele>
        <time>2019-04-25T05:54:32Z</time>
      </trkpt>
      <trkpt lat="47.58903" lon="7.6411">
        <ele>277</ele>
        <time>2019-04-25T05:54:40Z</time>
      </trkpt>
      <trkpt lat="47.589" lon="7.64115">
        <ele>276</ele>
        <time>2019-04-25T05:54:44Z</time>
      </trkpt>
      <trkpt lat="47.58897" lon="7.6412">
        <ele>273</ele>
        <time>2019-04-25T05:54:49Z</time>
      </trkpt>
      <trkpt lat="47.58897" lon="7.64127">
        <ele>272</ele>
        <time>2019-04-25T05:54:53Z</time>
      </trkpt>
      <trkpt lat="47.58928" lon="7.64182">
        <ele>271</ele>
        <time>2019-04-25T05:55:25Z</time>
      </trkpt>
      <trkpt lat="47.58945" lon="7.6421">
        <ele>271</ele>
        <time>2019-04-25T05:55:42Z</time>
      </trkpt>
      <trkpt lat="47.58948" lon="7.64215">
        <ele>271</ele>
        <time>2019-04-25T05:55:46Z</time>
      </trkpt>
      <trkpt lat="47.58986" lon="7.64262">
        <ele>274</ele>
        <time>2019-04-25T05:56:17Z</time>
      </trkpt>
      <trkpt lat="47.5902" lon="7.64305">
        <ele>273</ele>
        <time>2019-04-25T05:56:47Z</time>
      </trkpt>
      <trkpt lat="47.59052" lon="7.64349">
        <ele>269</ele>
        <time>2019-04-25T05:57:19Z</time>
      </trkpt>
      <trkpt lat="47.59091" lon="7.64393">
        <ele>272</ele>
        <time>2019-04-25T05:57:50Z</time>
      </trkpt>
      <trkpt lat="47.59121" lon="7.64426">
        <ele>272</ele>
        <time>2019-04-25T05:58:16Z</time>
      </trkpt>
      <trkpt lat="47.59144" lon="7.64455">
        <ele>272</ele>
        <time>2019-04-25T05:58:37Z</time>
      </trkpt>
      <trkpt lat="47.59166" lon="7.64475">
        <ele>272</ele>
        <time>2019-04-25T05:58:55Z</time>
      </trkpt>
      <trkpt lat="47.59184" lon="7.64482">
        <ele>274</ele>
        <time>2019-04-25T05:59:11Z</time>
      </trkpt>
      <trkpt lat="47.59219" lon="7.64526">
        <ele>278</ele>
        <time>2019-04-25T05:59:41Z</time>
      </trkpt>
      <trkpt lat="47.59247" lon="7.64561">
        <ele>278</ele>
        <time>2019-04-25T06:00:10Z</time>
      </trkpt>
      <trkpt lat="47.59251" lon="7.6456">
        <ele>279</ele>
        <time>2019-04-25T06:00:24Z</time>
      </trkpt>
      <trkpt lat="47.59253" lon="7.64554">
        <ele>278</ele>
        <time>2019-04-25T06:00:28Z</time>
      </trkpt>
      <trkpt lat="47.59256" lon="7.6455">
        <ele>279</ele>
        <time>2019-04-25T06:00:32Z</time>
      </trkpt>
      <trkpt lat="47.59264" lon="7.64539">
        <ele>279</ele>
        <time>2019-04-25T06:01:01Z</time>
      </trkpt>
      <trkpt lat="47.59266" lon="7.64532">
        <ele>279</ele>
        <time>2019-04-25T06:01:04Z</time>
      </trkpt>
      <trkpt lat="47.59266" lon="7.64518">
        <ele>278</ele>
        <time>2019-04-25T06:01:13Z</time>
      </trkpt>
      <trkpt lat="47.59265" lon="7.64512">
        <ele>275</ele>
        <time>2019-04-25T06:01:17Z</time>
      </trkpt>
      <trkpt lat="47.59263" lon="7.64506">
        <ele>275</ele>
        <time>2019-04-25T06:01:23Z</time>
      </trkpt>
      <trkpt lat="47.59264" lon="7.645">
        <ele>275</ele>
        <time>2019-04-25T06:02:09Z</time>
      </trkpt>
      <trkpt lat="47.59266" lon="7.64495">
        <ele>276</ele>
        <time>2019-04-25T06:02:15Z</time>
      </trkpt>
      <trkpt lat="47.59269" lon="7.6449">
        <ele>275</ele>
        <time>2019-04-25T06:02:21Z</time>
      </trkpt>
      <trkpt lat="47.59272" lon="7.64485">
        <ele>276</ele>
        <time>2019-04-25T06:02:26Z</time>
      </trkpt>
      <trkpt lat="47.59279" lon="7.64477">
        <ele>278</ele>
        <time>2019-04-25T06:02:40Z</time>
      </trkpt>
      <trkpt lat="47.5929" lon="7.64464">
        <ele>284</ele>
        <time>2019-04-25T06:03:00Z</time>
      </trkpt>
      <trkpt lat="47.59293" lon="7.6446">
        <ele>285</ele>
        <time>2019-04-25T06:03:09Z</time>
      </trkpt>
      <trkpt lat="47.59313" lon="7.64446">
        <ele>293</ele>
        <time>2019-04-25T06:03:47Z</time>
      </trkpt>
      <trkpt lat="47.59326" lon="7.64452">
        <ele>296</ele>
        <time>2019-04-25T06:04:00Z</time>
      </trkpt>
      <trkpt lat="47.59335" lon="7.64455">
        <ele>297</ele>
        <time>2019-04-25T06:04:08Z</time>
      </trkpt>
      <trkpt lat="47.5936" lon="7.64469">
        <ele>300</ele>
        <time>2019-04-25T06:04:42Z</time>
      </trkpt>
      <trkpt lat="47.59369" lon="7.64473">
        <ele>301</ele>
        <time>2019-04-25T06:04:53Z</time>
      </trkpt>
      <trkpt lat="47.59373" lon="7.64474">
        <ele>303</ele>
        <time>2019-04-25T06:04:59Z</time>
      </trkpt>
      <trkpt lat="47.59383" lon="7.64476">
        <ele>304</ele>
        <time>2019-04-25T06:05:08Z</time>
      </trkpt>
      <trkpt lat="47.59387" lon="7.64472">
        <ele>306</ele>
        <time>2019-04-25T06:05:21Z</time>
      </trkpt>
      <trkpt lat="47.59391" lon="7.64468">
        <ele>308</ele>
        <time>2019-04-25T06:05:27Z</time>
      </trkpt>
      <trkpt lat="47.59413" lon="7.64444">
        <ele>313</ele>
        <time>2019-04-25T06:05:58Z</time>
      </trkpt>
      <trkpt lat="47.5942" lon="7.64436">
        <ele>313</ele>
        <time>2019-04-25T06:06:08Z</time>
      </trkpt>
      <trkpt lat="47.59442" lon="7.64412">
        <ele>320</ele>
        <time>2019-04-25T06:06:45Z</time>
      </trkpt>
      <trkpt lat="47.5945" lon="7.64405">
        <ele>321</ele>
        <time>2019-04-25T06:06:55Z</time>
      </trkpt>
      <trkpt lat="47.59453" lon="7.64401">
        <ele>322</ele>
        <time>2019-04-25T06:06:59Z</time>
      </trkpt>
      <trkpt lat="47.59458" lon="7.64403">
        <ele>323</ele>
        <time>2019-04-25T06:07:04Z</time>
      </trkpt>
      <trkpt lat="47.59461" lon="7.64407">
        <ele>324</ele>
        <time>2019-04-25T06:07:07Z</time>
      </trkpt>
      <trkpt lat="47.59471" lon="7.64425">
        <ele>323</ele>
        <time>2019-04-25T06:07:21Z</time>
      </trkpt>
      <trkpt lat="47.59477" lon="7.64434">
        <ele>323</ele>
        <time>2019-04-25T06:07:28Z</time>
      </trkpt>
      <trkpt lat="47.59483" lon="7.64445">
        <ele>325</ele>
        <time>2019-04-25T06:07:35Z</time>
      </trkpt>
      <trkpt lat="47.59487" lon="7.6445">
        <ele>325</ele>
        <time>2019-04-25T06:07:39Z</time>
      </trkpt>
      <trkpt lat="47.59491" lon="7.64449">
        <ele>324</ele>
        <time>2019-04-25T06:07:45Z</time>
      </trkpt>
      <trkpt lat="47.59514" lon="7.64449">
        <ele>332</ele>
        <time>2019-04-25T06:08:09Z</time>
      </trkpt>
      <trkpt lat="47.59518" lon="7.64454">
        <ele>335</ele>
        <time>2019-04-25T06:08:15Z</time>
      </trkpt>
      <trkpt lat="47.59526" lon="7.64459">
        <ele>340</ele>
        <time>2019-04-25T06:08:23Z</time>
      </trkpt>
      <trkpt lat="47.59535" lon="7.6446">
        <ele>338</ele>
        <time>2019-04-25T06:08:35Z</time>
      </trkpt>
      <trkpt lat="47.5954" lon="7.64461">
        <ele>338</ele>
        <time>2019-04-25T06:08:41Z</time>
      </trkpt>
      <trkpt lat="47.59562" lon="7.64466">
        <ele>345</ele>
        <time>2019-04-25T06:09:07Z</time>
      </trkpt>
      <trkpt lat="47.59571" lon="7.6447">
        <ele>348</ele>
        <time>2019-04-25T06:09:18Z</time>
      </trkpt>
      <trkpt lat="47.59576" lon="7.64472">
        <ele>351</ele>
        <time>2019-04-25T06:09:23Z</time>
      </trkpt>
      <trkpt lat="47.59579" lon="7.64476">
        <ele>351</ele>
        <time>2019-04-25T06:09:27Z</time>
      </trkpt>
      <trkpt lat="47.59583" lon="7.6448">
        <ele>350</ele>
        <time>2019-04-25T06:09:32Z</time>
      </trkpt>
      <trkpt lat="47.59587" lon="7.64482">
        <ele>349</ele>
        <time>2019-04-25T06:09:36Z</time>
      </trkpt>
      <trkpt lat="47.59601" lon="7.64486">
        <ele>346</ele>
        <time>2019-04-25T06:09:49Z</time>
      </trkpt>
      <trkpt lat="47.59615" lon="7.64488">
        <ele>349</ele>
        <time>2019-04-25T06:10:06Z</time>
      </trkpt>
      <trkpt lat="47.59613" lon="7.64482">
        <ele>349</ele>
        <time>2019-04-25T06:10:41Z</time>
      </trkpt>
      <trkpt lat="47.59597" lon="7.64469">
        <ele>348</ele>
        <time>2019-04-25T06:10:55Z</time>
      </trkpt>
      <trkpt lat="47.5958" lon="7.64455">
        <ele>345</ele>
        <time>2019-04-25T06:11:09Z</time>
      </trkpt>
      <trkpt lat="47.5957" lon="7.6444">
        <ele>345</ele>
        <time>2019-04-25T06:11:19Z</time>
      </trkpt>
      <trkpt lat="47.59558" lon="7.64418">
        <ele>343</ele>
        <time>2019-04-25T06:11:34Z</time>
      </trkpt>
      <trkpt lat="47.59545" lon="7.64391">
        <ele>345</ele>
        <time>2019-04-25T06:11:52Z</time>
      </trkpt>
      <trkpt lat="47.59541" lon="7.6438">
        <ele>344</ele>
        <time>2019-04-25T06:11:58Z</time>
      </trkpt>
      <trkpt lat="47.59526" lon="7.64348">
        <ele>347</ele>
        <time>2019-04-25T06:12:18Z</time>
      </trkpt>
      <trkpt lat="47.59523" lon="7.64324">
        <ele>347</ele>
        <time>2019-04-25T06:12:30Z</time>
      </trkpt>
      <trkpt lat="47.5952" lon="7.64317">
        <ele>348</ele>
        <time>2019-04-25T06:12:34Z</time>
      </trkpt>
      <trkpt lat="47.59518" lon="7.64296">
        <ele>349</ele>
        <time>2019-04-25T06:12:44Z</time>
      </trkpt>
      <trkpt lat="47.59504" lon="7.64267">
        <ele>348</ele>
        <time>2019-04-25T06:13:13Z</time>
      </trkpt>
      <trkpt lat="47.59501" lon="7.64263">
        <ele>348</ele>
        <time>2019-04-25T06:13:17Z</time>
      </trkpt>
      <trkpt lat="47.59499" lon="7.64257">
        <ele>348</ele>
        <time>2019-04-25T06:13:21Z</time>
      </trkpt>
      <trkpt lat="47.59495" lon="7.64248">
        <ele>347</ele>
        <time>2019-04-25T06:14:00Z</time>
      </trkpt>
      <trkpt lat="47.59494" lon="7.6424">
        <ele>345</ele>
        <time>2019-04-25T06:14:05Z</time>
      </trkpt>
      <trkpt lat="47.59493" lon="7.64233">
        <ele>345</ele>
        <time>2019-04-25T06:14:08Z</time>
      </trkpt>
      <trkpt lat="47.59491" lon="7.6422">
        <ele>346</ele>
        <time>2019-04-25T06:14:15Z</time>
      </trkpt>
      <trkpt lat="47.59488" lon="7.64174">
        <ele>350</ele>
        <time>2019-04-25T06:14:37Z</time>
      </trkpt>
      <trkpt lat="47.59489" lon="7.6416">
        <ele>349</ele>
        <time>2019-04-25T06:14:52Z</time>
      </trkpt>
      <trkpt lat="47.59487" lon="7.64153">
        <ele>349</ele>
        <time>2019-04-25T06:14:56Z</time>
      </trkpt>
      <trkpt lat="47.5948" lon="7.64144">
        <ele>349</ele>
        <time>2019-04-25T06:15:14Z</time>
      </trkpt>
      <trkpt lat="47.59465" lon="7.64128">
        <ele>346</ele>
        <time>2019-04-25T06:15:28Z</time>
      </trkpt>
      <trkpt lat="47.59461" lon="7.64122">
        <ele>346</ele>
        <time>2019-04-25T06:15:32Z</time>
      </trkpt>
      <trkpt lat="47.59457" lon="7.64119">
        <ele>346</ele>
        <time>2019-04-25T06:15:35Z</time>
      </trkpt>
      <trkpt lat="47.59451" lon="7.64108">
        <ele>347</ele>
        <time>2019-04-25T06:15:44Z</time>
      </trkpt>
      <trkpt lat="47.59447" lon="7.64104">
        <ele>347</ele>
        <time>2019-04-25T06:16:00Z</time>
      </trkpt>
      <trkpt lat="47.59443" lon="7.64103">
        <ele>345</ele>
        <time>2019-04-25T06:16:03Z</time>
      </trkpt>
      <trkpt lat="47.59435" lon="7.6407">
        <ele>343</ele>
        <time>2019-04-25T06:16:24Z</time>
      </trkpt>
      <trkpt lat="47.59434" lon="7.64063">
        <ele>343</ele>
        <time>2019-04-25T06:16:27Z</time>
      </trkpt>
      <trkpt lat="47.59435" lon="7.64041">
        <ele>338</ele>
        <time>2019-04-25T06:16:38Z</time>
      </trkpt>
      <trkpt lat="47.59435" lon="7.64033">
        <ele>338</ele>
        <time>2019-04-25T06:16:42Z</time>
      </trkpt>
      <trkpt lat="47.59446" lon="7.63985">
        <ele>332</ele>
        <time>2019-04-25T06:17:09Z</time>
      </trkpt>
      <trkpt lat="47.59445" lon="7.63965">
        <ele>330</ele>
        <time>2019-04-25T06:17:20Z</time>
      </trkpt>
      <trkpt lat="47.59443" lon="7.63957">
        <ele>330</ele>
        <time>2019-04-25T06:17:24Z</time>
      </trkpt>
      <trkpt lat="47.59442" lon="7.63951">
        <ele>329</ele>
        <time>2019-04-25T06:17:28Z</time>
      </trkpt>
      <trkpt lat="47.59446" lon="7.63951">
        <ele>329</ele>
        <time>2019-04-25T06:17:43Z</time>
      </trkpt>
      <trkpt lat="47.5945" lon="7.63948">
        <ele>330</ele>
        <time>2019-04-25T06:18:01Z</time>
      </trkpt>
      <trkpt lat="47.59473" lon="7.63903">
        <ele>331</ele>
        <time>2019-04-25T06:18:31Z</time>
      </trkpt>
      <trkpt lat="47.5949" lon="7.6387">
        <ele>332</ele>
        <time>2019-04-25T06:18:52Z</time>
      </trkpt>
      <trkpt lat="47.59493" lon="7.63864">
        <ele>332</ele>
        <time>2019-04-25T06:18:55Z</time>
      </trkpt>
      <trkpt lat="47.59494" lon="7.63858">
        <ele>332</ele>
        <time>2019-04-25T06:18:58Z</time>
      </trkpt>
      <trkpt lat="47.59524" lon="7.63811">
        <ele>329</ele>
        <time>2019-04-25T06:19:30Z</time>
      </trkpt>
      <trkpt lat="47.59544" lon="7.63781">
        <ele>330</ele>
        <time>2019-04-25T06:19:51Z</time>
      </trkpt>
      <trkpt lat="47.59562" lon="7.63758">
        <ele>331</ele>
        <time>2019-04-25T06:20:07Z</time>
      </trkpt>
      <trkpt lat="47.59579" lon="7.63746">
        <ele>330</ele>
        <time>2019-04-25T06:20:20Z</time>
      </trkpt>
      <trkpt lat="47.59619" lon="7.63715">
        <ele>334</ele>
        <time>2019-04-25T06:20:52Z</time>
      </trkpt>
      <trkpt lat="47.59656" lon="7.6368">
        <ele>333</ele>
        <time>2019-04-25T06:21:22Z</time>
      </trkpt>
      <trkpt lat="47.5967" lon="7.63664">
        <ele>334</ele>
        <time>2019-04-25T06:21:39Z</time>
      </trkpt>
      <trkpt lat="47.59678" lon="7.63655">
        <ele>334</ele>
        <time>2019-04-25T06:21:47Z</time>
      </trkpt>
      <trkpt lat="47.5969" lon="7.63647">
        <ele>335</ele>
        <time>2019-04-25T06:21:56Z</time>
      </trkpt>
      <trkpt lat="47.59695" lon="7.6365">
        <ele>335</ele>
        <time>2019-04-25T06:21:59Z</time>
      </trkpt>
      <trkpt lat="47.59732" lon="7.63635">
        <ele>342</ele>
        <time>2019-04-25T06:22:29Z</time>
      </trkpt>
      <trkpt lat="47.59771" lon="7.63618">
        <ele>347</ele>
        <time>2019-04-25T06:23:01Z</time>
      </trkpt>
      <trkpt lat="47.59807" lon="7.636">
        <ele>350</ele>
        <time>2019-04-25T06:23:34Z</time>
      </trkpt>
      <trkpt lat="47.59815" lon="7.63594">
        <ele>351</ele>
        <time>2019-04-25T06:23:43Z</time>
      </trkpt>
      <trkpt lat="47.5982" lon="7.63589">
        <ele>352</ele>
        <time>2019-04-25T06:23:51Z</time>
      </trkpt>
      <trkpt lat="47.59824" lon="7.63595">
        <ele>352</ele>
        <time>2019-04-25T06:24:04Z</time>
      </trkpt>
      <trkpt lat="47.59838" lon="7.63598">
        <ele>350</ele>
        <time>2019-04-25T06:24:19Z</time>
      </trkpt>
      <trkpt lat="47.59851" lon="7.6359">
        <ele>353</ele>
        <time>2019-04-25T06:24:30Z</time>
      </trkpt>
      <trkpt lat="47.59886" lon="7.63554">
        <ele>354</ele>
        <time>2019-04-25T06:25:02Z</time>
      </trkpt>
      <trkpt lat="47.59908" lon="7.63525">
        <ele>353</ele>
        <time>2019-04-25T06:25:22Z</time>
      </trkpt>
      <trkpt lat="47.59911" lon="7.63518">
        <ele>353</ele>
        <time>2019-04-25T06:25:26Z</time>
      </trkpt>
      <trkpt lat="47.59918" lon="7.6351">
        <ele>353</ele>
        <time>2019-04-25T06:25:33Z</time>
      </trkpt>
      <trkpt lat="47.59921" lon="7.63505">
        <ele>351</ele>
        <time>2019-04-25T06:25:37Z</time>
      </trkpt>
      <trkpt lat="47.59929" lon="7.63488">
        <ele>351</ele>
        <time>2019-04-25T06:25:52Z</time>
      </trkpt>
      <trkpt lat="47.59934" lon="7.63486">
        <ele>351</ele>
        <time>2019-04-25T06:25:56Z</time>
      </trkpt>
      <trkpt lat="47.59938" lon="7.63481">
        <ele>350</ele>
        <time>2019-04-25T06:26:00Z</time>
      </trkpt>
      <trkpt lat="47.59943" lon="7.63476">
        <ele>350</ele>
        <time>2019-04-25T06:26:05Z</time>
      </trkpt>
      <trkpt lat="47.59957" lon="7.63458">
        <ele>353</ele>
        <time>2019-04-25T06:26:20Z</time>
      </trkpt>
      <trkpt lat="47.5996" lon="7.63454">
        <ele>354</ele>
        <time>2019-04-25T06:26:23Z</time>
      </trkpt>
      <trkpt lat="47.59963" lon="7.63449">
        <ele>356</ele>
        <time>2019-04-25T06:26:26Z</time>
      </trkpt>
      <trkpt lat="47.59967" lon="7.63446">
        <ele>357</ele>
        <time>2019-04-25T06:26:29Z</time>
      </trkpt>
      <trkpt lat="47.59993" lon="7.63428">
        <ele>360</ele>
        <time>2019-04-25T06:26:53Z</time>
      </trkpt>
      <trkpt lat="47.59997" lon="7.63425">
        <ele>362</ele>
        <time>2019-04-25T06:26:57Z</time>
      </trkpt>
      <trkpt lat="47.60034" lon="7.63407">
        <ele>370</ele>
        <time>2019-04-25T06:27:28Z</time>
      </trkpt>
      <trkpt lat="47.60039" lon="7.63405">
        <ele>371</ele>
        <time>2019-04-25T06:27:32Z</time>
      </trkpt>
      <trkpt lat="47.60049" lon="7.63403">
        <ele>370</ele>
        <time>2019-04-25T06:27:39Z</time>
      </trkpt>
      <trkpt lat="47.60063" lon="7.63398">
        <ele>371</ele>
        <time>2019-04-25T06:27:51Z</time>
      </trkpt>
      <trkpt lat="47.6009" lon="7.63383">
        <ele>373</ele>
        <time>2019-04-25T06:28:13Z</time>
      </trkpt>
      <trkpt lat="47.60095" lon="7.63384">
        <ele>373</ele>
        <time>2019-04-25T06:28:17Z</time>
      </trkpt>
      <trkpt lat="47.60115" lon="7.63388">
        <ele>373</ele>
        <time>2019-04-25T06:28:36Z</time>
      </trkpt>
      <trkpt lat="47.60118" lon="7.63393">
        <ele>373</ele>
        <time>2019-04-25T06:28:42Z</time>
      </trkpt>
      <trkpt lat="47.60126" lon="7.634">
        <ele>374</ele>
        <time>2019-04-25T06:28:51Z</time>
      </trkpt>
      <trkpt lat="47.60132" lon="7.6341">
        <ele>377</ele>
        <time>2019-04-25T06:29:02Z</time>
      </trkpt>
      <trkpt lat="47.60135" lon="7.63411">
        <ele>376</ele>
        <time>2019-04-25T06:29:43Z</time>
      </trkpt>
      <trkpt lat="47.60138" lon="7.63416">
        <ele>376</ele>
        <time>2019-04-25T06:29:49Z</time>
      </trkpt>
      <trkpt lat="47.60154" lon="7.63452">
        <ele>382</ele>
        <time>2019-04-25T06:30:16Z</time>
      </trkpt>
      <trkpt lat="47.60158" lon="7.63471">
        <ele>385</ele>
        <time>2019-04-25T06:30:32Z</time>
      </trkpt>
      <trkpt lat="47.60163" lon="7.63471">
        <ele>386</ele>
        <time>2019-04-25T06:30:38Z</time>
      </trkpt>
      <trkpt lat="47.60199" lon="7.63448">
        <ele>385</ele>
        <time>2019-04-25T06:31:09Z</time>
      </trkpt>
      <trkpt lat="47.60203" lon="7.63446">
        <ele>386</ele>
        <time>2019-04-25T06:31:12Z</time>
      </trkpt>
      <trkpt lat="47.60241" lon="7.63425">
        <ele>386</ele>
        <time>2019-04-25T06:31:41Z</time>
      </trkpt>
      <trkpt lat="47.6025" lon="7.63425">
        <ele>387</ele>
        <time>2019-04-25T06:31:47Z</time>
      </trkpt>
      <trkpt lat="47.60259" lon="7.63418">
        <ele>388</ele>
        <time>2019-04-25T06:31:54Z</time>
      </trkpt>
      <trkpt lat="47.60279" lon="7.63409">
        <ele>388</ele>
        <time>2019-04-25T06:32:09Z</time>
      </trkpt>
      <trkpt lat="47.60284" lon="7.63409">
        <ele>382</ele>
        <time>2019-04-25T06:32:13Z</time>
      </trkpt>
      <trkpt lat="47.60288" lon="7.63407">
        <ele>386</ele>
        <time>2019-04-25T06:32:17Z</time>
      </trkpt>
      <trkpt lat="47.60293" lon="7.63405">
        <ele>387</ele>
        <time>2019-04-25T06:32:20Z</time>
      </trkpt>
      <trkpt lat="47.60335" lon="7.63388">
        <ele>385</ele>
        <time>2019-04-25T06:32:53Z</time>
      </trkpt>
      <trkpt lat="47.6037" lon="7.63379">
        <ele>382</ele>
        <time>2019-04-25T06:33:19Z</time>
      </trkpt>
      <trkpt lat="47.60374" lon="7.63379">
        <ele>382</ele>
        <time>2019-04-25T06:33:23Z</time>
      </trkpt>
      <trkpt lat="47.60379" lon="7.63384">
        <ele>382</ele>
        <time>2019-04-25T06:33:27Z</time>
      </trkpt>
      <trkpt lat="47.6038" lon="7.63391">
        <ele>382</ele>
        <time>2019-04-25T06:33:31Z</time>
      </trkpt>
      <trkpt lat="47.60386" lon="7.63409">
        <ele>384</ele>
        <time>2019-04-25T06:33:43Z</time>
      </trkpt>
      <trkpt lat="47.60391" lon="7.6341">
        <ele>384</ele>
        <time>2019-04-25T06:33:48Z</time>
      </trkpt>
      <trkpt lat="47.60391" lon="7.63417">
        <ele>385</ele>
        <time>2019-04-25T06:33:59Z</time>
      </trkpt>
      <trkpt lat="47.60393" lon="7.63423">
        <ele>386</ele>
        <time>2019-04-25T06:34:04Z</time>
      </trkpt>
      <trkpt lat="47.60395" lon="7.63437">
        <ele>388</ele>
        <time>2019-04-25T06:34:16Z</time>
      </trkpt>
      <trkpt lat="47.60396" lon="7.63444">
        <ele>388</ele>
        <time>2019-04-25T06:34:22Z</time>
      </trkpt>
      <trkpt lat="47.60398" lon="7.6345">
        <ele>389</ele>
        <time>2019-04-25T06:34:54Z</time>
      </trkpt>
      <trkpt lat="47.60414" lon="7.63474">
        <ele>393</ele>
        <time>2019-04-25T06:35:21Z</time>
      </trkpt>
      <trkpt lat="47.60412" lon="7.63487">
        <ele>395</ele>
        <time>2019-04-25T06:35:31Z</time>
      </trkpt>
      <trkpt lat="47.60422" lon="7.63499">
        <ele>398</ele>
        <time>2019-04-25T06:35:56Z</time>
      </trkpt>
      <trkpt lat="47.60427" lon="7.63499">
        <ele>398</ele>
        <time>2019-04-25T06:36:01Z</time>
      </trkpt>
      <trkpt lat="47.60435" lon="7.63495">
        <ele>401</ele>
        <time>2019-04-25T06:36:12Z</time>
      </trkpt>
      <trkpt lat="47.60439" lon="7.63497">
        <ele>401</ele>
        <time>2019-04-25T06:36:17Z</time>
      </trkpt>
      <trkpt lat="47.60442" lon="7.63502">
        <ele>401</ele>
        <time>2019-04-25T06:36:26Z</time>
      </trkpt>
      <trkpt lat="47.60447" lon="7.63519">
        <ele>404</ele>
        <time>2019-04-25T06:36:46Z</time>
      </trkpt>
      <trkpt lat="47.60452" lon="7.63519">
        <ele>405</ele>
        <time>2019-04-25T06:36:55Z</time>
      </trkpt>
      <trkpt lat="47.60461" lon="7.63514">
        <ele>408</ele>
        <time>2019-04-25T06:37:07Z</time>
      </trkpt>
      <trkpt lat="47.60465" lon="7.63514">
        <ele>408</ele>
        <time>2019-04-25T06:37:12Z</time>
      </trkpt>
      <trkpt lat="47.60469" lon="7.63517">
        <ele>408</ele>
        <time>2019-04-25T06:37:18Z</time>
      </trkpt>
      <trkpt lat="47.60476" lon="7.63549">
        <ele>411</ele>
        <time>2019-04-25T06:37:42Z</time>
      </trkpt>
      <trkpt lat="47.60484" lon="7.63589">
        <ele>415</ele>
        <time>2019-04-25T06:38:12Z</time>
      </trkpt>
      <trkpt lat="47.60492" lon="7.63616">
        <ele>417</ele>
        <time>2019-04-25T06:38:47Z</time>
      </trkpt>
      <trkpt lat="47.60528" lon="7.6361">
        <ele>421</ele>
        <time>2019-04-25T06:39:20Z</time>
      </trkpt>
      <trkpt lat="47.60536" lon="7.63606">
        <ele>422</ele>
        <time>2019-04-25T06:39:25Z</time>
      </trkpt>
      <trkpt lat="47.60544" lon="7.63603">
        <ele>422</ele>
        <time>2019-04-25T06:39:32Z</time>
      </trkpt>
      <trkpt lat="47.60556" lon="7.63596">
        <ele>420</ele>
        <time>2019-04-25T06:39:40Z</time>
      </trkpt>
      <trkpt lat="47.60572" lon="7.63588">
        <ele>414</ele>
        <time>2019-04-25T06:39:51Z</time>
      </trkpt>
      <trkpt lat="47.60583" lon="7.63571">
        <ele>413</ele>
        <time>2019-04-25T06:40:02Z</time>
      </trkpt>
      <trkpt lat="47.60593" lon="7.63549">
        <ele>410</ele>
        <time>2019-04-25T06:40:14Z</time>
      </trkpt>
      <trkpt lat="47.60602" lon="7.63546">
        <ele>410</ele>
        <time>2019-04-25T06:40:23Z</time>
      </trkpt>
      <trkpt lat="47.60611" lon="7.63551">
        <ele>414</ele>
        <time>2019-04-25T06:40:39Z</time>
      </trkpt>
      <trkpt lat="47.60618" lon="7.63576">
        <ele>417</ele>
        <time>2019-04-25T06:40:55Z</time>
      </trkpt>
      <trkpt lat="47.60625" lon="7.63591">
        <ele>419</ele>
        <time>2019-04-25T06:41:09Z</time>
      </trkpt>
      <trkpt lat="47.60633" lon="7.63617">
        <ele>430</ele>
        <time>2019-04-25T06:41:33Z</time>
      </trkpt>
      <trkpt lat="47.60637" lon="7.6363">
        <ele>432</ele>
        <time>2019-04-25T06:41:47Z</time>
      </trkpt>
      <trkpt lat="47.60642" lon="7.63637">
        <ele>433</ele>
        <time>2019-04-25T06:41:58Z</time>
      </trkpt>
      <trkpt lat="47.60638" lon="7.63691">
        <ele>449</ele>
        <time>2019-04-25T06:43:17Z</time>
      </trkpt>
      <trkpt lat="47.60647" lon="7.63688">
        <ele>443</ele>
        <time>2019-04-25T06:43:21Z</time>
      </trkpt>
      <trkpt lat="47.60653" lon="7.63699">
        <ele>455</ele>
        <time>2019-04-25T06:44:04Z</time>
      </trkpt>
      <trkpt lat="47.60659" lon="7.6371">
        <ele>455</ele>
        <time>2019-04-25T06:44:11Z</time>
      </trkpt>
      <trkpt lat="47.60666" lon="7.63723">
        <ele>454</ele>
        <time>2019-04-25T06:44:15Z</time>
      </trkpt>
      <trkpt lat="47.60681" lon="7.63759">
        <ele>455</ele>
        <time>2019-04-25T06:44:49Z</time>
      </trkpt>
      <trkpt lat="47.60704" lon="7.63808">
        <ele>456</ele>
        <time>2019-04-25T06:45:32Z</time>
      </trkpt>
      <trkpt lat="47.60718" lon="7.63836">
        <ele>454</ele>
        <time>2019-04-25T06:45:51Z</time>
      </trkpt>
      <trkpt lat="47.60723" lon="7.63852">
        <ele>455</ele>
        <time>2019-04-25T06:46:03Z</time>
      </trkpt>
      <trkpt lat="47.60741" lon="7.63893">
        <ele>461</ele>
        <time>2019-04-25T06:46:33Z</time>
      </trkpt>
      <trkpt lat="47.60749" lon="7.63907">
        <ele>466</ele>
        <time>2019-04-25T06:46:44Z</time>
      </trkpt>
      <trkpt lat="47.60759" lon="7.63942">
        <ele>470</ele>
        <time>2019-04-25T06:47:01Z</time>
      </trkpt>
      <trkpt lat="47.60751" lon="7.63954">
        <ele>459</ele>
        <time>2019-04-25T06:47:09Z</time>
      </trkpt>
      <trkpt lat="47.60748" lon="7.63972">
        <ele>461</ele>
        <time>2019-04-25T06:47:18Z</time>
      </trkpt>
      <trkpt lat="47.60746" lon="7.63984">
        <ele>465</ele>
        <time>2019-04-25T06:47:24Z</time>
      </trkpt>
      <trkpt lat="47.60741" lon="7.63992">
        <ele>467</ele>
        <time>2019-04-25T06:47:29Z</time>
      </trkpt>
      <trkpt lat="47.60741" lon="7.64003">
        <ele>470</ele>
        <time>2019-04-25T06:47:36Z</time>
      </trkpt>
      <trkpt lat="47.60742" lon="7.64014">
        <ele>473</ele>
        <time>2019-04-25T06:47:42Z</time>
      </trkpt>
      <trkpt lat="47.60714" lon="7.64071">
        <ele>470</ele>
        <time>2019-04-25T06:48:16Z</time>
      </trkpt>
      <trkpt lat="47.60714" lon="7.64082">
        <ele>470</ele>
        <time>2019-04-25T06:48:26Z</time>
      </trkpt>
      <trkpt lat="47.60708" lon="7.64091">
        <ele>468</ele>
        <time>2019-04-25T06:48:31Z</time>
      </trkpt>
      <trkpt lat="47.60704" lon="7.64097">
        <ele>466</ele>
        <time>2019-04-25T06:48:35Z</time>
      </trkpt>
      <trkpt lat="47.607" lon="7.64109">
        <ele>465</ele>
        <time>2019-04-25T06:48:43Z</time>
      </trkpt>
      <trkpt lat="47.60672" lon="7.64135">
        <ele>467</ele>
        <time>2019-04-25T06:49:14Z</time>
      </trkpt>
      <trkpt lat="47.60663" lon="7.6414">
        <ele>465</ele>
        <time>2019-04-25T06:49:20Z</time>
      </trkpt>
      <trkpt lat="47.60656" lon="7.64148">
        <ele>463</ele>
        <time>2019-04-25T06:49:25Z</time>
      </trkpt>
      <trkpt lat="47.60651" lon="7.6416">
        <ele>462</ele>
        <time>2019-04-25T06:49:30Z</time>
      </trkpt>
      <trkpt lat="47.60658" lon="7.64163">
        <ele>461</ele>
        <time>2019-04-25T06:49:38Z</time>
      </trkpt>
      <trkpt lat="47.60665" lon="7.6416">
        <ele>459</ele>
        <time>2019-04-25T06:49:46Z</time>
      </trkpt>
      <trkpt lat="47.60679" lon="7.64167">
        <ele>450</ele>
        <time>2019-04-25T06:50:01Z</time>
      </trkpt>
      <trkpt lat="47.60687" lon="7.6417">
        <ele>450</ele>
        <time>2019-04-25T06:50:07Z</time>
      </trkpt>
      <trkpt lat="47.60701" lon="7.64174">
        <ele>448</ele>
        <time>2019-04-25T06:50:17Z</time>
      </trkpt>
      <trkpt lat="47.60712" lon="7.64185">
        <ele>446</ele>
        <time>2019-04-25T06:50:26Z</time>
      </trkpt>
      <trkpt lat="47.6072" lon="7.64191">
        <ele>444</ele>
        <time>2019-04-25T06:50:31Z</time>
      </trkpt>
      <trkpt lat="47.60738" lon="7.64187">
        <ele>446</ele>
        <time>2019-04-25T06:50:46Z</time>
      </trkpt>
      <trkpt lat="47.60742" lon="7.64177">
        <ele>447</ele>
        <time>2019-04-25T06:50:53Z</time>
      </trkpt>
      <trkpt lat="47.60748" lon="7.64172">
        <ele>448</ele>
        <time>2019-04-25T06:50:58Z</time>
      </trkpt>
      <trkpt lat="47.60752" lon="7.64166">
        <ele>449</ele>
        <time>2019-04-25T06:51:04Z</time>
      </trkpt>
      <trkpt lat="47.60758" lon="7.64164">
        <ele>451</ele>
        <time>2019-04-25T06:51:09Z</time>
      </trkpt>
      <trkpt lat="47.60783" lon="7.6414">
        <ele>450</ele>
        <time>2019-04-25T06:51:30Z</time>
      </trkpt>
      <trkpt lat="47.60793" lon="7.64133">
        <ele>443</ele>
        <time>2019-04-25T06:51:41Z</time>
      </trkpt>
      <trkpt lat="47.60798" lon="7.64122">
        <ele>439</ele>
        <time>2019-04-25T06:51:50Z</time>
      </trkpt>
      <trkpt lat="47.60808" lon="7.64114">
        <ele>440</ele>
        <time>2019-04-25T06:51:59Z</time>
      </trkpt>
      <trkpt lat="47.60834" lon="7.64098">
        <ele>441</ele>
        <time>2019-04-25T06:52:15Z</time>
      </trkpt>
      <trkpt lat="47.60841" lon="7.64092">
        <ele>443</ele>
        <time>2019-04-25T06:52:21Z</time>
      </trkpt>
      <trkpt lat="47.60848" lon="7.6409">
        <ele>439</ele>
        <time>2019-04-25T06:52:26Z</time>
      </trkpt>
      <trkpt lat="47.60855" lon="7.64086">
        <ele>437</ele>
        <time>2019-04-25T06:52:31Z</time>
      </trkpt>
      <trkpt lat="47.60868" lon="7.64077">
        <ele>432</ele>
        <time>2019-04-25T06:52:43Z</time>
      </trkpt>
      <trkpt lat="47.60912" lon="7.64036">
        <ele>452</ele>
        <time>2019-04-25T06:53:17Z</time>
      </trkpt>
      <trkpt lat="47.60921" lon="7.64042">
        <ele>450</ele>
        <time>2019-04-25T06:53:24Z</time>
      </trkpt>
      <trkpt lat="47.60927" lon="7.6404">
        <ele>451</ele>
        <time>2019-04-25T06:53:33Z</time>
      </trkpt>
      <trkpt lat="47.60939" lon="7.64027">
        <ele>450</ele>
        <time>2019-04-25T06:53:46Z</time>
      </trkpt>
      <trkpt lat="47.60951" lon="7.64008">
        <ele>445</ele>
        <time>2019-04-25T06:53:59Z</time>
      </trkpt>
      <trkpt lat="47.60981" lon="7.63981">
        <ele>448</ele>
        <time>2019-04-25T06:54:27Z</time>
      </trkpt>
      <trkpt lat="47.6099" lon="7.63972">
        <ele>452</ele>
        <time>2019-04-25T06:54:34Z</time>
      </trkpt>
      <trkpt lat="47.61" lon="7.63964">
        <ele>451</ele>
        <time>2019-04-25T06:54:42Z</time>
      </trkpt>
      <trkpt lat="47.61011" lon="7.63954">
        <ele>446</ele>
        <time>2019-04-25T06:54:49Z</time>
      </trkpt>
      <trkpt lat="47.61023" lon="7.63936">
        <ele>443</ele>
        <time>2019-04-25T06:55:01Z</time>
      </trkpt>
      <trkpt lat="47.61031" lon="7.6393">
        <ele>442</ele>
        <time>2019-04-25T06:55:07Z</time>
      </trkpt>
      <trkpt lat="47.61038" lon="7.63924">
        <ele>442</ele>
        <time>2019-04-25T06:55:13Z</time>
      </trkpt>
      <trkpt lat="47.61046" lon="7.63916">
        <ele>444</ele>
        <time>2019-04-25T06:55:20Z</time>
      </trkpt>
      <trkpt lat="47.61083" lon="7.6388">
        <ele>455</ele>
        <time>2019-04-25T06:55:54Z</time>
      </trkpt>
      <trkpt lat="47.6109" lon="7.6387">
        <ele>459</ele>
        <time>2019-04-25T06:56:02Z</time>
      </trkpt>
      <trkpt lat="47.61095" lon="7.63867">
        <ele>458</ele>
        <time>2019-04-25T06:56:09Z</time>
      </trkpt>
      <trkpt lat="47.61101" lon="7.6386">
        <ele>460</ele>
        <time>2019-04-25T06:56:16Z</time>
      </trkpt>
      <trkpt lat="47.61109" lon="7.63858">
        <ele>461</ele>
        <time>2019-04-25T06:56:21Z</time>
      </trkpt>
      <trkpt lat="47.61116" lon="7.63855">
        <ele>458</ele>
        <time>2019-04-25T06:56:27Z</time>
      </trkpt>
      <trkpt lat="47.61124" lon="7.6385">
        <ele>458</ele>
        <time>2019-04-25T06:56:33Z</time>
      </trkpt>
      <trkpt lat="47.61132" lon="7.63847">
        <ele>457</ele>
        <time>2019-04-25T06:56:39Z</time>
      </trkpt>
      <trkpt lat="47.61152" lon="7.63839">
        <ele>458</ele>
        <time>2019-04-25T06:56:51Z</time>
      </trkpt>
      <trkpt lat="47.6116" lon="7.63836">
        <ele>457</ele>
        <time>2019-04-25T06:56:56Z</time>
      </trkpt>
      <trkpt lat="47.61185" lon="7.6383">
        <ele>456</ele>
        <time>2019-04-25T06:57:11Z</time>
      </trkpt>
      <trkpt lat="47.61195" lon="7.63828">
        <ele>460</ele>
        <time>2019-04-25T06:57:21Z</time>
      </trkpt>
      <trkpt lat="47.61225" lon="7.63819">
        <ele>466</ele>
        <time>2019-04-25T06:57:42Z</time>
      </trkpt>
      <trkpt lat="47.61231" lon="7.63819">
        <ele>466</ele>
        <time>2019-04-25T06:57:47Z</time>
      </trkpt>
      <trkpt lat="47.6124" lon="7.6382">
        <ele>465</ele>
        <time>2019-04-25T06:57:53Z</time>
      </trkpt>
      <trkpt lat="47.61283" lon="7.63815">
        <ele>463</ele>
        <time>2019-04-25T06:58:25Z</time>
      </trkpt>
      <trkpt lat="47.61287" lon="7.63812">
        <ele>462</ele>
        <time>2019-04-25T06:58:32Z</time>
      </trkpt>
      <trkpt lat="47.6129" lon="7.63807">
        <ele>461</ele>
        <time>2019-04-25T06:58:39Z</time>
      </trkpt>
      <trkpt lat="47.61296" lon="7.6381">
        <ele>462</ele>
        <time>2019-04-25T06:59:27Z</time>
      </trkpt>
      <trkpt lat="47.61306" lon="7.63806">
        <ele>453</ele>
        <time>2019-04-25T07:03:29Z</time>
      </trkpt>
      <trkpt lat="47.61319" lon="7.63799">
        <ele>450</ele>
        <time>2019-04-25T07:03:34Z</time>
      </trkpt>
      <trkpt lat="47.61329" lon="7.63798">
        <ele>447</ele>
        <time>2019-04-25T07:03:37Z</time>
      </trkpt>
      <trkpt lat="47.61336" lon="7.63795">
        <ele>445</ele>
        <time>2019-04-25T07:03:43Z</time>
      </trkpt>
      <trkpt lat="47.61345" lon="7.6379">
        <ele>442</ele>
        <time>2019-04-25T07:03:49Z</time>
      </trkpt>
      <trkpt lat="47.61363" lon="7.63793">
        <ele>441</ele>
        <time>2019-04-25T07:04:00Z</time>
      </trkpt>
      <trkpt lat="47.61381" lon="7.63794">
        <ele>446</ele>
        <time>2019-04-25T07:04:05Z</time>
      </trkpt>
      <trkpt lat="47.6139" lon="7.63793">
        <ele>448</ele>
        <time>2019-04-25T07:04:08Z</time>
      </trkpt>
      <trkpt lat="47.61397" lon="7.63792">
        <ele>451</ele>
        <time>2019-04-25T07:04:15Z</time>
      </trkpt>
      <trkpt lat="47.61408" lon="7.63789">
        <ele>453</ele>
        <time>2019-04-25T07:04:22Z</time>
      </trkpt>
      <trkpt lat="47.61413" lon="7.63791">
        <ele>454</ele>
        <time>2019-04-25T07:04:25Z</time>
      </trkpt>
      <trkpt lat="47.61425" lon="7.63787">
        <ele>454</ele>
        <time>2019-04-25T07:04:34Z</time>
      </trkpt>
      <trkpt lat="47.61432" lon="7.63789">
        <ele>455</ele>
        <time>2019-04-25T07:04:38Z</time>
      </trkpt>
      <trkpt lat="47.61439" lon="7.63791">
        <ele>457</ele>
        <time>2019-04-25T07:04:44Z</time>
      </trkpt>
      <trkpt lat="47.61461" lon="7.6379">
        <ele>457</ele>
        <time>2019-04-25T07:04:59Z</time>
      </trkpt>
      <trkpt lat="47.61476" lon="7.63788">
        <ele>458</ele>
        <time>2019-04-25T07:07:38Z</time>
      </trkpt>
      <trkpt lat="47.61481" lon="7.6379">
        <ele>457</ele>
        <time>2019-04-25T07:10:42Z</time>
      </trkpt>
      <trkpt lat="47.61487" lon="7.63794">
        <ele>456</ele>
        <time>2019-04-25T07:23:00Z</time>
      </trkpt>
      <trkpt lat="47.61495" lon="7.638">
        <ele>451</ele>
        <time>2019-04-25T07:23:07Z</time>
      </trkpt>
      <trkpt lat="47.61503" lon="7.6381">
        <ele>450</ele>
        <time>2019-04-25T07:23:14Z</time>
      </trkpt>
      <trkpt lat="47.6151" lon="7.63817">
        <ele>451</ele>
        <time>2019-04-25T07:23:19Z</time>
      </trkpt>
      <trkpt lat="47.61516" lon="7.63825">
        <ele>453</ele>
        <time>2019-04-25T07:23:24Z</time>
      </trkpt>
      <trkpt lat="47.61525" lon="7.63837">
        <ele>457</ele>
        <time>2019-04-25T07:23:33Z</time>
      </trkpt>
      <trkpt lat="47.61537" lon="7.63845">
        <ele>456</ele>
        <time>2019-04-25T07:23:43Z</time>
      </trkpt>
      <trkpt lat="47.61547" lon="7.63843">
        <ele>454</ele>
        <time>2019-04-25T07:23:55Z</time>
      </trkpt>
      <trkpt lat="47.61556" lon="7.6384">
        <ele>453</ele>
        <time>2019-04-25T07:24:02Z</time>
      </trkpt>
      <trkpt lat="47.61569" lon="7.6384">
        <ele>448</ele>
        <time>2019-04-25T07:24:11Z</time>
      </trkpt>
      <trkpt lat="47.61579" lon="7.63838">
        <ele>448</ele>
        <time>2019-04-25T07:24:19Z</time>
      </trkpt>
      <trkpt lat="47.61611" lon="7.63826">
        <ele>448</ele>
        <time>2019-04-25T07:24:41Z</time>
      </trkpt>
      <trkpt lat="47.61635" lon="7.63826">
        <ele>447</ele>
        <time>2019-04-25T07:25:04Z</time>
      </trkpt>
      <trkpt lat="47.61679" lon="7.63816">
        <ele>451</ele>
        <time>2019-04-25T07:25:29Z</time>
      </trkpt>
      <trkpt lat="47.61691" lon="7.63815">
        <ele>449</ele>
        <time>2019-04-25T07:25:34Z</time>
      </trkpt>
      <trkpt lat="47.617" lon="7.63811">
        <ele>445</ele>
        <time>2019-04-25T07:25:40Z</time>
      </trkpt>
      <trkpt lat="47.61706" lon="7.63814">
        <ele>443</ele>
        <time>2019-04-25T07:25:50Z</time>
      </trkpt>
      <trkpt lat="47.61712" lon="7.63813">
        <ele>443</ele>
        <time>2019-04-25T07:25:53Z</time>
      </trkpt>
      <trkpt lat="47.61736" lon="7.63804">
        <ele>446</ele>
        <time>2019-04-25T07:26:09Z</time>
      </trkpt>
      <trkpt lat="47.61757" lon="7.63792">
        <ele>448</ele>
        <time>2019-04-25T07:26:24Z</time>
      </trkpt>
      <trkpt lat="47.61777" lon="7.63779">
        <ele>451</ele>
        <time>2019-04-25T07:26:42Z</time>
      </trkpt>
      <trkpt lat="47.61818" lon="7.63773">
        <ele>453</ele>
        <time>2019-04-25T07:27:12Z</time>
      </trkpt>
      <trkpt lat="47.61862" lon="7.63763">
        <ele>452</ele>
        <time>2019-04-25T07:27:42Z</time>
      </trkpt>
      <trkpt lat="47.61901" lon="7.63756">
        <ele>452</ele>
        <time>2019-04-25T07:28:08Z</time>
      </trkpt>
      <trkpt lat="47.61904" lon="7.63752">
        <ele>452</ele>
        <time>2019-04-25T07:28:11Z</time>
      </trkpt>
      <trkpt lat="47.61906" lon="7.63746">
        <ele>453</ele>
        <time>2019-04-25T07:28:16Z</time>
      </trkpt>
      <trkpt lat="47.61906" lon="7.63739">
        <ele>454</ele>
        <time>2019-04-25T07:28:21Z</time>
      </trkpt>
      <trkpt lat="47.61904" lon="7.6373">
        <ele>453</ele>
        <time>2019-04-25T07:28:26Z</time>
      </trkpt>
      <trkpt lat="47.619" lon="7.63724">
        <ele>454</ele>
        <time>2019-04-25T07:28:31Z</time>
      </trkpt>
      <trkpt lat="47.61898" lon="7.63714">
        <ele>456</ele>
        <time>2019-04-25T07:28:38Z</time>
      </trkpt>
      <trkpt lat="47.61895" lon="7.63703">
        <ele>459</ele>
        <time>2019-04-25T07:28:44Z</time>
      </trkpt>
      <trkpt lat="47.61889" lon="7.63683">
        <ele>457</ele>
        <time>2019-04-25T07:28:54Z</time>
      </trkpt>
      <trkpt lat="47.61886" lon="7.63675">
        <ele>458</ele>
        <time>2019-04-25T07:28:59Z</time>
      </trkpt>
      <trkpt lat="47.61887" lon="7.63666">
        <ele>458</ele>
        <time>2019-04-25T07:29:04Z</time>
      </trkpt>
      <trkpt lat="47.61881" lon="7.63651">
        <ele>459</ele>
        <time>2019-04-25T07:29:13Z</time>
      </trkpt>
      <trkpt lat="47.61877" lon="7.63645">
        <ele>461</ele>
        <time>2019-04-25T07:29:19Z</time>
      </trkpt>
      <trkpt lat="47.61882" lon="7.63637">
        <ele>462</ele>
        <time>2019-04-25T07:29:47Z</time>
      </trkpt>
      <trkpt lat="47.61891" lon="7.63634">
        <ele>462</ele>
        <time>2019-04-25T07:29:53Z</time>
      </trkpt>
      <trkpt lat="47.61932" lon="7.6361">
        <ele>464</ele>
        <time>2019-04-25T07:30:23Z</time>
      </trkpt>
      <trkpt lat="47.6193" lon="7.63615">
        <ele>459</ele>
        <time>2019-04-25T07:30:44Z</time>
      </trkpt>
      <trkpt lat="47.61909" lon="7.63622">
        <ele>460</ele>
        <time>2019-04-25T07:30:56Z</time>
      </trkpt>
      <trkpt lat="47.61903" lon="7.6362">
        <ele>460</ele>
        <time>2019-04-25T07:31:05Z</time>
      </trkpt>
      <trkpt lat="47.61905" lon="7.6362">
        <ele>465</ele>
        <time>2019-04-25T07:32:44Z</time>
      </trkpt>
      <trkpt lat="47.61914" lon="7.63614">
        <ele>464</ele>
        <time>2019-04-25T07:32:54Z</time>
      </trkpt>
      <trkpt lat="47.61924" lon="7.63612">
        <ele>467</ele>
        <time>2019-04-25T07:33:02Z</time>
      </trkpt>
      <trkpt lat="47.6194" lon="7.63609">
        <ele>469</ele>
        <time>2019-04-25T07:33:14Z</time>
      </trkpt>
      <trkpt lat="47.61946" lon="7.63608">
        <ele>469</ele>
        <time>2019-04-25T07:33:18Z</time>
      </trkpt>
      <trkpt lat="47.61957" lon="7.63602">
        <ele>470</ele>
        <time>2019-04-25T07:33:28Z</time>
      </trkpt>
      <trkpt lat="47.61963" lon="7.63601">
        <ele>468</ele>
        <time>2019-04-25T07:33:54Z</time>
      </trkpt>
      <trkpt lat="47.61963" lon="7.63602">
        <ele>465</ele>
        <time>2019-04-25T07:34:21Z</time>
      </trkpt>
      <trkpt lat="47.61968" lon="7.63593">
        <ele>465</ele>
        <time>2019-04-25T07:34:30Z</time>
      </trkpt>
      <trkpt lat="47.6197" lon="7.63571">
        <ele>459</ele>
        <time>2019-04-25T07:34:44Z</time>
      </trkpt>
      <trkpt lat="47.6197" lon="7.6356">
        <ele>457</ele>
        <time>2019-04-25T07:34:53Z</time>
      </trkpt>
      <trkpt lat="47.61974" lon="7.63557">
        <ele>458</ele>
        <time>2019-04-25T07:34:57Z</time>
      </trkpt>
      <trkpt lat="47.61976" lon="7.63549">
        <ele>457</ele>
        <time>2019-04-25T07:35:14Z</time>
      </trkpt>
      <trkpt lat="47.61975" lon="7.6354">
        <ele>456</ele>
        <time>2019-04-25T07:35:19Z</time>
      </trkpt>
      <trkpt lat="47.61987" lon="7.63509">
        <ele>457</ele>
        <time>2019-04-25T07:35:37Z</time>
      </trkpt>
      <trkpt lat="47.61987" lon="7.63497">
        <ele>456</ele>
        <time>2019-04-25T07:35:41Z</time>
      </trkpt>
      <trkpt lat="47.61993" lon="7.6349">
        <ele>455</ele>
        <time>2019-04-25T07:35:45Z</time>
      </trkpt>
      <trkpt lat="47.61994" lon="7.63483">
        <ele>453</ele>
        <time>2019-04-25T07:35:48Z</time>
      </trkpt>
      <trkpt lat="47.61992" lon="7.63477">
        <ele>453</ele>
        <time>2019-04-25T07:35:51Z</time>
      </trkpt>
      <trkpt lat="47.61997" lon="7.63458">
        <ele>452</ele>
        <time>2019-04-25T07:36:00Z</time>
      </trkpt>
      <trkpt lat="47.61998" lon="7.63451">
        <ele>452</ele>
        <time>2019-04-25T07:36:08Z</time>
      </trkpt>
      <trkpt lat="47.62009" lon="7.63421">
        <ele>452</ele>
        <time>2019-04-25T07:36:27Z</time>
      </trkpt>
      <trkpt lat="47.6199" lon="7.63477">
        <ele>452</ele>
        <time>2019-04-25T07:36:57Z</time>
      </trkpt>
      <trkpt lat="47.61988" lon="7.63494">
        <ele>452</ele>
        <time>2019-04-25T07:37:05Z</time>
      </trkpt>
      <trkpt lat="47.6199" lon="7.63504">
        <ele>452</ele>
        <time>2019-04-25T07:37:08Z</time>
      </trkpt>
      <trkpt lat="47.61987" lon="7.63511">
        <ele>452</ele>
        <time>2019-04-25T07:37:12Z</time>
      </trkpt>
      <trkpt lat="47.61976" lon="7.63532">
        <ele>453</ele>
        <time>2019-04-25T07:37:24Z</time>
      </trkpt>
      <trkpt lat="47.61977" lon="7.63553">
        <ele>455</ele>
        <time>2019-04-25T07:37:39Z</time>
      </trkpt>
      <trkpt lat="47.61975" lon="7.63574">
        <ele>455</ele>
        <time>2019-04-25T07:37:50Z</time>
      </trkpt>
      <trkpt lat="47.61977" lon="7.63591">
        <ele>456</ele>
        <time>2019-04-25T07:37:57Z</time>
      </trkpt>
      <trkpt lat="47.6198" lon="7.63598">
        <ele>456</ele>
        <time>2019-04-25T07:38:00Z</time>
      </trkpt>
      <trkpt lat="47.61983" lon="7.63604">
        <ele>456</ele>
        <time>2019-04-25T07:38:04Z</time>
      </trkpt>
      <trkpt lat="47.61987" lon="7.63604">
        <ele>456</ele>
        <time>2019-04-25T07:38:07Z</time>
      </trkpt>
      <trkpt lat="47.62028" lon="7.63613">
        <ele>454</ele>
        <time>2019-04-25T07:38:39Z</time>
      </trkpt>
      <trkpt lat="47.62079" lon="7.63624">
        <ele>447</ele>
        <time>2019-04-25T07:39:12Z</time>
      </trkpt>
      <trkpt lat="47.62125" lon="7.63631">
        <ele>446</ele>
        <time>2019-04-25T07:39:44Z</time>
      </trkpt>
      <trkpt lat="47.62158" lon="7.63638">
        <ele>444</ele>
        <time>2019-04-25T07:40:06Z</time>
      </trkpt>
      <trkpt lat="47.62163" lon="7.63641">
        <ele>443</ele>
        <time>2019-04-25T07:40:09Z</time>
      </trkpt>
      <trkpt lat="47.62181" lon="7.63663">
        <ele>439</ele>
        <time>2019-04-25T07:40:24Z</time>
      </trkpt>
      <trkpt lat="47.62214" lon="7.63717">
        <ele>438</ele>
        <time>2019-04-25T07:40:56Z</time>
      </trkpt>
      <trkpt lat="47.62227" lon="7.6374">
        <ele>437</ele>
        <time>2019-04-25T07:41:09Z</time>
      </trkpt>
      <trkpt lat="47.62235" lon="7.63748">
        <ele>437</ele>
        <time>2019-04-25T07:41:16Z</time>
      </trkpt>
      <trkpt lat="47.62245" lon="7.63752">
        <ele>437</ele>
        <time>2019-04-25T07:41:23Z</time>
      </trkpt>
      <trkpt lat="47.62294" lon="7.63756">
        <ele>438</ele>
        <time>2019-04-25T07:41:55Z</time>
      </trkpt>
      <trkpt lat="47.62327" lon="7.63768">
        <ele>438</ele>
        <time>2019-04-25T07:42:15Z</time>
      </trkpt>
      <trkpt lat="47.62332" lon="7.63768">
        <ele>437</ele>
        <time>2019-04-25T07:42:18Z</time>
      </trkpt>
      <trkpt lat="47.62375" lon="7.63774">
        <ele>435</ele>
        <time>2019-04-25T07:42:47Z</time>
      </trkpt>
      <trkpt lat="47.62385" lon="7.63777">
        <ele>431</ele>
        <time>2019-04-25T07:42:55Z</time>
      </trkpt>
      <trkpt lat="47.62389" lon="7.63775">
        <ele>432</ele>
        <time>2019-04-25T07:42:58Z</time>
      </trkpt>
      <trkpt lat="47.62415" lon="7.6378">
        <ele>429</ele>
        <time>2019-04-25T07:43:13Z</time>
      </trkpt>
      <trkpt lat="47.62421" lon="7.63779">
        <ele>426</ele>
        <time>2019-04-25T07:43:16Z</time>
      </trkpt>
      <trkpt lat="47.6243" lon="7.63778">
        <ele>428</ele>
        <time>2019-04-25T07:43:41Z</time>
      </trkpt>
      <trkpt lat="47.62445" lon="7.63788">
        <ele>428</ele>
        <time>2019-04-25T07:43:53Z</time>
      </trkpt>
      <trkpt lat="47.62454" lon="7.63803">
        <ele>427</ele>
        <time>2019-04-25T07:44:02Z</time>
      </trkpt>
      <trkpt lat="47.62458" lon="7.63808">
        <ele>426</ele>
        <time>2019-04-25T07:44:05Z</time>
      </trkpt>
      <trkpt lat="47.62461" lon="7.63816">
        <ele>426</ele>
        <time>2019-04-25T07:44:09Z</time>
      </trkpt>
      <trkpt lat="47.62468" lon="7.63823">
        <ele>419</ele>
        <time>2019-04-25T07:44:17Z</time>
      </trkpt>
      <trkpt lat="47.62474" lon="7.63831">
        <ele>419</ele>
        <time>2019-04-25T07:44:23Z</time>
      </trkpt>
      <trkpt lat="47.62479" lon="7.63839">
        <ele>418</ele>
        <time>2019-04-25T07:44:27Z</time>
      </trkpt>
      <trkpt lat="47.62496" lon="7.63873">
        <ele>416</ele>
        <time>2019-04-25T07:44:47Z</time>
      </trkpt>
      <trkpt lat="47.62499" lon="7.63886">
        <ele>418</ele>
        <time>2019-04-25T07:44:54Z</time>
      </trkpt>
      <trkpt lat="47.62507" lon="7.63898">
        <ele>418</ele>
        <time>2019-04-25T07:45:00Z</time>
      </trkpt>
      <trkpt lat="47.6251" lon="7.63902">
        <ele>420</ele>
        <time>2019-04-25T07:45:06Z</time>
      </trkpt>
      <trkpt lat="47.62984" lon="7.64688">
        <ele>371</ele>
        <time>2019-04-25T07:55:06Z</time>
      </trkpt>
      <trkpt lat="47.62984" lon="7.64688">
        <ele>371</ele>
        <time>2019-04-25T07:55:07Z</time>
      </trkpt>
      <trkpt lat="47.62984" lon="7.64701">
        <ele>371</ele>
        <time>2019-04-25T07:55:38Z</time>
      </trkpt>
      <trkpt lat="47.62982" lon="7.64765">
        <ele>370</ele>
        <time>2019-04-25T07:56:10Z</time>
      </trkpt>
      <trkpt lat="47.62981" lon="7.64822">
        <ele>365</ele>
        <time>2019-04-25T07:56:37Z</time>
      </trkpt>
      <trkpt lat="47.62972" lon="7.6489">
        <ele>359</ele>
        <time>2019-04-25T07:57:10Z</time>
      </trkpt>
      <trkpt lat="47.6296" lon="7.64956">
        <ele>356</ele>
        <time>2019-04-25T07:57:40Z</time>
      </trkpt>
      <trkpt lat="47.6295" lon="7.65022">
        <ele>353</ele>
        <time>2019-04-25T07:58:11Z</time>
      </trkpt>
      <trkpt lat="47.6294" lon="7.65089">
        <ele>349</ele>
        <time>2019-04-25T07:58:42Z</time>
      </trkpt>
      <trkpt lat="47.62928" lon="7.65156">
        <ele>344</ele>
        <time>2019-04-25T07:59:14Z</time>
      </trkpt>
      <trkpt lat="47.62927" lon="7.65164">
        <ele>344</ele>
        <time>2019-04-25T07:59:18Z</time>
      </trkpt>
      <trkpt lat="47.62925" lon="7.65171">
        <ele>344</ele>
        <time>2019-04-25T07:59:22Z</time>
      </trkpt>
      <trkpt lat="47.62906" lon="7.65203">
        <ele>339</ele>
        <time>2019-04-25T07:59:43Z</time>
      </trkpt>
      <trkpt lat="47.62888" lon="7.65226">
        <ele>338</ele>
        <time>2019-04-25T07:59:59Z</time>
      </trkpt>
      <trkpt lat="47.62885" lon="7.65231">
        <ele>337</ele>
        <time>2019-04-25T08:00:02Z</time>
      </trkpt>
      <trkpt lat="47.6285" lon="7.65265">
        <ele>329</ele>
        <time>2019-04-25T08:00:32Z</time>
      </trkpt>
      <trkpt lat="47.62834" lon="7.65281">
        <ele>326</ele>
        <time>2019-04-25T08:00:45Z</time>
      </trkpt>
      <trkpt lat="47.62832" lon="7.65287">
        <ele>324</ele>
        <time>2019-04-25T08:00:49Z</time>
      </trkpt>
      <trkpt lat="47.62823" lon="7.65296">
        <ele>322</ele>
        <time>2019-04-25T08:00:57Z</time>
      </trkpt>
      <trkpt lat="47.6282" lon="7.653">
        <ele>323</ele>
        <time>2019-04-25T08:01:00Z</time>
      </trkpt>
      <trkpt lat="47.62818" lon="7.65306">
        <ele>323</ele>
        <time>2019-04-25T08:01:03Z</time>
      </trkpt>
      <trkpt lat="47.62816" lon="7.65313">
        <ele>324</ele>
        <time>2019-04-25T08:01:06Z</time>
      </trkpt>
      <trkpt lat="47.62814" lon="7.65319">
        <ele>325</ele>
        <time>2019-04-25T08:01:09Z</time>
      </trkpt>
      <trkpt lat="47.62809" lon="7.65322">
        <ele>324</ele>
        <time>2019-04-25T08:01:12Z</time>
      </trkpt>
      <trkpt lat="47.62801" lon="7.65332">
        <ele>324</ele>
        <time>2019-04-25T08:01:18Z</time>
      </trkpt>
      <trkpt lat="47.62789" lon="7.65341">
        <ele>323</ele>
        <time>2019-04-25T08:01:28Z</time>
      </trkpt>
      <trkpt lat="47.62774" lon="7.65368">
        <ele>322</ele>
        <time>2019-04-25T08:01:44Z</time>
      </trkpt>
      <trkpt lat="47.62768" lon="7.65366">
        <ele>321</ele>
        <time>2019-04-25T08:01:47Z</time>
      </trkpt>
      <trkpt lat="47.62761" lon="7.6537">
        <ele>318</ele>
        <time>2019-04-25T08:01:52Z</time>
      </trkpt>
      <trkpt lat="47.62757" lon="7.65374">
        <ele>317</ele>
        <time>2019-04-25T08:01:56Z</time>
      </trkpt>
      <trkpt lat="47.62751" lon="7.65384">
        <ele>316</ele>
        <time>2019-04-25T08:02:02Z</time>
      </trkpt>
      <trkpt lat="47.62754" lon="7.65395">
        <ele>315</ele>
        <time>2019-04-25T08:02:07Z</time>
      </trkpt>
      <trkpt lat="47.62752" lon="7.65403">
        <ele>313</ele>
        <time>2019-04-25T08:02:13Z</time>
      </trkpt>
      <trkpt lat="47.6275" lon="7.65408">
        <ele>314</ele>
        <time>2019-04-25T08:02:17Z</time>
      </trkpt>
      <trkpt lat="47.63202" lon="7.66061">
        <ele>324</ele>
        <time>2019-04-25T08:11:24Z</time>
      </trkpt>
      <trkpt lat="47.63201" lon="7.66061">
        <ele>324</ele>
        <time>2019-04-25T08:11:25Z</time>
      </trkpt>
      <trkpt lat="47.63202" lon="7.6607">
        <ele>325</ele>
        <time>2019-04-25T08:12:20Z</time>
      </trkpt>
      <trkpt lat="47.6322" lon="7.66099">
        <ele>315</ele>
        <time>2019-04-25T08:12:38Z</time>
      </trkpt>
      <trkpt lat="47.63239" lon="7.66156">
        <ele>313</ele>
        <time>2019-04-25T08:13:07Z</time>
      </trkpt>
      <trkpt lat="47.63242" lon="7.66162">
        <ele>313</ele>
        <time>2019-04-25T08:13:10Z</time>
      </trkpt>
      <trkpt lat="47.63247" lon="7.66162">
        <ele>313</ele>
        <time>2019-04-25T08:13:14Z</time>
      </trkpt>
      <trkpt lat="47.63252" lon="7.66159">
        <ele>314</ele>
        <time>2019-04-25T08:13:18Z</time>
      </trkpt>
      <trkpt lat="47.63254" lon="7.66153">
        <ele>315</ele>
        <time>2019-04-25T08:13:22Z</time>
      </trkpt>
      <trkpt lat="47.6326" lon="7.6615">
        <ele>317</ele>
        <time>2019-04-25T08:13:25Z</time>
      </trkpt>
      <trkpt lat="47.63262" lon="7.66143">
        <ele>318</ele>
        <time>2019-04-25T08:13:29Z</time>
      </trkpt>
      <trkpt lat="47.63265" lon="7.66135">
        <ele>319</ele>
        <time>2019-04-25T08:13:34Z</time>
      </trkpt>
      <trkpt lat="47.63266" lon="7.66127">
        <ele>320</ele>
        <time>2019-04-25T08:13:38Z</time>
      </trkpt>
      <trkpt lat="47.63267" lon="7.66083">
        <ele>322</ele>
        <time>2019-04-25T08:14:01Z</time>
      </trkpt>
      <trkpt lat="47.63261" lon="7.66075">
        <ele>322</ele>
        <time>2019-04-25T08:14:03Z</time>
      </trkpt>
      <trkpt lat="47.63258" lon="7.66067">
        <ele>321</ele>
        <time>2019-04-25T08:14:06Z</time>
      </trkpt>
      <trkpt lat="47.63258" lon="7.66058">
        <ele>321</ele>
        <time>2019-04-25T08:14:10Z</time>
      </trkpt>
      <trkpt lat="47.63256" lon="7.6605">
        <ele>321</ele>
        <time>2019-04-25T08:14:15Z</time>
      </trkpt>
      <trkpt lat="47.63256" lon="7.66041">
        <ele>324</ele>
        <time>2019-04-25T08:14:22Z</time>
      </trkpt>
      <trkpt lat="47.63254" lon="7.66033">
        <ele>325</ele>
        <time>2019-04-25T08:14:26Z</time>
      </trkpt>
      <trkpt lat="47.6325" lon="7.66011">
        <ele>330</ele>
        <time>2019-04-25T08:14:41Z</time>
      </trkpt>
      <trkpt lat="47.63252" lon="7.66005">
        <ele>330</ele>
        <time>2019-04-25T08:14:45Z</time>
      </trkpt>
      <trkpt lat="47.63261" lon="7.65996">
        <ele>329</ele>
        <time>2019-04-25T08:14:53Z</time>
      </trkpt>
      <trkpt lat="47.63266" lon="7.65993">
        <ele>328</ele>
        <time>2019-04-25T08:14:58Z</time>
      </trkpt>
      <trkpt lat="47.63269" lon="7.65986">
        <ele>328</ele>
        <time>2019-04-25T08:15:03Z</time>
      </trkpt>
      <trkpt lat="47.63275" lon="7.6598">
        <ele>327</ele>
        <time>2019-04-25T08:15:08Z</time>
      </trkpt>
      <trkpt lat="47.63281" lon="7.65976">
        <ele>326</ele>
        <time>2019-04-25T08:15:12Z</time>
      </trkpt>
      <trkpt lat="47.63288" lon="7.65973">
        <ele>328</ele>
        <time>2019-04-25T08:15:16Z</time>
      </trkpt>
      <trkpt lat="47.63291" lon="7.65967">
        <ele>328</ele>
        <time>2019-04-25T08:15:21Z</time>
      </trkpt>
      <trkpt lat="47.63296" lon="7.65961">
        <ele>332</ele>
        <time>2019-04-25T08:15:25Z</time>
      </trkpt>
      <trkpt lat="47.63311" lon="7.65961">
        <ele>332</ele>
        <time>2019-04-25T08:15:33Z</time>
      </trkpt>
      <trkpt lat="47.63317" lon="7.65955">
        <ele>331</ele>
        <time>2019-04-25T08:15:40Z</time>
      </trkpt>
      <trkpt lat="47.63335" lon="7.65932">
        <ele>332</ele>
        <time>2019-04-25T08:15:59Z</time>
      </trkpt>
      <trkpt lat="47.63345" lon="7.65929">
        <ele>333</ele>
        <time>2019-04-25T08:16:02Z</time>
      </trkpt>
      <trkpt lat="47.63351" lon="7.65923">
        <ele>334</ele>
        <time>2019-04-25T08:16:07Z</time>
      </trkpt>
      <trkpt lat="47.63358" lon="7.65918">
        <ele>338</ele>
        <time>2019-04-25T08:16:17Z</time>
      </trkpt>
      <trkpt lat="47.63368" lon="7.6592">
        <ele>343</ele>
        <time>2019-04-25T08:16:20Z</time>
      </trkpt>
      <trkpt lat="47.63379" lon="7.6592">
        <ele>346</ele>
        <time>2019-04-25T08:16:30Z</time>
      </trkpt>
      <trkpt lat="47.63392" lon="7.65913">
        <ele>351</ele>
        <time>2019-04-25T08:16:49Z</time>
      </trkpt>
      <trkpt lat="47.63421" lon="7.65908">
        <ele>350</ele>
        <time>2019-04-25T08:17:16Z</time>
      </trkpt>
      <trkpt lat="47.63434" lon="7.65905">
        <ele>352</ele>
        <time>2019-04-25T08:17:30Z</time>
      </trkpt>
      <trkpt lat="47.6344" lon="7.65909">
        <ele>352</ele>
        <time>2019-04-25T08:17:34Z</time>
      </trkpt>
      <trkpt lat="47.63443" lon="7.65914">
        <ele>352</ele>
        <time>2019-04-25T08:17:41Z</time>
      </trkpt>
      <trkpt lat="47.63446" lon="7.65921">
        <ele>353</ele>
        <time>2019-04-25T08:17:44Z</time>
      </trkpt>
      <trkpt lat="47.63449" lon="7.6595">
        <ele>356</ele>
        <time>2019-04-25T08:17:57Z</time>
      </trkpt>
      <trkpt lat="47.63444" lon="7.65975">
        <ele>357</ele>
        <time>2019-04-25T08:18:17Z</time>
      </trkpt>
      <trkpt lat="47.63439" lon="7.65982">
        <ele>356</ele>
        <time>2019-04-25T08:18:24Z</time>
      </trkpt>
      <trkpt lat="47.63434" lon="7.6599">
        <ele>357</ele>
        <time>2019-04-25T08:18:29Z</time>
      </trkpt>
      <trkpt lat="47.63428" lon="7.65996">
        <ele>358</ele>
        <time>2019-04-25T08:18:33Z</time>
      </trkpt>
      <trkpt lat="47.63432" lon="7.66006">
        <ele>359</ele>
        <time>2019-04-25T08:18:41Z</time>
      </trkpt>
      <trkpt lat="47.63428" lon="7.66014">
        <ele>360</ele>
        <time>2019-04-25T08:18:46Z</time>
      </trkpt>
      <trkpt lat="47.63425" lon="7.66071">
        <ele>369</ele>
        <time>2019-04-25T08:19:16Z</time>
      </trkpt>
      <trkpt lat="47.63424" lon="7.66091">
        <ele>373</ele>
        <time>2019-04-25T08:19:27Z</time>
      </trkpt>
      <trkpt lat="47.63424" lon="7.66105">
        <ele>372</ele>
        <time>2019-04-25T08:19:34Z</time>
      </trkpt>
      <trkpt lat="47.63428" lon="7.66119">
        <ele>369</ele>
        <time>2019-04-25T08:19:43Z</time>
      </trkpt>
      <trkpt lat="47.63453" lon="7.66162">
        <ele>368</ele>
        <time>2019-04-25T08:20:13Z</time>
      </trkpt>
      <trkpt lat="47.6346" lon="7.66173">
        <ele>367</ele>
        <time>2019-04-25T08:20:21Z</time>
      </trkpt>
      <trkpt lat="47.63491" lon="7.66215">
        <ele>367</ele>
        <time>2019-04-25T08:20:54Z</time>
      </trkpt>
      <trkpt lat="47.63514" lon="7.66261">
        <ele>368</ele>
        <time>2019-04-25T08:21:21Z</time>
      </trkpt>
      <trkpt lat="47.63516" lon="7.66268">
        <ele>368</ele>
        <time>2019-04-25T08:21:25Z</time>
      </trkpt>
      <trkpt lat="47.63521" lon="7.66279">
        <ele>367</ele>
        <time>2019-04-25T08:21:32Z</time>
      </trkpt>
      <trkpt lat="47.63538" lon="7.66318">
        <ele>366</ele>
        <time>2019-04-25T08:21:53Z</time>
      </trkpt>
      <trkpt lat="47.6354" lon="7.66327">
        <ele>363</ele>
        <time>2019-04-25T08:21:59Z</time>
      </trkpt>
      <trkpt lat="47.63552" lon="7.66351">
        <ele>365</ele>
        <time>2019-04-25T08:22:11Z</time>
      </trkpt>
      <trkpt lat="47.63556" lon="7.66359">
        <ele>366</ele>
        <time>2019-04-25T08:22:15Z</time>
      </trkpt>
      <trkpt lat="47.63561" lon="7.66365">
        <ele>368</ele>
        <time>2019-04-25T08:22:20Z</time>
      </trkpt>
      <trkpt lat="47.63563" lon="7.66373">
        <ele>369</ele>
        <time>2019-04-25T08:22:27Z</time>
      </trkpt>
      <trkpt lat="47.63566" lon="7.66379">
        <ele>369</ele>
        <time>2019-04-25T08:22:31Z</time>
      </trkpt>
      <trkpt lat="47.6357" lon="7.66384">
        <ele>371</ele>
        <time>2019-04-25T08:22:36Z</time>
      </trkpt>
      <trkpt lat="47.63573" lon="7.66392">
        <ele>373</ele>
        <time>2019-04-25T08:22:50Z</time>
      </trkpt>
      <trkpt lat="47.63577" lon="7.66394">
        <ele>372</ele>
        <time>2019-04-25T08:22:53Z</time>
      </trkpt>
      <trkpt lat="47.63584" lon="7.66405">
        <ele>372</ele>
        <time>2019-04-25T08:23:02Z</time>
      </trkpt>
      <trkpt lat="47.63584" lon="7.66413">
        <ele>371</ele>
        <time>2019-04-25T08:23:07Z</time>
      </trkpt>
      <trkpt lat="47.63583" lon="7.66419">
        <ele>373</ele>
        <time>2019-04-25T08:23:16Z</time>
      </trkpt>
      <trkpt lat="47.63582" lon="7.66425">
        <ele>374</ele>
        <time>2019-04-25T08:23:31Z</time>
      </trkpt>
      <trkpt lat="47.63576" lon="7.66436">
        <ele>373</ele>
        <time>2019-04-25T08:23:39Z</time>
      </trkpt>
      <trkpt lat="47.63574" lon="7.66441">
        <ele>372</ele>
        <time>2019-04-25T08:23:44Z</time>
      </trkpt>
      <trkpt lat="47.63572" lon="7.66447">
        <ele>371</ele>
        <time>2019-04-25T08:23:48Z</time>
      </trkpt>
      <trkpt lat="47.63573" lon="7.66453">
        <ele>370</ele>
        <time>2019-04-25T08:23:52Z</time>
      </trkpt>
      <trkpt lat="47.63576" lon="7.66456">
        <ele>369</ele>
        <time>2019-04-25T08:23:56Z</time>
      </trkpt>
      <trkpt lat="47.63584" lon="7.66462">
        <ele>371</ele>
        <time>2019-04-25T08:24:02Z</time>
      </trkpt>
      <trkpt lat="47.63599" lon="7.66482">
        <ele>370</ele>
        <time>2019-04-25T08:24:34Z</time>
      </trkpt>
      <trkpt lat="47.6363" lon="7.66523">
        <ele>370</ele>
        <time>2019-04-25T08:25:05Z</time>
      </trkpt>
      <trkpt lat="47.63662" lon="7.66568">
        <ele>369</ele>
        <time>2019-04-25T08:25:37Z</time>
      </trkpt>
      <trkpt lat="47.63674" lon="7.66589">
        <ele>371</ele>
        <time>2019-04-25T08:25:51Z</time>
      </trkpt>
      <trkpt lat="47.63679" lon="7.66602">
        <ele>371</ele>
        <time>2019-04-25T08:25:58Z</time>
      </trkpt>
      <trkpt lat="47.63692" lon="7.66616">
        <ele>372</ele>
        <time>2019-04-25T08:26:10Z</time>
      </trkpt>
      <trkpt lat="47.63695" lon="7.66621">
        <ele>372</ele>
        <time>2019-04-25T08:26:13Z</time>
      </trkpt>
      <trkpt lat="47.63705" lon="7.66658">
        <ele>373</ele>
        <time>2019-04-25T08:26:31Z</time>
      </trkpt>
      <trkpt lat="47.63707" lon="7.66664">
        <ele>374</ele>
        <time>2019-04-25T08:26:34Z</time>
      </trkpt>
      <trkpt lat="47.6371" lon="7.66671">
        <ele>375</ele>
        <time>2019-04-25T08:26:38Z</time>
      </trkpt>
      <trkpt lat="47.63718" lon="7.66688">
        <ele>375</ele>
        <time>2019-04-25T08:26:51Z</time>
      </trkpt>
      <trkpt lat="47.63755" lon="7.66683">
        <ele>374</ele>
        <time>2019-04-25T08:27:23Z</time>
      </trkpt>
      <trkpt lat="47.6376" lon="7.66687">
        <ele>374</ele>
        <time>2019-04-25T08:27:28Z</time>
      </trkpt>
      <trkpt lat="47.63763" lon="7.66681">
        <ele>375</ele>
        <time>2019-04-25T08:27:50Z</time>
      </trkpt>
      <trkpt lat="47.63767" lon="7.66688">
        <ele>377</ele>
        <time>2019-04-25T08:30:25Z</time>
      </trkpt>
      <trkpt lat="47.63768" lon="7.66694">
        <ele>377</ele>
        <time>2019-04-25T08:30:46Z</time>
      </trkpt>
      <trkpt lat="47.63764" lon="7.66698">
        <ele>377</ele>
        <time>2019-04-25T08:31:19Z</time>
      </trkpt>
      <trkpt lat="47.6376" lon="7.66699">
        <ele>378</ele>
        <time>2019-04-25T08:31:22Z</time>
      </trkpt>
      <trkpt lat="47.63758" lon="7.66706">
        <ele>379</ele>
        <time>2019-04-25T08:31:32Z</time>
      </trkpt>
      <trkpt lat="47.63746" lon="7.6672">
        <ele>380</ele>
        <time>2019-04-25T08:31:43Z</time>
      </trkpt>
      <trkpt lat="47.63703" lon="7.66742">
        <ele>384</ele>
        <time>2019-04-25T08:32:16Z</time>
      </trkpt>
      <trkpt lat="47.63695" lon="7.66749">
        <ele>385</ele>
        <time>2019-04-25T08:32:28Z</time>
      </trkpt>
      <trkpt lat="47.63678" lon="7.66759">
        <ele>387</ele>
        <time>2019-04-25T08:32:44Z</time>
      </trkpt>
      <trkpt lat="47.63674" lon="7.6676">
        <ele>390</ele>
        <time>2019-04-25T08:32:47Z</time>
      </trkpt>
      <trkpt lat="47.63665" lon="7.66767">
        <ele>392</ele>
        <time>2019-04-25T08:32:53Z</time>
      </trkpt>
      <trkpt lat="47.63662" lon="7.66773">
        <ele>394</ele>
        <time>2019-04-25T08:32:58Z</time>
      </trkpt>
      <trkpt lat="47.63663" lon="7.66779">
        <ele>396</ele>
        <time>2019-04-25T08:33:06Z</time>
      </trkpt>
      <trkpt lat="47.6367" lon="7.6678">
        <ele>396</ele>
        <time>2019-04-25T08:33:13Z</time>
      </trkpt>
      <trkpt lat="47.63676" lon="7.66779">
        <ele>395</ele>
        <time>2019-04-25T08:33:15Z</time>
      </trkpt>
      <trkpt lat="47.6368" lon="7.66782">
        <ele>393</ele>
        <time>2019-04-25T08:33:21Z</time>
      </trkpt>
      <trkpt lat="47.63685" lon="7.66785">
        <ele>395</ele>
        <time>2019-04-25T08:33:27Z</time>
      </trkpt>
      <trkpt lat="47.63694" lon="7.66787">
        <ele>394</ele>
        <time>2019-04-25T08:33:35Z</time>
      </trkpt>
      <trkpt lat="47.63703" lon="7.66784">
        <ele>394</ele>
        <time>2019-04-25T08:33:45Z</time>
      </trkpt>
      <trkpt lat="47.63709" lon="7.66786">
        <ele>397</ele>
        <time>2019-04-25T08:33:51Z</time>
      </trkpt>
      <trkpt lat="47.63713" lon="7.66785">
        <ele>398</ele>
        <time>2019-04-25T08:33:55Z</time>
      </trkpt>
      <trkpt lat="47.63718" lon="7.66788">
        <ele>393</ele>
        <time>2019-04-25T08:34:02Z</time>
      </trkpt>
      <trkpt lat="47.63721" lon="7.66792">
        <ele>395</ele>
        <time>2019-04-25T08:34:06Z</time>
      </trkpt>
      <trkpt lat="47.63736" lon="7.66788">
        <ele>397</ele>
        <time>2019-04-25T08:34:18Z</time>
      </trkpt>
      <trkpt lat="47.63755" lon="7.66779">
        <ele>398</ele>
        <time>2019-04-25T08:34:38Z</time>
      </trkpt>
      <trkpt lat="47.63759" lon="7.66776">
        <ele>399</ele>
        <time>2019-04-25T08:34:42Z</time>
      </trkpt>
      <trkpt lat="47.63764" lon="7.66778">
        <ele>400</ele>
        <time>2019-04-25T08:34:47Z</time>
      </trkpt>
      <trkpt lat="47.63768" lon="7.66776">
        <ele>400</ele>
        <time>2019-04-25T08:34:51Z</time>
      </trkpt>
      <trkpt lat="47.63773" lon="7.66775">
        <ele>403</ele>
        <time>2019-04-25T08:35:10Z</time>
      </trkpt>
      <trkpt lat="47.63777" lon="7.66771">
        <ele>406</ele>
        <time>2019-04-25T08:35:17Z</time>
      </trkpt>
      <trkpt lat="47.63787" lon="7.66767">
        <ele>408</ele>
        <time>2019-04-25T08:35:26Z</time>
      </trkpt>
      <trkpt lat="47.63792" lon="7.66766">
        <ele>409</ele>
        <time>2019-04-25T08:35:31Z</time>
      </trkpt>
      <trkpt lat="47.63799" lon="7.66757">
        <ele>410</ele>
        <time>2019-04-25T08:35:37Z</time>
      </trkpt>
      <trkpt lat="47.63803" lon="7.66755">
        <ele>410</ele>
        <time>2019-04-25T08:35:40Z</time>
      </trkpt>
      <trkpt lat="47.63808" lon="7.66754">
        <ele>410</ele>
        <time>2019-04-25T08:35:44Z</time>
      </trkpt>
      <trkpt lat="47.63828" lon="7.66754">
        <ele>413</ele>
        <time>2019-04-25T08:36:00Z</time>
      </trkpt>
      <trkpt lat="47.63832" lon="7.66755">
        <ele>413</ele>
        <time>2019-04-25T08:36:03Z</time>
      </trkpt>
      <trkpt lat="47.63836" lon="7.66757">
        <ele>413</ele>
        <time>2019-04-25T08:36:06Z</time>
      </trkpt>
      <trkpt lat="47.63841" lon="7.66759">
        <ele>413</ele>
        <time>2019-04-25T08:36:11Z</time>
      </trkpt>
      <trkpt lat="47.63853" lon="7.66766">
        <ele>413</ele>
        <time>2019-04-25T08:36:22Z</time>
      </trkpt>
      <trkpt lat="47.63858" lon="7.66766">
        <ele>414</ele>
        <time>2019-04-25T08:36:26Z</time>
      </trkpt>
      <trkpt lat="47.6387" lon="7.66779">
        <ele>417</ele>
        <time>2019-04-25T08:36:38Z</time>
      </trkpt>
      <trkpt lat="47.63895" lon="7.66794">
        <ele>419</ele>
        <time>2019-04-25T08:37:05Z</time>
      </trkpt>
      <trkpt lat="47.63899" lon="7.66794">
        <ele>419</ele>
        <time>2019-04-25T08:37:26Z</time>
      </trkpt>
      <trkpt lat="47.63905" lon="7.6679">
        <ele>420</ele>
        <time>2019-04-25T08:37:37Z</time>
      </trkpt>
      <trkpt lat="47.63914" lon="7.66779">
        <ele>420</ele>
        <time>2019-04-25T08:37:46Z</time>
      </trkpt>
      <trkpt lat="47.63922" lon="7.66776">
        <ele>420</ele>
        <time>2019-04-25T08:37:52Z</time>
      </trkpt>
      <trkpt lat="47.63927" lon="7.6677">
        <ele>422</ele>
        <time>2019-04-25T08:37:57Z</time>
      </trkpt>
      <trkpt lat="47.6393" lon="7.66763">
        <ele>424</ele>
        <time>2019-04-25T08:38:06Z</time>
      </trkpt>
      <trkpt lat="47.63935" lon="7.66759">
        <ele>427</ele>
        <time>2019-04-25T08:38:10Z</time>
      </trkpt>
      <trkpt lat="47.63939" lon="7.6675">
        <ele>429</ele>
        <time>2019-04-25T08:38:16Z</time>
      </trkpt>
      <trkpt lat="47.6394" lon="7.66741">
        <ele>431</ele>
        <time>2019-04-25T08:38:22Z</time>
      </trkpt>
      <trkpt lat="47.63945" lon="7.66733">
        <ele>432</ele>
        <time>2019-04-25T08:38:29Z</time>
      </trkpt>
      <trkpt lat="47.63958" lon="7.66717">
        <ele>431</ele>
        <time>2019-04-25T08:38:44Z</time>
      </trkpt>
      <trkpt lat="47.63961" lon="7.66712">
        <ele>430</ele>
        <time>2019-04-25T08:38:49Z</time>
      </trkpt>
      <trkpt lat="47.6397" lon="7.66702">
        <ele>432</ele>
        <time>2019-04-25T08:38:59Z</time>
      </trkpt>
      <trkpt lat="47.63974" lon="7.66695">
        <ele>433</ele>
        <time>2019-04-25T08:39:04Z</time>
      </trkpt>
      <trkpt lat="47.63978" lon="7.66688">
        <ele>433</ele>
        <time>2019-04-25T08:39:09Z</time>
      </trkpt>
      <trkpt lat="47.63981" lon="7.66681">
        <ele>434</ele>
        <time>2019-04-25T08:39:14Z</time>
      </trkpt>
      <trkpt lat="47.63985" lon="7.66667">
        <ele>438</ele>
        <time>2019-04-25T08:39:22Z</time>
      </trkpt>
      <trkpt lat="47.64001" lon="7.66638">
        <ele>443</ele>
        <time>2019-04-25T08:39:42Z</time>
      </trkpt>
      <trkpt lat="47.64024" lon="7.6661">
        <ele>446</ele>
        <time>2019-04-25T08:40:05Z</time>
      </trkpt>
      <trkpt lat="47.64031" lon="7.66603">
        <ele>428</ele>
        <time>2019-04-25T08:40:12Z</time>
      </trkpt>
      <trkpt lat="47.64039" lon="7.66592">
        <ele>434</ele>
        <time>2019-04-25T08:40:19Z</time>
      </trkpt>
      <trkpt lat="47.64049" lon="7.6659">
        <ele>439</ele>
        <time>2019-04-25T08:40:24Z</time>
      </trkpt>
      <trkpt lat="47.64055" lon="7.66583">
        <ele>444</ele>
        <time>2019-04-25T08:40:29Z</time>
      </trkpt>
      <trkpt lat="47.64062" lon="7.66584">
        <ele>444</ele>
        <time>2019-04-25T08:40:31Z</time>
      </trkpt>
      <trkpt lat="47.6407" lon="7.66587">
        <ele>438</ele>
        <time>2019-04-25T08:40:34Z</time>
      </trkpt>
      <trkpt lat="47.64081" lon="7.66608">
        <ele>435</ele>
        <time>2019-04-25T08:40:49Z</time>
      </trkpt>
      <trkpt lat="47.64091" lon="7.66607">
        <ele>437</ele>
        <time>2019-04-25T08:40:57Z</time>
      </trkpt>
      <trkpt lat="47.6411" lon="7.66596">
        <ele>443</ele>
        <time>2019-04-25T08:41:11Z</time>
      </trkpt>
      <trkpt lat="47.6412" lon="7.66599">
        <ele>444</ele>
        <time>2019-04-25T08:41:19Z</time>
      </trkpt>
      <trkpt lat="47.64133" lon="7.666">
        <ele>446</ele>
        <time>2019-04-25T08:41:31Z</time>
      </trkpt>
      <trkpt lat="47.64156" lon="7.66605">
        <ele>443</ele>
        <time>2019-04-25T08:41:43Z</time>
      </trkpt>
      <trkpt lat="47.64176" lon="7.66606">
        <ele>440</ele>
        <time>2019-04-25T08:41:58Z</time>
      </trkpt>
      <trkpt lat="47.64182" lon="7.66608">
        <ele>439</ele>
        <time>2019-04-25T08:42:03Z</time>
      </trkpt>
      <trkpt lat="47.64187" lon="7.6661">
        <ele>439</ele>
        <time>2019-04-25T08:42:07Z</time>
      </trkpt>
      <trkpt lat="47.64206" lon="7.66615">
        <ele>438</ele>
        <time>2019-04-25T08:42:24Z</time>
      </trkpt>
      <trkpt lat="47.64211" lon="7.66615">
        <ele>439</ele>
        <time>2019-04-25T08:42:29Z</time>
      </trkpt>
      <trkpt lat="47.64216" lon="7.66616">
        <ele>440</ele>
        <time>2019-04-25T08:42:36Z</time>
      </trkpt>
      <trkpt lat="47.64221" lon="7.66615">
        <ele>440</ele>
        <time>2019-04-25T08:42:41Z</time>
      </trkpt>
      <trkpt lat="47.64227" lon="7.66613">
        <ele>438</ele>
        <time>2019-04-25T08:42:43Z</time>
      </trkpt>
      <trkpt lat="47.64233" lon="7.66611">
        <ele>438</ele>
        <time>2019-04-25T08:42:47Z</time>
      </trkpt>
      <trkpt lat="47.64239" lon="7.66608">
        <ele>440</ele>
        <time>2019-04-25T08:42:51Z</time>
      </trkpt>
      <trkpt lat="47.64245" lon="7.66605">
        <ele>441</ele>
        <time>2019-04-25T08:42:55Z</time>
      </trkpt>
      <trkpt lat="47.64267" lon="7.66603">
        <ele>443</ele>
        <time>2019-04-25T08:43:10Z</time>
      </trkpt>
      <trkpt lat="47.64272" lon="7.66607">
        <ele>442</ele>
        <time>2019-04-25T08:43:12Z</time>
      </trkpt>
      <trkpt lat="47.64279" lon="7.66608">
        <ele>437</ele>
        <time>2019-04-25T08:43:15Z</time>
      </trkpt>
      <trkpt lat="47.64285" lon="7.66613">
        <ele>435</ele>
        <time>2019-04-25T08:43:19Z</time>
      </trkpt>
      <trkpt lat="47.64302" lon="7.66628">
        <ele>436</ele>
        <time>2019-04-25T08:43:30Z</time>
      </trkpt>
      <trkpt lat="47.64306" lon="7.66633">
        <ele>437</ele>
        <time>2019-04-25T08:43:34Z</time>
      </trkpt>
      <trkpt lat="47.64316" lon="7.66641">
        <ele>438</ele>
        <time>2019-04-25T08:43:41Z</time>
      </trkpt>
      <trkpt lat="47.6433" lon="7.66645">
        <ele>439</ele>
        <time>2019-04-25T08:43:52Z</time>
      </trkpt>
      <trkpt lat="47.64334" lon="7.66649">
        <ele>438</ele>
        <time>2019-04-25T08:43:55Z</time>
      </trkpt>
      <trkpt lat="47.64339" lon="7.66652">
        <ele>437</ele>
        <time>2019-04-25T08:43:59Z</time>
      </trkpt>
      <trkpt lat="47.6435" lon="7.66658">
        <ele>434</ele>
        <time>2019-04-25T08:44:06Z</time>
      </trkpt>
      <trkpt lat="47.64354" lon="7.66662">
        <ele>434</ele>
        <time>2019-04-25T08:44:10Z</time>
      </trkpt>
      <trkpt lat="47.64358" lon="7.66665">
        <ele>433</ele>
        <time>2019-04-25T08:44:14Z</time>
      </trkpt>
      <trkpt lat="47.64364" lon="7.66664">
        <ele>433</ele>
        <time>2019-04-25T08:44:17Z</time>
      </trkpt>
      <trkpt lat="47.64375" lon="7.66677">
        <ele>432</ele>
        <time>2019-04-25T08:44:26Z</time>
      </trkpt>
      <trkpt lat="47.64382" lon="7.66686">
        <ele>431</ele>
        <time>2019-04-25T08:44:32Z</time>
      </trkpt>
      <trkpt lat="47.64392" lon="7.66703">
        <ele>433</ele>
        <time>2019-04-25T08:44:46Z</time>
      </trkpt>
      <trkpt lat="47.64393" lon="7.66713">
        <ele>433</ele>
        <time>2019-04-25T08:44:51Z</time>
      </trkpt>
      <trkpt lat="47.64397" lon="7.66732">
        <ele>429</ele>
        <time>2019-04-25T08:45:00Z</time>
      </trkpt>
      <trkpt lat="47.64402" lon="7.66746">
        <ele>432</ele>
        <time>2019-04-25T08:45:04Z</time>
      </trkpt>
      <trkpt lat="47.64407" lon="7.66768">
        <ele>433</ele>
        <time>2019-04-25T08:45:14Z</time>
      </trkpt>
      <trkpt lat="47.6441" lon="7.66778">
        <ele>433</ele>
        <time>2019-04-25T08:45:19Z</time>
      </trkpt>
      <trkpt lat="47.64415" lon="7.66786">
        <ele>435</ele>
        <time>2019-04-25T08:45:23Z</time>
      </trkpt>
      <trkpt lat="47.64423" lon="7.66806">
        <ele>416</ele>
        <time>2019-04-25T08:45:36Z</time>
      </trkpt>
      <trkpt lat="47.64438" lon="7.66861">
        <ele>431</ele>
        <time>2019-04-25T08:46:08Z</time>
      </trkpt>
      <trkpt lat="47.64442" lon="7.66871">
        <ele>433</ele>
        <time>2019-04-25T08:46:12Z</time>
      </trkpt>
      <trkpt lat="47.64445" lon="7.6688">
        <ele>437</ele>
        <time>2019-04-25T08:46:16Z</time>
      </trkpt>
      <trkpt lat="47.64445" lon="7.66889">
        <ele>437</ele>
        <time>2019-04-25T08:46:21Z</time>
      </trkpt>
      <trkpt lat="47.64449" lon="7.66897">
        <ele>437</ele>
        <time>2019-04-25T08:46:25Z</time>
      </trkpt>
      <trkpt lat="47.64447" lon="7.66904">
        <ele>437</ele>
        <time>2019-04-25T08:46:29Z</time>
      </trkpt>
      <trkpt lat="47.64452" lon="7.66945">
        <ele>436</ele>
        <time>2019-04-25T08:46:52Z</time>
      </trkpt>
      <trkpt lat="47.64459" lon="7.6697">
        <ele>436</ele>
        <time>2019-04-25T08:47:03Z</time>
      </trkpt>
      <trkpt lat="47.64465" lon="7.66975">
        <ele>439</ele>
        <time>2019-04-25T08:47:08Z</time>
      </trkpt>
      <trkpt lat="47.64472" lon="7.66987">
        <ele>438</ele>
        <time>2019-04-25T08:47:16Z</time>
      </trkpt>
      <trkpt lat="47.64478" lon="7.66991">
        <ele>435</ele>
        <time>2019-04-25T08:47:19Z</time>
      </trkpt>
      <trkpt lat="47.64487" lon="7.66996">
        <ele>434</ele>
        <time>2019-04-25T08:47:24Z</time>
      </trkpt>
      <trkpt lat="47.64493" lon="7.66996">
        <ele>436</ele>
        <time>2019-04-25T08:47:30Z</time>
      </trkpt>
      <trkpt lat="47.64499" lon="7.67003">
        <ele>435</ele>
        <time>2019-04-25T08:47:34Z</time>
      </trkpt>
      <trkpt lat="47.64504" lon="7.67009">
        <ele>431</ele>
        <time>2019-04-25T08:47:37Z</time>
      </trkpt>
      <trkpt lat="47.64518" lon="7.67037">
        <ele>431</ele>
        <time>2019-04-25T08:47:55Z</time>
      </trkpt>
      <trkpt lat="47.64523" lon="7.67041">
        <ele>432</ele>
        <time>2019-04-25T08:47:59Z</time>
      </trkpt>
      <trkpt lat="47.64528" lon="7.67041">
        <ele>434</ele>
        <time>2019-04-25T08:48:05Z</time>
      </trkpt>
      <trkpt lat="47.64556" lon="7.67023">
        <ele>436</ele>
        <time>2019-04-25T08:48:31Z</time>
      </trkpt>
      <trkpt lat="47.6457" lon="7.67025">
        <ele>433</ele>
        <time>2019-04-25T08:48:40Z</time>
      </trkpt>
      <trkpt lat="47.64575" lon="7.67022">
        <ele>430</ele>
        <time>2019-04-25T08:48:43Z</time>
      </trkpt>
      <trkpt lat="47.64603" lon="7.67021">
        <ele>431</ele>
        <time>2019-04-25T08:49:06Z</time>
      </trkpt>
      <trkpt lat="47.64612" lon="7.67024">
        <ele>431</ele>
        <time>2019-04-25T08:49:16Z</time>
      </trkpt>
      <trkpt lat="47.64624" lon="7.67025">
        <ele>427</ele>
        <time>2019-04-25T08:49:22Z</time>
      </trkpt>
      <trkpt lat="47.64638" lon="7.67028">
        <ele>427</ele>
        <time>2019-04-25T08:49:30Z</time>
      </trkpt>
      <trkpt lat="47.64662" lon="7.67026">
        <ele>428</ele>
        <time>2019-04-25T08:49:43Z</time>
      </trkpt>
      <trkpt lat="47.64673" lon="7.67016">
        <ele>428</ele>
        <time>2019-04-25T08:49:53Z</time>
      </trkpt>
      <trkpt lat="47.64682" lon="7.67006">
        <ele>431</ele>
        <time>2019-04-25T08:50:01Z</time>
      </trkpt>
      <trkpt lat="47.64687" lon="7.67004">
        <ele>430</ele>
        <time>2019-04-25T08:50:05Z</time>
      </trkpt>
      <trkpt lat="47.64692" lon="7.66998">
        <ele>428</ele>
        <time>2019-04-25T08:50:09Z</time>
      </trkpt>
      <trkpt lat="47.64696" lon="7.66994">
        <ele>427</ele>
        <time>2019-04-25T08:50:13Z</time>
      </trkpt>
      <trkpt lat="47.64697" lon="7.66987">
        <ele>426</ele>
        <time>2019-04-25T08:50:16Z</time>
      </trkpt>
      <trkpt lat="47.64702" lon="7.66984">
        <ele>426</ele>
        <time>2019-04-25T08:50:21Z</time>
      </trkpt>
      <trkpt lat="47.64712" lon="7.66963">
        <ele>427</ele>
        <time>2019-04-25T08:50:33Z</time>
      </trkpt>
      <trkpt lat="47.64716" lon="7.66956">
        <ele>427</ele>
        <time>2019-04-25T08:50:37Z</time>
      </trkpt>
      <trkpt lat="47.6472" lon="7.66952">
        <ele>427</ele>
        <time>2019-04-25T08:50:41Z</time>
      </trkpt>
      <trkpt lat="47.64729" lon="7.66946">
        <ele>428</ele>
        <time>2019-04-25T08:50:48Z</time>
      </trkpt>
      <trkpt lat="47.64734" lon="7.66944">
        <ele>428</ele>
        <time>2019-04-25T08:50:51Z</time>
      </trkpt>
      <trkpt lat="47.6474" lon="7.66933">
        <ele>427</ele>
        <time>2019-04-25T08:50:57Z</time>
      </trkpt>
      <trkpt lat="47.64753" lon="7.66919">
        <ele>428</ele>
        <time>2019-04-25T08:51:07Z</time>
      </trkpt>
      <trkpt lat="47.64759" lon="7.66919">
        <ele>428</ele>
        <time>2019-04-25T08:51:11Z</time>
      </trkpt>
      <trkpt lat="47.64763" lon="7.66919">
        <ele>426</ele>
        <time>2019-04-25T08:51:14Z</time>
      </trkpt>
      <trkpt lat="47.64767" lon="7.66923">
        <ele>425</ele>
        <time>2019-04-25T08:51:18Z</time>
      </trkpt>
      <trkpt lat="47.64777" lon="7.66927">
        <ele>424</ele>
        <time>2019-04-25T08:51:25Z</time>
      </trkpt>
      <trkpt lat="47.64787" lon="7.66931">
        <ele>419</ele>
        <time>2019-04-25T08:51:38Z</time>
      </trkpt>
      <trkpt lat="47.64802" lon="7.66945">
        <ele>418</ele>
        <time>2019-04-25T08:51:49Z</time>
      </trkpt>
      <trkpt lat="47.64822" lon="7.66971">
        <ele>418</ele>
        <time>2019-04-25T08:52:04Z</time>
      </trkpt>
      <trkpt lat="47.64827" lon="7.66977">
        <ele>420</ele>
        <time>2019-04-25T08:52:08Z</time>
      </trkpt>
      <trkpt lat="47.64831" lon="7.66984">
        <ele>420</ele>
        <time>2019-04-25T08:52:12Z</time>
      </trkpt>
      <trkpt lat="47.6484" lon="7.66998">
        <ele>421</ele>
        <time>2019-04-25T08:52:21Z</time>
      </trkpt>
      <trkpt lat="47.64857" lon="7.67023">
        <ele>421</ele>
        <time>2019-04-25T08:52:37Z</time>
      </trkpt>
      <trkpt lat="47.64865" lon="7.67035">
        <ele>421</ele>
        <time>2019-04-25T08:52:43Z</time>
      </trkpt>
      <trkpt lat="47.64869" lon="7.67041">
        <ele>421</ele>
        <time>2019-04-25T08:52:47Z</time>
      </trkpt>
      <trkpt lat="47.64873" lon="7.67054">
        <ele>422</ele>
        <time>2019-04-25T08:52:55Z</time>
      </trkpt>
      <trkpt lat="47.64878" lon="7.67061">
        <ele>422</ele>
        <time>2019-04-25T08:52:58Z</time>
      </trkpt>
      <trkpt lat="47.64886" lon="7.67083">
        <ele>422</ele>
        <time>2019-04-25T08:53:09Z</time>
      </trkpt>
      <trkpt lat="47.6489" lon="7.6709">
        <ele>422</ele>
        <time>2019-04-25T08:53:14Z</time>
      </trkpt>
      <trkpt lat="47.649" lon="7.67099">
        <ele>421</ele>
        <time>2019-04-25T08:53:23Z</time>
      </trkpt>
      <trkpt lat="47.64918" lon="7.67096">
        <ele>420</ele>
        <time>2019-04-25T08:53:35Z</time>
      </trkpt>
      <trkpt lat="47.64922" lon="7.67099">
        <ele>419</ele>
        <time>2019-04-25T08:53:38Z</time>
      </trkpt>
      <trkpt lat="47.64934" lon="7.67089">
        <ele>419</ele>
        <time>2019-04-25T08:53:51Z</time>
      </trkpt>
      <trkpt lat="47.64939" lon="7.6709">
        <ele>418</ele>
        <time>2019-04-25T08:53:54Z</time>
      </trkpt>
      <trkpt lat="47.64962" lon="7.67074">
        <ele>418</ele>
        <time>2019-04-25T08:54:10Z</time>
      </trkpt>
      <trkpt lat="47.64967" lon="7.67068">
        <ele>421</ele>
        <time>2019-04-25T08:54:15Z</time>
      </trkpt>
      <trkpt lat="47.64984" lon="7.67056">
        <ele>425</ele>
        <time>2019-04-25T08:54:30Z</time>
      </trkpt>
      <trkpt lat="47.64991" lon="7.67057">
        <ele>424</ele>
        <time>2019-04-25T08:54:35Z</time>
      </trkpt>
      <trkpt lat="47.64997" lon="7.6705">
        <ele>422</ele>
        <time>2019-04-25T08:54:39Z</time>
      </trkpt>
      <trkpt lat="47.65001" lon="7.67048">
        <ele>422</ele>
        <time>2019-04-25T08:54:43Z</time>
      </trkpt>
      <trkpt lat="47.65016" lon="7.67043">
        <ele>425</ele>
        <time>2019-04-25T08:54:55Z</time>
      </trkpt>
      <trkpt lat="47.65019" lon="7.67047">
        <ele>425</ele>
        <time>2019-04-25T08:54:58Z</time>
      </trkpt>
      <trkpt lat="47.65024" lon="7.6705">
        <ele>422</ele>
        <time>2019-04-25T08:55:01Z</time>
      </trkpt>
      <trkpt lat="47.65029" lon="7.67056">
        <ele>421</ele>
        <time>2019-04-25T08:55:08Z</time>
      </trkpt>
      <trkpt lat="47.65036" lon="7.67059">
        <ele>420</ele>
        <time>2019-04-25T08:55:13Z</time>
      </trkpt>
      <trkpt lat="47.65042" lon="7.67061">
        <ele>419</ele>
        <time>2019-04-25T08:55:17Z</time>
      </trkpt>
      <trkpt lat="47.65046" lon="7.67068">
        <ele>418</ele>
        <time>2019-04-25T08:55:21Z</time>
      </trkpt>
      <trkpt lat="47.65051" lon="7.67071">
        <ele>420</ele>
        <time>2019-04-25T08:55:25Z</time>
      </trkpt>
      <trkpt lat="47.6507" lon="7.67074">
        <ele>418</ele>
        <time>2019-04-25T08:55:38Z</time>
      </trkpt>
      <trkpt lat="47.65077" lon="7.67078">
        <ele>419</ele>
        <time>2019-04-25T08:55:41Z</time>
      </trkpt>
      <trkpt lat="47.65086" lon="7.67082">
        <ele>420</ele>
        <time>2019-04-25T08:55:49Z</time>
      </trkpt>
      <trkpt lat="47.65092" lon="7.67082">
        <ele>421</ele>
        <time>2019-04-25T08:55:54Z</time>
      </trkpt>
      <trkpt lat="47.65127" lon="7.67053">
        <ele>419</ele>
        <time>2019-04-25T08:56:25Z</time>
      </trkpt>
      <trkpt lat="47.65135" lon="7.67047">
        <ele>419</ele>
        <time>2019-04-25T08:56:30Z</time>
      </trkpt>
      <trkpt lat="47.6514" lon="7.67037">
        <ele>421</ele>
        <time>2019-04-25T08:56:37Z</time>
      </trkpt>
      <trkpt lat="47.65149" lon="7.67016">
        <ele>422</ele>
        <time>2019-04-25T08:56:52Z</time>
      </trkpt>
      <trkpt lat="47.65152" lon="7.66996">
        <ele>424</ele>
        <time>2019-04-25T08:57:01Z</time>
      </trkpt>
      <trkpt lat="47.65154" lon="7.66942">
        <ele>425</ele>
        <time>2019-04-25T08:57:33Z</time>
      </trkpt>
      <trkpt lat="47.65153" lon="7.66935">
        <ele>424</ele>
        <time>2019-04-25T08:57:38Z</time>
      </trkpt>
      <trkpt lat="47.65153" lon="7.66928">
        <ele>424</ele>
        <time>2019-04-25T08:57:43Z</time>
      </trkpt>
      <trkpt lat="47.65155" lon="7.66922">
        <ele>424</ele>
        <time>2019-04-25T08:57:47Z</time>
      </trkpt>
      <trkpt lat="47.65155" lon="7.66912">
        <ele>427</ele>
        <time>2019-04-25T08:57:54Z</time>
      </trkpt>
      <trkpt lat="47.65154" lon="7.66902">
        <ele>428</ele>
        <time>2019-04-25T08:58:01Z</time>
      </trkpt>
      <trkpt lat="47.65156" lon="7.66891">
        <ele>428</ele>
        <time>2019-04-25T08:58:07Z</time>
      </trkpt>
      <trkpt lat="47.65157" lon="7.66874">
        <ele>431</ele>
        <time>2019-04-25T08:58:17Z</time>
      </trkpt>
      <trkpt lat="47.6516" lon="7.66865">
        <ele>431</ele>
        <time>2019-04-25T08:58:23Z</time>
      </trkpt>
      <trkpt lat="47.65161" lon="7.66841">
        <ele>432</ele>
        <time>2019-04-25T08:58:39Z</time>
      </trkpt>
      <trkpt lat="47.65164" lon="7.66835">
        <ele>432</ele>
        <time>2019-04-25T08:58:44Z</time>
      </trkpt>
      <trkpt lat="47.65166" lon="7.6683">
        <ele>432</ele>
        <time>2019-04-25T08:58:57Z</time>
      </trkpt>
      <trkpt lat="47.65181" lon="7.66825">
        <ele>436</ele>
        <time>2019-04-25T08:59:11Z</time>
      </trkpt>
      <trkpt lat="47.65189" lon="7.66817">
        <ele>437</ele>
        <time>2019-04-25T08:59:16Z</time>
      </trkpt>
      <trkpt lat="47.65226" lon="7.6679">
        <ele>439</ele>
        <time>2019-04-25T08:59:46Z</time>
      </trkpt>
      <trkpt lat="47.65247" lon="7.66786">
        <ele>438</ele>
        <time>2019-04-25T09:00:01Z</time>
      </trkpt>
      <trkpt lat="47.65251" lon="7.6679">
        <ele>438</ele>
        <time>2019-04-25T09:00:04Z</time>
      </trkpt>
      <trkpt lat="47.65255" lon="7.66791">
        <ele>439</ele>
        <time>2019-04-25T09:00:07Z</time>
      </trkpt>
      <trkpt lat="47.65285" lon="7.66817">
        <ele>439</ele>
        <time>2019-04-25T09:00:38Z</time>
      </trkpt>
      <trkpt lat="47.6529" lon="7.66821">
        <ele>440</ele>
        <time>2019-04-25T09:00:42Z</time>
      </trkpt>
      <trkpt lat="47.65295" lon="7.66822">
        <ele>439</ele>
        <time>2019-04-25T09:00:46Z</time>
      </trkpt>
      <trkpt lat="47.65299" lon="7.66819">
        <ele>439</ele>
        <time>2019-04-25T09:00:58Z</time>
      </trkpt>
      <trkpt lat="47.65298" lon="7.66826">
        <ele>440</ele>
        <time>2019-04-25T09:01:11Z</time>
      </trkpt>
      <trkpt lat="47.65298" lon="7.66833">
        <ele>438</ele>
        <time>2019-04-25T09:01:15Z</time>
      </trkpt>
      <trkpt lat="47.65299" lon="7.66841">
        <ele>438</ele>
        <time>2019-04-25T09:01:19Z</time>
      </trkpt>
      <trkpt lat="47.65301" lon="7.66847">
        <ele>438</ele>
        <time>2019-04-25T09:01:22Z</time>
      </trkpt>
      <trkpt lat="47.65308" lon="7.66871">
        <ele>437</ele>
        <time>2019-04-25T09:01:35Z</time>
      </trkpt>
      <trkpt lat="47.65312" lon="7.66876">
        <ele>437</ele>
        <time>2019-04-25T09:01:38Z</time>
      </trkpt>
      <trkpt lat="47.65315" lon="7.66881">
        <ele>437</ele>
        <time>2019-04-25T09:01:40Z</time>
      </trkpt>
      <trkpt lat="47.65315" lon="7.66887">
        <ele>437</ele>
        <time>2019-04-25T09:01:43Z</time>
      </trkpt>
      <trkpt lat="47.65317" lon="7.66916">
        <ele>436</ele>
        <time>2019-04-25T09:01:56Z</time>
      </trkpt>
      <trkpt lat="47.65312" lon="7.6698">
        <ele>438</ele>
        <time>2019-04-25T09:02:27Z</time>
      </trkpt>
      <trkpt lat="47.65315" lon="7.6704">
        <ele>437</ele>
        <time>2019-04-25T09:02:56Z</time>
      </trkpt>
      <trkpt lat="47.65317" lon="7.67049">
        <ele>437</ele>
        <time>2019-04-25T09:03:01Z</time>
      </trkpt>
      <trkpt lat="47.65317" lon="7.67077">
        <ele>438</ele>
        <time>2019-04-25T09:03:13Z</time>
      </trkpt>
      <trkpt lat="47.65322" lon="7.67095">
        <ele>438</ele>
        <time>2019-04-25T09:03:22Z</time>
      </trkpt>
      <trkpt lat="47.65321" lon="7.67105">
        <ele>438</ele>
        <time>2019-04-25T09:03:27Z</time>
      </trkpt>
      <trkpt lat="47.65324" lon="7.67112">
        <ele>437</ele>
        <time>2019-04-25T09:03:31Z</time>
      </trkpt>
      <trkpt lat="47.65324" lon="7.67125">
        <ele>437</ele>
        <time>2019-04-25T09:03:36Z</time>
      </trkpt>
      <trkpt lat="47.65326" lon="7.67137">
        <ele>439</ele>
        <time>2019-04-25T09:03:42Z</time>
      </trkpt>
      <trkpt lat="47.65329" lon="7.67147">
        <ele>442</ele>
        <time>2019-04-25T09:03:47Z</time>
      </trkpt>
      <trkpt lat="47.65328" lon="7.67169">
        <ele>443</ele>
        <time>2019-04-25T09:03:56Z</time>
      </trkpt>
      <trkpt lat="47.65327" lon="7.67178">
        <ele>442</ele>
        <time>2019-04-25T09:04:00Z</time>
      </trkpt>
      <trkpt lat="47.65329" lon="7.67187">
        <ele>442</ele>
        <time>2019-04-25T09:04:06Z</time>
      </trkpt>
      <trkpt lat="47.65332" lon="7.67203">
        <ele>445</ele>
        <time>2019-04-25T09:04:14Z</time>
      </trkpt>
      <trkpt lat="47.65342" lon="7.67218">
        <ele>444</ele>
        <time>2019-04-25T09:04:27Z</time>
      </trkpt>
      <trkpt lat="47.65348" lon="7.6722">
        <ele>446</ele>
        <time>2019-04-25T09:04:30Z</time>
      </trkpt>
      <trkpt lat="47.6537" lon="7.67221">
        <ele>447</ele>
        <time>2019-04-25T09:04:46Z</time>
      </trkpt>
      <trkpt lat="47.65381" lon="7.67227">
        <ele>447</ele>
        <time>2019-04-25T09:04:54Z</time>
      </trkpt>
      <trkpt lat="47.65396" lon="7.67229">
        <ele>447</ele>
        <time>2019-04-25T09:05:05Z</time>
      </trkpt>
      <trkpt lat="47.65399" lon="7.67233">
        <ele>447</ele>
        <time>2019-04-25T09:05:07Z</time>
      </trkpt>
      <trkpt lat="47.65404" lon="7.67235">
        <ele>444</ele>
        <time>2019-04-25T09:05:11Z</time>
      </trkpt>
      <trkpt lat="47.65414" lon="7.67241">
        <ele>443</ele>
        <time>2019-04-25T09:05:17Z</time>
      </trkpt>
      <trkpt lat="47.65436" lon="7.67255">
        <ele>444</ele>
        <time>2019-04-25T09:05:36Z</time>
      </trkpt>
      <trkpt lat="47.65441" lon="7.67255">
        <ele>445</ele>
        <time>2019-04-25T09:05:40Z</time>
      </trkpt>
      <trkpt lat="47.65445" lon="7.67262">
        <ele>446</ele>
        <time>2019-04-25T09:05:45Z</time>
      </trkpt>
      <trkpt lat="47.65451" lon="7.6727">
        <ele>446</ele>
        <time>2019-04-25T09:05:50Z</time>
      </trkpt>
      <trkpt lat="47.65457" lon="7.67275">
        <ele>447</ele>
        <time>2019-04-25T09:05:54Z</time>
      </trkpt>
      <trkpt lat="47.65474" lon="7.67293">
        <ele>446</ele>
        <time>2019-04-25T09:06:10Z</time>
      </trkpt>
      <trkpt lat="47.65485" lon="7.67308">
        <ele>446</ele>
        <time>2019-04-25T09:06:19Z</time>
      </trkpt>
      <trkpt lat="47.65507" lon="7.67339">
        <ele>451</ele>
        <time>2019-04-25T09:06:42Z</time>
      </trkpt>
      <trkpt lat="47.65512" lon="7.67344">
        <ele>454</ele>
        <time>2019-04-25T09:06:45Z</time>
      </trkpt>
      <trkpt lat="47.65516" lon="7.67351">
        <ele>455</ele>
        <time>2019-04-25T09:06:49Z</time>
      </trkpt>
      <trkpt lat="47.65522" lon="7.67356">
        <ele>455</ele>
        <time>2019-04-25T09:06:52Z</time>
      </trkpt>
      <trkpt lat="47.65531" lon="7.6737">
        <ele>457</ele>
        <time>2019-04-25T09:07:02Z</time>
      </trkpt>
      <trkpt lat="47.65536" lon="7.67377">
        <ele>456</ele>
        <time>2019-04-25T09:07:06Z</time>
      </trkpt>
      <trkpt lat="47.65546" lon="7.67385">
        <ele>456</ele>
        <time>2019-04-25T09:07:14Z</time>
      </trkpt>
      <trkpt lat="47.65567" lon="7.67383">
        <ele>452</ele>
        <time>2019-04-25T09:07:29Z</time>
      </trkpt>
      <trkpt lat="47.65577" lon="7.67373">
        <ele>451</ele>
        <time>2019-04-25T09:07:40Z</time>
      </trkpt>
      <trkpt lat="47.6558" lon="7.67365">
        <ele>453</ele>
        <time>2019-04-25T09:07:44Z</time>
      </trkpt>
      <trkpt lat="47.65587" lon="7.67353">
        <ele>450</ele>
        <time>2019-04-25T09:07:54Z</time>
      </trkpt>
      <trkpt lat="47.65589" lon="7.67344">
        <ele>448</ele>
        <time>2019-04-25T09:07:59Z</time>
      </trkpt>
      <trkpt lat="47.6559" lon="7.67333">
        <ele>446</ele>
        <time>2019-04-25T09:08:04Z</time>
      </trkpt>
      <trkpt lat="47.65592" lon="7.67307">
        <ele>442</ele>
        <time>2019-04-25T09:08:17Z</time>
      </trkpt>
      <trkpt lat="47.65599" lon="7.67245">
        <ele>436</ele>
        <time>2019-04-25T09:08:49Z</time>
      </trkpt>
      <trkpt lat="47.65598" lon="7.67237">
        <ele>436</ele>
        <time>2019-04-25T09:08:53Z</time>
      </trkpt>
      <trkpt lat="47.656" lon="7.67231">
        <ele>437</ele>
        <time>2019-04-25T09:08:57Z</time>
      </trkpt>
      <trkpt lat="47.65604" lon="7.67219">
        <ele>437</ele>
        <time>2019-04-25T09:09:03Z</time>
      </trkpt>
      <trkpt lat="47.65613" lon="7.67213">
        <ele>436</ele>
        <time>2019-04-25T09:09:13Z</time>
      </trkpt>
      <trkpt lat="47.65623" lon="7.67203">
        <ele>439</ele>
        <time>2019-04-25T09:09:22Z</time>
      </trkpt>
      <trkpt lat="47.65631" lon="7.67198">
        <ele>441</ele>
        <time>2019-04-25T09:09:26Z</time>
      </trkpt>
      <trkpt lat="47.65637" lon="7.67196">
        <ele>443</ele>
        <time>2019-04-25T09:09:34Z</time>
      </trkpt>
      <trkpt lat="47.65645" lon="7.67199">
        <ele>444</ele>
        <time>2019-04-25T09:09:39Z</time>
      </trkpt>
      <trkpt lat="47.65652" lon="7.67203">
        <ele>443</ele>
        <time>2019-04-25T09:09:45Z</time>
      </trkpt>
      <trkpt lat="47.65659" lon="7.67206">
        <ele>445</ele>
        <time>2019-04-25T09:09:51Z</time>
      </trkpt>
      <trkpt lat="47.65674" lon="7.67213">
        <ele>443</ele>
        <time>2019-04-25T09:10:02Z</time>
      </trkpt>
      <trkpt lat="47.65683" lon="7.67223">
        <ele>442</ele>
        <time>2019-04-25T09:10:10Z</time>
      </trkpt>
      <trkpt lat="47.6569" lon="7.67225">
        <ele>442</ele>
        <time>2019-04-25T09:10:14Z</time>
      </trkpt>
      <trkpt lat="47.65696" lon="7.67237">
        <ele>443</ele>
        <time>2019-04-25T09:10:19Z</time>
      </trkpt>
      <trkpt lat="47.65714" lon="7.67244">
        <ele>443</ele>
        <time>2019-04-25T09:10:28Z</time>
      </trkpt>
      <trkpt lat="47.65718" lon="7.67253">
        <ele>441</ele>
        <time>2019-04-25T09:10:35Z</time>
      </trkpt>
      <trkpt lat="47.65726" lon="7.67263">
        <ele>441</ele>
        <time>2019-04-25T09:10:42Z</time>
      </trkpt>
      <trkpt lat="47.65731" lon="7.67273">
        <ele>438</ele>
        <time>2019-04-25T09:10:47Z</time>
      </trkpt>
      <trkpt lat="47.65738" lon="7.67277">
        <ele>437</ele>
        <time>2019-04-25T09:10:52Z</time>
      </trkpt>
      <trkpt lat="47.6574" lon="7.67285">
        <ele>438</ele>
        <time>2019-04-25T09:10:56Z</time>
      </trkpt>
      <trkpt lat="47.65746" lon="7.67289">
        <ele>440</ele>
        <time>2019-04-25T09:11:03Z</time>
      </trkpt>
      <trkpt lat="47.65758" lon="7.673">
        <ele>439</ele>
        <time>2019-04-25T09:11:13Z</time>
      </trkpt>
      <trkpt lat="47.6577" lon="7.67292">
        <ele>439</ele>
        <time>2019-04-25T09:11:22Z</time>
      </trkpt>
      <trkpt lat="47.65776" lon="7.67287">
        <ele>438</ele>
        <time>2019-04-25T09:11:27Z</time>
      </trkpt>
      <trkpt lat="47.65782" lon="7.67282">
        <ele>439</ele>
        <time>2019-04-25T09:11:30Z</time>
      </trkpt>
      <trkpt lat="47.658" lon="7.67264">
        <ele>437</ele>
        <time>2019-04-25T09:11:48Z</time>
      </trkpt>
      <trkpt lat="47.65807" lon="7.67254">
        <ele>433</ele>
        <time>2019-04-25T09:11:54Z</time>
      </trkpt>
      <trkpt lat="47.65818" lon="7.67236">
        <ele>433</ele>
        <time>2019-04-25T09:12:04Z</time>
      </trkpt>
      <trkpt lat="47.65824" lon="7.6723">
        <ele>434</ele>
        <time>2019-04-25T09:12:11Z</time>
      </trkpt>
      <trkpt lat="47.6583" lon="7.67224">
        <ele>437</ele>
        <time>2019-04-25T09:12:17Z</time>
      </trkpt>
      <trkpt lat="47.65836" lon="7.67217">
        <ele>435</ele>
        <time>2019-04-25T09:12:20Z</time>
      </trkpt>
      <trkpt lat="47.65843" lon="7.67209">
        <ele>436</ele>
        <time>2019-04-25T09:12:27Z</time>
      </trkpt>
      <trkpt lat="47.6586" lon="7.672">
        <ele>438</ele>
        <time>2019-04-25T09:12:41Z</time>
      </trkpt>
      <trkpt lat="47.65867" lon="7.6719">
        <ele>443</ele>
        <time>2019-04-25T09:12:46Z</time>
      </trkpt>
      <trkpt lat="47.65881" lon="7.67187">
        <ele>442</ele>
        <time>2019-04-25T09:12:54Z</time>
      </trkpt>
      <trkpt lat="47.65896" lon="7.67192">
        <ele>444</ele>
        <time>2019-04-25T09:13:06Z</time>
      </trkpt>
      <trkpt lat="47.65905" lon="7.67196">
        <ele>444</ele>
        <time>2019-04-25T09:13:11Z</time>
      </trkpt>
      <trkpt lat="47.65912" lon="7.67195">
        <ele>445</ele>
        <time>2019-04-25T09:13:15Z</time>
      </trkpt>
      <trkpt lat="47.65919" lon="7.67196">
        <ele>447</ele>
        <time>2019-04-25T09:13:19Z</time>
      </trkpt>
      <trkpt lat="47.65924" lon="7.67203">
        <ele>445</ele>
        <time>2019-04-25T09:13:26Z</time>
      </trkpt>
      <trkpt lat="47.65924" lon="7.67212">
        <ele>443</ele>
        <time>2019-04-25T09:13:28Z</time>
      </trkpt>
      <trkpt lat="47.65928" lon="7.6722">
        <ele>440</ele>
        <time>2019-04-25T09:13:33Z</time>
      </trkpt>
      <trkpt lat="47.65935" lon="7.67228">
        <ele>437</ele>
        <time>2019-04-25T09:13:39Z</time>
      </trkpt>
      <trkpt lat="47.65954" lon="7.67252">
        <ele>435</ele>
        <time>2019-04-25T09:13:55Z</time>
      </trkpt>
      <trkpt lat="47.65959" lon="7.67258">
        <ele>435</ele>
        <time>2019-04-25T09:13:58Z</time>
      </trkpt>
      <trkpt lat="47.65963" lon="7.67264">
        <ele>436</ele>
        <time>2019-04-25T09:14:04Z</time>
      </trkpt>
      <trkpt lat="47.65991" lon="7.6729">
        <ele>434</ele>
        <time>2019-04-25T09:14:23Z</time>
      </trkpt>
      <trkpt lat="47.65997" lon="7.67295">
        <ele>435</ele>
        <time>2019-04-25T09:14:28Z</time>
      </trkpt>
      <trkpt lat="47.66004" lon="7.67301">
        <ele>437</ele>
        <time>2019-04-25T09:14:37Z</time>
      </trkpt>
      <trkpt lat="47.66007" lon="7.67309">
        <ele>436</ele>
        <time>2019-04-25T09:14:40Z</time>
      </trkpt>
      <trkpt lat="47.66012" lon="7.67319">
        <ele>434</ele>
        <time>2019-04-25T09:14:45Z</time>
      </trkpt>
      <trkpt lat="47.6602" lon="7.67324">
        <ele>434</ele>
        <time>2019-04-25T09:14:53Z</time>
      </trkpt>
      <trkpt lat="47.66025" lon="7.67327">
        <ele>433</ele>
        <time>2019-04-25T09:14:57Z</time>
      </trkpt>
      <trkpt lat="47.66045" lon="7.67344">
        <ele>432</ele>
        <time>2019-04-25T09:15:14Z</time>
      </trkpt>
      <trkpt lat="47.66069" lon="7.6735">
        <ele>437</ele>
        <time>2019-04-25T09:15:27Z</time>
      </trkpt>
      <trkpt lat="47.66078" lon="7.67354">
        <ele>437</ele>
        <time>2019-04-25T09:15:32Z</time>
      </trkpt>
      <trkpt lat="47.66107" lon="7.67372">
        <ele>439</ele>
        <time>2019-04-25T09:15:56Z</time>
      </trkpt>
      <trkpt lat="47.66113" lon="7.67374">
        <ele>440</ele>
        <time>2019-04-25T09:16:01Z</time>
      </trkpt>
      <trkpt lat="47.66121" lon="7.67373">
        <ele>440</ele>
        <time>2019-04-25T09:16:04Z</time>
      </trkpt>
      <trkpt lat="47.66126" lon="7.67377">
        <ele>440</ele>
        <time>2019-04-25T09:16:08Z</time>
      </trkpt>
      <trkpt lat="47.66131" lon="7.67374">
        <ele>439</ele>
        <time>2019-04-25T09:16:11Z</time>
      </trkpt>
      <trkpt lat="47.66136" lon="7.67376">
        <ele>438</ele>
        <time>2019-04-25T09:16:14Z</time>
      </trkpt>
      <trkpt lat="47.66143" lon="7.67377">
        <ele>438</ele>
        <time>2019-04-25T09:16:19Z</time>
      </trkpt>
      <trkpt lat="47.66149" lon="7.67378">
        <ele>440</ele>
        <time>2019-04-25T09:16:24Z</time>
      </trkpt>
      <trkpt lat="47.66155" lon="7.67377">
        <ele>441</ele>
        <time>2019-04-25T09:16:28Z</time>
      </trkpt>
      <trkpt lat="47.66157" lon="7.67383">
        <ele>437</ele>
        <time>2019-04-25T09:17:16Z</time>
      </trkpt>
      <trkpt lat="47.66162" lon="7.67384">
        <ele>437</ele>
        <time>2019-04-25T09:17:23Z</time>
      </trkpt>
      <trkpt lat="47.66167" lon="7.67394">
        <ele>437</ele>
        <time>2019-04-25T09:17:30Z</time>
      </trkpt>
      <trkpt lat="47.66171" lon="7.67406">
        <ele>435</ele>
        <time>2019-04-25T09:17:35Z</time>
      </trkpt>
      <trkpt lat="47.6617" lon="7.67421">
        <ele>434</ele>
        <time>2019-04-25T09:17:42Z</time>
      </trkpt>
      <trkpt lat="47.66178" lon="7.67424">
        <ele>431</ele>
        <time>2019-04-25T09:17:47Z</time>
      </trkpt>
      <trkpt lat="47.66185" lon="7.67424">
        <ele>434</ele>
        <time>2019-04-25T09:17:51Z</time>
      </trkpt>
      <trkpt lat="47.66191" lon="7.67422">
        <ele>435</ele>
        <time>2019-04-25T09:17:55Z</time>
      </trkpt>
      <trkpt lat="47.66197" lon="7.67419">
        <ele>434</ele>
        <time>2019-04-25T09:18:01Z</time>
      </trkpt>
      <trkpt lat="47.66202" lon="7.67418">
        <ele>434</ele>
        <time>2019-04-25T09:18:04Z</time>
      </trkpt>
      <trkpt lat="47.66206" lon="7.67419">
        <ele>434</ele>
        <time>2019-04-25T09:18:07Z</time>
      </trkpt>
      <trkpt lat="47.66218" lon="7.67422">
        <ele>432</ele>
        <time>2019-04-25T09:18:15Z</time>
      </trkpt>
      <trkpt lat="47.66223" lon="7.67418">
        <ele>431</ele>
        <time>2019-04-25T09:18:19Z</time>
      </trkpt>
      <trkpt lat="47.66229" lon="7.67417">
        <ele>432</ele>
        <time>2019-04-25T09:18:24Z</time>
      </trkpt>
      <trkpt lat="47.66234" lon="7.67422">
        <ele>433</ele>
        <time>2019-04-25T09:18:29Z</time>
      </trkpt>
      <trkpt lat="47.6624" lon="7.67423">
        <ele>435</ele>
        <time>2019-04-25T09:18:35Z</time>
      </trkpt>
      <trkpt lat="47.66248" lon="7.67427">
        <ele>434</ele>
        <time>2019-04-25T09:18:42Z</time>
      </trkpt>
      <trkpt lat="47.66255" lon="7.67432">
        <ele>432</ele>
        <time>2019-04-25T09:18:46Z</time>
      </trkpt>
      <trkpt lat="47.66262" lon="7.67435">
        <ele>432</ele>
        <time>2019-04-25T09:18:50Z</time>
      </trkpt>
      <trkpt lat="47.66296" lon="7.67435">
        <ele>426</ele>
        <time>2019-04-25T09:19:13Z</time>
      </trkpt>
      <trkpt lat="47.66345" lon="7.67432">
        <ele>426</ele>
        <time>2019-04-25T09:19:45Z</time>
      </trkpt>
      <trkpt lat="47.6635" lon="7.6743">
        <ele>425</ele>
        <time>2019-04-25T09:19:48Z</time>
      </trkpt>
      <trkpt lat="47.66358" lon="7.67431">
        <ele>425</ele>
        <time>2019-04-25T09:19:54Z</time>
      </trkpt>
      <trkpt lat="47.66368" lon="7.67433">
        <ele>423</ele>
        <time>2019-04-25T09:20:00Z</time>
      </trkpt>
      <trkpt lat="47.66378" lon="7.67431">
        <ele>419</ele>
        <time>2019-04-25T09:20:08Z</time>
      </trkpt>
      <trkpt lat="47.66383" lon="7.67432">
        <ele>419</ele>
        <time>2019-04-25T09:20:11Z</time>
      </trkpt>
      <trkpt lat="47.66398" lon="7.67431">
        <ele>417</ele>
        <time>2019-04-25T09:20:23Z</time>
      </trkpt>
      <trkpt lat="47.66403" lon="7.67432">
        <ele>417</ele>
        <time>2019-04-25T09:20:28Z</time>
      </trkpt>
      <trkpt lat="47.66411" lon="7.67432">
        <ele>416</ele>
        <time>2019-04-25T09:20:34Z</time>
      </trkpt>
      <trkpt lat="47.66417" lon="7.67435">
        <ele>413</ele>
        <time>2019-04-25T09:20:38Z</time>
      </trkpt>
      <trkpt lat="47.66447" lon="7.67428">
        <ele>413</ele>
        <time>2019-04-25T09:20:58Z</time>
      </trkpt>
      <trkpt lat="47.66452" lon="7.67426">
        <ele>416</ele>
        <time>2019-04-25T09:21:01Z</time>
      </trkpt>
      <trkpt lat="47.66456" lon="7.6743">
        <ele>415</ele>
        <time>2019-04-25T09:21:04Z</time>
      </trkpt>
      <trkpt lat="47.66465" lon="7.67428">
        <ele>414</ele>
        <time>2019-04-25T09:21:10Z</time>
      </trkpt>
      <trkpt lat="47.6647" lon="7.67428">
        <ele>415</ele>
        <time>2019-04-25T09:21:13Z</time>
      </trkpt>
      <trkpt lat="47.6648" lon="7.67428">
        <ele>415</ele>
        <time>2019-04-25T09:21:19Z</time>
      </trkpt>
      <trkpt lat="47.66507" lon="7.67427">
        <ele>413</ele>
        <time>2019-04-25T09:21:38Z</time>
      </trkpt>
      <trkpt lat="47.66512" lon="7.67428">
        <ele>411</ele>
        <time>2019-04-25T09:21:42Z</time>
      </trkpt>
      <trkpt lat="47.66555" lon="7.67421">
        <ele>403</ele>
        <time>2019-04-25T09:22:12Z</time>
      </trkpt>
      <trkpt lat="47.66559" lon="7.67419">
        <ele>403</ele>
        <time>2019-04-25T09:22:15Z</time>
      </trkpt>
      <trkpt lat="47.66573" lon="7.6742">
        <ele>400</ele>
        <time>2019-04-25T09:22:24Z</time>
      </trkpt>
      <trkpt lat="47.66577" lon="7.67419">
        <ele>399</ele>
        <time>2019-04-25T09:22:27Z</time>
      </trkpt>
      <trkpt lat="47.66591" lon="7.6742">
        <ele>394</ele>
        <time>2019-04-25T09:22:37Z</time>
      </trkpt>
      <trkpt lat="47.66604" lon="7.67414">
        <ele>395</ele>
        <time>2019-04-25T09:22:47Z</time>
      </trkpt>
      <trkpt lat="47.66609" lon="7.67415">
        <ele>395</ele>
        <time>2019-04-25T09:22:50Z</time>
      </trkpt>
      <trkpt lat="47.66618" lon="7.67412">
        <ele>397</ele>
        <time>2019-04-25T09:22:57Z</time>
      </trkpt>
      <trkpt lat="47.66628" lon="7.67409">
        <ele>398</ele>
        <time>2019-04-25T09:23:04Z</time>
      </trkpt>
      <trkpt lat="47.66632" lon="7.67408">
        <ele>399</ele>
        <time>2019-04-25T09:23:07Z</time>
      </trkpt>
      <trkpt lat="47.66641" lon="7.67406">
        <ele>399</ele>
        <time>2019-04-25T09:23:13Z</time>
      </trkpt>
      <trkpt lat="47.66645" lon="7.67403">
        <ele>399</ele>
        <time>2019-04-25T09:23:16Z</time>
      </trkpt>
      <trkpt lat="47.66653" lon="7.674">
        <ele>400</ele>
        <time>2019-04-25T09:23:22Z</time>
      </trkpt>
      <trkpt lat="47.66665" lon="7.6739">
        <ele>400</ele>
        <time>2019-04-25T09:23:32Z</time>
      </trkpt>
      <trkpt lat="47.6667" lon="7.67387">
        <ele>400</ele>
        <time>2019-04-25T09:23:35Z</time>
      </trkpt>
      <trkpt lat="47.66674" lon="7.67383">
        <ele>400</ele>
        <time>2019-04-25T09:23:38Z</time>
      </trkpt>
      <trkpt lat="47.66688" lon="7.67377">
        <ele>399</ele>
        <time>2019-04-25T09:23:49Z</time>
      </trkpt>
      <trkpt lat="47.66725" lon="7.67366">
        <ele>398</ele>
        <time>2019-04-25T09:24:17Z</time>
      </trkpt>
      <trkpt lat="47.66735" lon="7.6737">
        <ele>394</ele>
        <time>2019-04-25T09:24:24Z</time>
      </trkpt>
      <trkpt lat="47.66751" lon="7.67373">
        <ele>394</ele>
        <time>2019-04-25T09:24:35Z</time>
      </trkpt>
      <trkpt lat="47.6676" lon="7.67382">
        <ele>392</ele>
        <time>2019-04-25T09:24:42Z</time>
      </trkpt>
      <trkpt lat="47.66766" lon="7.67383">
        <ele>391</ele>
        <time>2019-04-25T09:24:46Z</time>
      </trkpt>
      <trkpt lat="47.66772" lon="7.67383">
        <ele>391</ele>
        <time>2019-04-25T09:24:50Z</time>
      </trkpt>
      <trkpt lat="47.6678" lon="7.67386">
        <ele>388</ele>
        <time>2019-04-25T09:24:56Z</time>
      </trkpt>
      <trkpt lat="47.66787" lon="7.67386">
        <ele>387</ele>
        <time>2019-04-25T09:25:00Z</time>
      </trkpt>
      <trkpt lat="47.66792" lon="7.67389">
        <ele>384</ele>
        <time>2019-04-25T09:25:04Z</time>
      </trkpt>
      <trkpt lat="47.6681" lon="7.67388">
        <ele>382</ele>
        <time>2019-04-25T09:25:16Z</time>
      </trkpt>
      <trkpt lat="47.66816" lon="7.67392">
        <ele>380</ele>
        <time>2019-04-25T09:25:20Z</time>
      </trkpt>
      <trkpt lat="47.66821" lon="7.67389">
        <ele>378</ele>
        <time>2019-04-25T09:25:25Z</time>
      </trkpt>
      <trkpt lat="47.66847" lon="7.67386">
        <ele>376</ele>
        <time>2019-04-25T09:25:44Z</time>
      </trkpt>
      <trkpt lat="47.66857" lon="7.67383">
        <ele>377</ele>
        <time>2019-04-25T09:25:51Z</time>
      </trkpt>
      <trkpt lat="47.66892" lon="7.67387">
        <ele>374</ele>
        <time>2019-04-25T09:26:20Z</time>
      </trkpt>
      <trkpt lat="47.66902" lon="7.67361">
        <ele>374</ele>
        <time>2019-04-25T09:26:34Z</time>
      </trkpt>
      <trkpt lat="47.66905" lon="7.67351">
        <ele>374</ele>
        <time>2019-04-25T09:26:43Z</time>
      </trkpt>
      <trkpt lat="47.66917" lon="7.67335">
        <ele>371</ele>
        <time>2019-04-25T09:26:55Z</time>
      </trkpt>
      <trkpt lat="47.66947" lon="7.67302">
        <ele>370</ele>
        <time>2019-04-25T09:27:22Z</time>
      </trkpt>
      <trkpt lat="47.6695" lon="7.67295">
        <ele>369</ele>
        <time>2019-04-25T09:27:26Z</time>
      </trkpt>
      <trkpt lat="47.6699" lon="7.67261">
        <ele>365</ele>
        <time>2019-04-25T09:27:57Z</time>
      </trkpt>
      <trkpt lat="47.66994" lon="7.67257">
        <ele>365</ele>
        <time>2019-04-25T09:28:00Z</time>
      </trkpt>
      <trkpt lat="47.66998" lon="7.67254">
        <ele>365</ele>
        <time>2019-04-25T09:28:03Z</time>
      </trkpt>
      <trkpt lat="47.67001" lon="7.6725">
        <ele>364</ele>
        <time>2019-04-25T09:28:06Z</time>
      </trkpt>
      <trkpt lat="47.67006" lon="7.67247">
        <ele>363</ele>
        <time>2019-04-25T09:28:09Z</time>
      </trkpt>
      <trkpt lat="47.67042" lon="7.67207">
        <ele>358</ele>
        <time>2019-04-25T09:28:41Z</time>
      </trkpt>
      <trkpt lat="47.67079" lon="7.67168">
        <ele>353</ele>
        <time>2019-04-25T09:29:13Z</time>
      </trkpt>
      <trkpt lat="47.67118" lon="7.67144">
        <ele>352</ele>
        <time>2019-04-25T09:29:43Z</time>
      </trkpt>
      <trkpt lat="47.67126" lon="7.67138">
        <ele>351</ele>
        <time>2019-04-25T09:29:50Z</time>
      </trkpt>
      <trkpt lat="47.67158" lon="7.67118">
        <ele>347</ele>
        <time>2019-04-25T09:30:15Z</time>
      </trkpt>
      <trkpt lat="47.67167" lon="7.67113">
        <ele>346</ele>
        <time>2019-04-25T09:30:22Z</time>
      </trkpt>
      <trkpt lat="47.67171" lon="7.67111">
        <ele>346</ele>
        <time>2019-04-25T09:30:25Z</time>
      </trkpt>
      <trkpt lat="47.67176" lon="7.67108">
        <ele>346</ele>
        <time>2019-04-25T09:30:29Z</time>
      </trkpt>
      <trkpt lat="47.67218" lon="7.67095">
        <ele>342</ele>
        <time>2019-04-25T09:30:59Z</time>
      </trkpt>
      <trkpt lat="47.67227" lon="7.67095">
        <ele>343</ele>
        <time>2019-04-25T09:31:05Z</time>
      </trkpt>
      <trkpt lat="47.67236" lon="7.6709">
        <ele>342</ele>
        <time>2019-04-25T09:31:11Z</time>
      </trkpt>
      <trkpt lat="47.67254" lon="7.67068">
        <ele>342</ele>
        <time>2019-04-25T09:31:27Z</time>
      </trkpt>
      <trkpt lat="47.67258" lon="7.67063">
        <ele>341</ele>
        <time>2019-04-25T09:31:30Z</time>
      </trkpt>
      <trkpt lat="47.67292" lon="7.67024">
        <ele>337</ele>
        <time>2019-04-25T09:32:01Z</time>
      </trkpt>
      <trkpt lat="47.67309" lon="7.6701">
        <ele>338</ele>
        <time>2019-04-25T09:32:14Z</time>
      </trkpt>
      <trkpt lat="47.67313" lon="7.67008">
        <ele>339</ele>
        <time>2019-04-25T09:32:18Z</time>
      </trkpt>
      <trkpt lat="47.67317" lon="7.67003">
        <ele>339</ele>
        <time>2019-04-25T09:32:22Z</time>
      </trkpt>
      <trkpt lat="47.67333" lon="7.66987">
        <ele>338</ele>
        <time>2019-04-25T09:32:34Z</time>
      </trkpt>
      <trkpt lat="47.67338" lon="7.66983">
        <ele>337</ele>
        <time>2019-04-25T09:32:37Z</time>
      </trkpt>
      <trkpt lat="47.67347" lon="7.66978">
        <ele>333</ele>
        <time>2019-04-25T09:32:44Z</time>
      </trkpt>
      <trkpt lat="47.67359" lon="7.66969">
        <ele>333</ele>
        <time>2019-04-25T09:32:53Z</time>
      </trkpt>
      <trkpt lat="47.67364" lon="7.66967">
        <ele>333</ele>
        <time>2019-04-25T09:32:56Z</time>
      </trkpt>
      <trkpt lat="47.67368" lon="7.66966">
        <ele>333</ele>
        <time>2019-04-25T09:32:59Z</time>
      </trkpt>
      <trkpt lat="47.6737" lon="7.66961">
        <ele>333</ele>
        <time>2019-04-25T09:33:03Z</time>
      </trkpt>
      <trkpt lat="47.67371" lon="7.66953">
        <ele>333</ele>
        <time>2019-04-25T09:33:08Z</time>
      </trkpt>
      <trkpt lat="47.67381" lon="7.66923">
        <ele>332</ele>
        <time>2019-04-25T09:33:22Z</time>
      </trkpt>
      <trkpt lat="47.67385" lon="7.66915">
        <ele>332</ele>
        <time>2019-04-25T09:33:28Z</time>
      </trkpt>
      <trkpt lat="47.67388" lon="7.66909">
        <ele>327</ele>
        <time>2019-04-25T09:33:32Z</time>
      </trkpt>
      <trkpt lat="47.67395" lon="7.66901">
        <ele>328</ele>
        <time>2019-04-25T09:33:43Z</time>
      </trkpt>
      <trkpt lat="47.674" lon="7.66901">
        <ele>330</ele>
        <time>2019-04-25T09:33:57Z</time>
      </trkpt>
      <trkpt lat="47.67407" lon="7.66909">
        <ele>331</ele>
        <time>2019-04-25T09:34:02Z</time>
      </trkpt>
      <trkpt lat="47.67427" lon="7.6692">
        <ele>331</ele>
        <time>2019-04-25T09:34:18Z</time>
      </trkpt>
      <trkpt lat="47.67432" lon="7.66927">
        <ele>328</ele>
        <time>2019-04-25T09:34:24Z</time>
      </trkpt>
      <trkpt lat="47.67445" lon="7.66944">
        <ele>324</ele>
        <time>2019-04-25T09:34:40Z</time>
      </trkpt>
      <trkpt lat="47.67456" lon="7.66948">
        <ele>326</ele>
        <time>2019-04-25T09:34:43Z</time>
      </trkpt>
      <trkpt lat="47.67466" lon="7.66959">
        <ele>327</ele>
        <time>2019-04-25T09:34:52Z</time>
      </trkpt>
      <trkpt lat="47.6747" lon="7.6696">
        <ele>327</ele>
        <time>2019-04-25T09:34:54Z</time>
      </trkpt>
      <trkpt lat="47.67476" lon="7.66972">
        <ele>326</ele>
        <time>2019-04-25T09:35:03Z</time>
      </trkpt>
      <trkpt lat="47.67483" lon="7.66976">
        <ele>326</ele>
        <time>2019-04-25T09:35:08Z</time>
      </trkpt>
      <trkpt lat="47.67488" lon="7.66983">
        <ele>326</ele>
        <time>2019-04-25T09:35:14Z</time>
      </trkpt>
      <trkpt lat="47.67492" lon="7.66985">
        <ele>327</ele>
        <time>2019-04-25T09:35:17Z</time>
      </trkpt>
      <trkpt lat="47.67501" lon="7.6699">
        <ele>328</ele>
        <time>2019-04-25T09:35:24Z</time>
      </trkpt>
      <trkpt lat="47.67506" lon="7.66994">
        <ele>327</ele>
        <time>2019-04-25T09:35:27Z</time>
      </trkpt>
      <trkpt lat="47.67517" lon="7.67001">
        <ele>330</ele>
        <time>2019-04-25T09:35:36Z</time>
      </trkpt>
      <trkpt lat="47.67522" lon="7.67004">
        <ele>333</ele>
        <time>2019-04-25T09:35:39Z</time>
      </trkpt>
      <trkpt lat="47.67538" lon="7.67004">
        <ele>337</ele>
        <time>2019-04-25T09:35:50Z</time>
      </trkpt>
      <trkpt lat="47.67548" lon="7.67012">
        <ele>336</ele>
        <time>2019-04-25T09:35:59Z</time>
      </trkpt>
      <trkpt lat="47.67554" lon="7.67017">
        <ele>334</ele>
        <time>2019-04-25T09:36:06Z</time>
      </trkpt>
      <trkpt lat="47.67563" lon="7.67013">
        <ele>333</ele>
        <time>2019-04-25T09:36:10Z</time>
      </trkpt>
      <trkpt lat="47.6758" lon="7.6701">
        <ele>335</ele>
        <time>2019-04-25T09:36:21Z</time>
      </trkpt>
      <trkpt lat="47.67593" lon="7.67004">
        <ele>333</ele>
        <time>2019-04-25T09:36:32Z</time>
      </trkpt>
      <trkpt lat="47.67598" lon="7.67003">
        <ele>334</ele>
        <time>2019-04-25T09:36:36Z</time>
      </trkpt>
      <trkpt lat="47.67611" lon="7.66998">
        <ele>339</ele>
        <time>2019-04-25T09:36:49Z</time>
      </trkpt>
      <trkpt lat="47.67606" lon="7.66957">
        <ele>335</ele>
        <time>2019-04-25T09:37:15Z</time>
      </trkpt>
      <trkpt lat="47.67601" lon="7.66945">
        <ele>336</ele>
        <time>2019-04-25T09:37:23Z</time>
      </trkpt>
      <trkpt lat="47.67586" lon="7.66917">
        <ele>337</ele>
        <time>2019-04-25T09:37:42Z</time>
      </trkpt>
      <trkpt lat="47.67582" lon="7.66904">
        <ele>339</ele>
        <time>2019-04-25T09:37:50Z</time>
      </trkpt>
      <trkpt lat="47.67581" lon="7.6689">
        <ele>340</ele>
        <time>2019-04-25T09:38:01Z</time>
      </trkpt>
      <trkpt lat="47.6758" lon="7.66882">
        <ele>341</ele>
        <time>2019-04-25T09:38:07Z</time>
      </trkpt>
      <trkpt lat="47.67578" lon="7.66875">
        <ele>343</ele>
        <time>2019-04-25T09:38:11Z</time>
      </trkpt>
      <trkpt lat="47.67573" lon="7.66855">
        <ele>344</ele>
        <time>2019-04-25T09:38:24Z</time>
      </trkpt>
      <trkpt lat="47.67571" lon="7.6684">
        <ele>349</ele>
        <time>2019-04-25T09:38:34Z</time>
      </trkpt>
      <trkpt lat="47.67573" lon="7.66824">
        <ele>349</ele>
        <time>2019-04-25T09:38:42Z</time>
      </trkpt>
      <trkpt lat="47.67577" lon="7.66819">
        <ele>349</ele>
        <time>2019-04-25T09:38:46Z</time>
      </trkpt>
      <trkpt lat="47.67577" lon="7.66812">
        <ele>349</ele>
        <time>2019-04-25T09:38:49Z</time>
      </trkpt>
      <trkpt lat="47.6758" lon="7.66807">
        <ele>349</ele>
        <time>2019-04-25T09:38:53Z</time>
      </trkpt>
      <trkpt lat="47.67581" lon="7.66793">
        <ele>349</ele>
        <time>2019-04-25T09:39:00Z</time>
      </trkpt>
      <trkpt lat="47.67585" lon="7.66779">
        <ele>349</ele>
        <time>2019-04-25T09:39:10Z</time>
      </trkpt>
      <trkpt lat="47.67588" lon="7.66774">
        <ele>349</ele>
        <time>2019-04-25T09:39:15Z</time>
      </trkpt>
      <trkpt lat="47.67589" lon="7.66767">
        <ele>350</ele>
        <time>2019-04-25T09:39:19Z</time>
      </trkpt>
      <trkpt lat="47.67599" lon="7.66746">
        <ele>349</ele>
        <time>2019-04-25T09:39:40Z</time>
      </trkpt>
      <trkpt lat="47.67606" lon="7.66742">
        <ele>349</ele>
        <time>2019-04-25T09:39:44Z</time>
      </trkpt>
      <trkpt lat="47.67608" lon="7.66733">
        <ele>351</ele>
        <time>2019-04-25T09:39:50Z</time>
      </trkpt>
      <trkpt lat="47.6761" lon="7.66706">
        <ele>354</ele>
        <time>2019-04-25T09:40:06Z</time>
      </trkpt>
      <trkpt lat="47.67613" lon="7.667">
        <ele>355</ele>
        <time>2019-04-25T09:40:11Z</time>
      </trkpt>
      <trkpt lat="47.67613" lon="7.66691">
        <ele>356</ele>
        <time>2019-04-25T09:40:14Z</time>
      </trkpt>
      <trkpt lat="47.67614" lon="7.66683">
        <ele>356</ele>
        <time>2019-04-25T09:40:19Z</time>
      </trkpt>
      <trkpt lat="47.67615" lon="7.66676">
        <ele>356</ele>
        <time>2019-04-25T09:40:22Z</time>
      </trkpt>
      <trkpt lat="47.67618" lon="7.66671">
        <ele>356</ele>
        <time>2019-04-25T09:40:26Z</time>
      </trkpt>
      <trkpt lat="47.6762" lon="7.66665">
        <ele>355</ele>
        <time>2019-04-25T09:40:35Z</time>
      </trkpt>
      <trkpt lat="47.67633" lon="7.6667">
        <ele>355</ele>
        <time>2019-04-25T09:40:54Z</time>
      </trkpt>
      <trkpt lat="47.6764" lon="7.66671">
        <ele>352</ele>
        <time>2019-04-25T09:40:57Z</time>
      </trkpt>
      <trkpt lat="47.67645" lon="7.66677">
        <ele>352</ele>
        <time>2019-04-25T09:41:03Z</time>
      </trkpt>
      <trkpt lat="47.6765" lon="7.66679">
        <ele>355</ele>
        <time>2019-04-25T09:41:07Z</time>
      </trkpt>
      <trkpt lat="47.67658" lon="7.66676">
        <ele>356</ele>
        <time>2019-04-25T09:41:09Z</time>
      </trkpt>
      <trkpt lat="47.67662" lon="7.66681">
        <ele>356</ele>
        <time>2019-04-25T09:41:18Z</time>
      </trkpt>
      <trkpt lat="47.67669" lon="7.66682">
        <ele>356</ele>
        <time>2019-04-25T09:41:22Z</time>
      </trkpt>
      <trkpt lat="47.67675" lon="7.66685">
        <ele>355</ele>
        <time>2019-04-25T09:41:26Z</time>
      </trkpt>
      <trkpt lat="47.6768" lon="7.66689">
        <ele>355</ele>
        <time>2019-04-25T09:41:31Z</time>
      </trkpt>
      <trkpt lat="47.67685" lon="7.66694">
        <ele>356</ele>
        <time>2019-04-25T09:41:38Z</time>
      </trkpt>
      <trkpt lat="47.67691" lon="7.66698">
        <ele>356</ele>
        <time>2019-04-25T09:41:42Z</time>
      </trkpt>
      <trkpt lat="47.677" lon="7.667">
        <ele>360</ele>
        <time>2019-04-25T09:41:53Z</time>
      </trkpt>
      <trkpt lat="47.67704" lon="7.66695">
        <ele>358</ele>
        <time>2019-04-25T09:41:59Z</time>
      </trkpt>
      <trkpt lat="47.67706" lon="7.66689">
        <ele>357</ele>
        <time>2019-04-25T09:42:03Z</time>
      </trkpt>
      <trkpt lat="47.67713" lon="7.66678">
        <ele>359</ele>
        <time>2019-04-25T09:42:12Z</time>
      </trkpt>
      <trkpt lat="47.67734" lon="7.66663">
        <ele>362</ele>
        <time>2019-04-25T09:42:30Z</time>
      </trkpt>
      <trkpt lat="47.67739" lon="7.66661">
        <ele>363</ele>
        <time>2019-04-25T09:42:33Z</time>
      </trkpt>
      <trkpt lat="47.67751" lon="7.66651">
        <ele>362</ele>
        <time>2019-04-25T09:42:45Z</time>
      </trkpt>
      <trkpt lat="47.67754" lon="7.66647">
        <ele>361</ele>
        <time>2019-04-25T09:42:48Z</time>
      </trkpt>
      <trkpt lat="47.67765" lon="7.66633">
        <ele>361</ele>
        <time>2019-04-25T09:42:58Z</time>
      </trkpt>
      <trkpt lat="47.67774" lon="7.66629">
        <ele>363</ele>
        <time>2019-04-25T09:43:06Z</time>
      </trkpt>
      <trkpt lat="47.67777" lon="7.66623">
        <ele>365</ele>
        <time>2019-04-25T09:43:10Z</time>
      </trkpt>
      <trkpt lat="47.67779" lon="7.66617">
        <ele>365</ele>
        <time>2019-04-25T09:43:13Z</time>
      </trkpt>
      <trkpt lat="47.67784" lon="7.66607">
        <ele>369</ele>
        <time>2019-04-25T09:43:20Z</time>
      </trkpt>
      <trkpt lat="47.67791" lon="7.66594">
        <ele>370</ele>
        <time>2019-04-25T09:43:29Z</time>
      </trkpt>
      <trkpt lat="47.67796" lon="7.66575">
        <ele>373</ele>
        <time>2019-04-25T09:43:37Z</time>
      </trkpt>
      <trkpt lat="47.67797" lon="7.66567">
        <ele>372</ele>
        <time>2019-04-25T09:43:43Z</time>
      </trkpt>
      <trkpt lat="47.67807" lon="7.66553">
        <ele>372</ele>
        <time>2019-04-25T09:43:53Z</time>
      </trkpt>
      <trkpt lat="47.67811" lon="7.6655">
        <ele>371</ele>
        <time>2019-04-25T09:43:59Z</time>
      </trkpt>
      <trkpt lat="47.67819" lon="7.6654">
        <ele>370</ele>
        <time>2019-04-25T09:44:08Z</time>
      </trkpt>
      <trkpt lat="47.67821" lon="7.66524">
        <ele>369</ele>
        <time>2019-04-25T09:44:16Z</time>
      </trkpt>
      <trkpt lat="47.67826" lon="7.66524">
        <ele>370</ele>
        <time>2019-04-25T09:44:19Z</time>
      </trkpt>
      <trkpt lat="47.67836" lon="7.66479">
        <ele>373</ele>
        <time>2019-04-25T09:44:44Z</time>
      </trkpt>
      <trkpt lat="47.67838" lon="7.6647">
        <ele>373</ele>
        <time>2019-04-25T09:44:51Z</time>
      </trkpt>
      <trkpt lat="47.67842" lon="7.66465">
        <ele>375</ele>
        <time>2019-04-25T09:44:56Z</time>
      </trkpt>
      <trkpt lat="47.67846" lon="7.66458">
        <ele>377</ele>
        <time>2019-04-25T09:45:00Z</time>
      </trkpt>
      <trkpt lat="47.67849" lon="7.66455">
        <ele>377</ele>
        <time>2019-04-25T09:45:05Z</time>
      </trkpt>
      <trkpt lat="47.67858" lon="7.66427">
        <ele>381</ele>
        <time>2019-04-25T09:45:26Z</time>
      </trkpt>
      <trkpt lat="47.67865" lon="7.66418">
        <ele>382</ele>
        <time>2019-04-25T09:45:35Z</time>
      </trkpt>
      <trkpt lat="47.67869" lon="7.66413">
        <ele>382</ele>
        <time>2019-04-25T09:45:40Z</time>
      </trkpt>
      <trkpt lat="47.6788" lon="7.66398">
        <ele>385</ele>
        <time>2019-04-25T09:45:54Z</time>
      </trkpt>
      <trkpt lat="47.67895" lon="7.66383">
        <ele>386</ele>
        <time>2019-04-25T09:46:09Z</time>
      </trkpt>
      <trkpt lat="47.67913" lon="7.66363">
        <ele>384</ele>
        <time>2019-04-25T09:46:27Z</time>
      </trkpt>
      <trkpt lat="47.67918" lon="7.66355">
        <ele>384</ele>
        <time>2019-04-25T09:46:37Z</time>
      </trkpt>
      <trkpt lat="47.67922" lon="7.66342">
        <ele>384</ele>
        <time>2019-04-25T09:46:44Z</time>
      </trkpt>
      <trkpt lat="47.67931" lon="7.66337">
        <ele>385</ele>
        <time>2019-04-25T09:46:51Z</time>
      </trkpt>
      <trkpt lat="47.67936" lon="7.66327">
        <ele>387</ele>
        <time>2019-04-25T09:47:01Z</time>
      </trkpt>
      <trkpt lat="47.67941" lon="7.6632">
        <ele>392</ele>
        <time>2019-04-25T09:47:05Z</time>
      </trkpt>
      <trkpt lat="47.67945" lon="7.66314">
        <ele>393</ele>
        <time>2019-04-25T09:47:08Z</time>
      </trkpt>
      <trkpt lat="47.67954" lon="7.66306">
        <ele>392</ele>
        <time>2019-04-25T09:47:14Z</time>
      </trkpt>
      <trkpt lat="47.67958" lon="7.66294">
        <ele>392</ele>
        <time>2019-04-25T09:47:22Z</time>
      </trkpt>
      <trkpt lat="47.67978" lon="7.66269">
        <ele>393</ele>
        <time>2019-04-25T09:48:05Z</time>
      </trkpt>
      <trkpt lat="47.6801" lon="7.6624">
        <ele>393</ele>
        <time>2019-04-25T09:48:22Z</time>
      </trkpt>
      <trkpt lat="47.68022" lon="7.66225">
        <ele>397</ele>
        <time>2019-04-25T09:48:42Z</time>
      </trkpt>
      <trkpt lat="47.68033" lon="7.6621">
        <ele>401</ele>
        <time>2019-04-25T09:48:52Z</time>
      </trkpt>
      <trkpt lat="47.68048" lon="7.66194">
        <ele>403</ele>
        <time>2019-04-25T09:48:58Z</time>
      </trkpt>
      <trkpt lat="47.68054" lon="7.66177">
        <ele>403</ele>
        <time>2019-04-25T09:49:23Z</time>
      </trkpt>
      <trkpt lat="47.68064" lon="7.66166">
        <ele>405</ele>
        <time>2019-04-25T09:49:34Z</time>
      </trkpt>
      <trkpt lat="47.68086" lon="7.66168">
        <ele>410</ele>
        <time>2019-04-25T09:50:19Z</time>
      </trkpt>
      <trkpt lat="47.68095" lon="7.66169">
        <ele>410</ele>
        <time>2019-04-25T09:50:25Z</time>
      </trkpt>
      <trkpt lat="47.6811" lon="7.66167">
        <ele>410</ele>
        <time>2019-04-25T09:50:41Z</time>
      </trkpt>
      <trkpt lat="47.68115" lon="7.66168">
        <ele>409</ele>
        <time>2019-04-25T09:50:44Z</time>
      </trkpt>
      <trkpt lat="47.68121" lon="7.6617">
        <ele>407</ele>
        <time>2019-04-25T09:50:47Z</time>
      </trkpt>
      <trkpt lat="47.68125" lon="7.66165">
        <ele>404</ele>
        <time>2019-04-25T09:50:56Z</time>
      </trkpt>
      <trkpt lat="47.68132" lon="7.66165">
        <ele>406</ele>
        <time>2019-04-25T09:51:01Z</time>
      </trkpt>
      <trkpt lat="47.68141" lon="7.66158">
        <ele>406</ele>
        <time>2019-04-25T09:51:07Z</time>
      </trkpt>
      <trkpt lat="47.68147" lon="7.66156">
        <ele>402</ele>
        <time>2019-04-25T09:51:09Z</time>
      </trkpt>
      <trkpt lat="47.68154" lon="7.66149">
        <ele>400</ele>
        <time>2019-04-25T09:51:14Z</time>
      </trkpt>
      <trkpt lat="47.68162" lon="7.66147">
        <ele>400</ele>
        <time>2019-04-25T09:51:22Z</time>
      </trkpt>
      <trkpt lat="47.68172" lon="7.66141">
        <ele>407</ele>
        <time>2019-04-25T09:51:31Z</time>
      </trkpt>
      <trkpt lat="47.68176" lon="7.66143">
        <ele>411</ele>
        <time>2019-04-25T09:51:34Z</time>
      </trkpt>
      <trkpt lat="47.68181" lon="7.66147">
        <ele>411</ele>
        <time>2019-04-25T09:51:37Z</time>
      </trkpt>
      <trkpt lat="47.68196" lon="7.66125">
        <ele>409</ele>
        <time>2019-04-25T09:51:53Z</time>
      </trkpt>
      <trkpt lat="47.68205" lon="7.66132">
        <ele>409</ele>
        <time>2019-04-25T09:51:57Z</time>
      </trkpt>
      <trkpt lat="47.68209" lon="7.66132">
        <ele>408</ele>
        <time>2019-04-25T09:52:02Z</time>
      </trkpt>
      <trkpt lat="47.68214" lon="7.66135">
        <ele>406</ele>
        <time>2019-04-25T09:52:05Z</time>
      </trkpt>
      <trkpt lat="47.68219" lon="7.66137">
        <ele>409</ele>
        <time>2019-04-25T09:52:09Z</time>
      </trkpt>
      <trkpt lat="47.68229" lon="7.66141">
        <ele>413</ele>
        <time>2019-04-25T09:52:17Z</time>
      </trkpt>
      <trkpt lat="47.68237" lon="7.66154">
        <ele>420</ele>
        <time>2019-04-25T09:52:27Z</time>
      </trkpt>
      <trkpt lat="47.68243" lon="7.66157">
        <ele>420</ele>
        <time>2019-04-25T09:52:31Z</time>
      </trkpt>
      <trkpt lat="47.68285" lon="7.6616">
        <ele>420</ele>
        <time>2019-04-25T09:53:04Z</time>
      </trkpt>
      <trkpt lat="47.68302" lon="7.6616">
        <ele>421</ele>
        <time>2019-04-25T09:53:14Z</time>
      </trkpt>
      <trkpt lat="47.68306" lon="7.66156">
        <ele>420</ele>
        <time>2019-04-25T09:53:17Z</time>
      </trkpt>
      <trkpt lat="47.68316" lon="7.66163">
        <ele>421</ele>
        <time>2019-04-25T09:53:27Z</time>
      </trkpt>
      <trkpt lat="47.68321" lon="7.66165">
        <ele>421</ele>
        <time>2019-04-25T09:53:31Z</time>
      </trkpt>
      <trkpt lat="47.68331" lon="7.66163">
        <ele>422</ele>
        <time>2019-04-25T09:53:41Z</time>
      </trkpt>
      <trkpt lat="47.68336" lon="7.66164">
        <ele>423</ele>
        <time>2019-04-25T09:53:47Z</time>
      </trkpt>
      <trkpt lat="47.68346" lon="7.66167">
        <ele>427</ele>
        <time>2019-04-25T09:53:54Z</time>
      </trkpt>
      <trkpt lat="47.68352" lon="7.66167">
        <ele>428</ele>
        <time>2019-04-25T09:53:58Z</time>
      </trkpt>
      <trkpt lat="47.68357" lon="7.66169">
        <ele>429</ele>
        <time>2019-04-25T09:54:02Z</time>
      </trkpt>
      <trkpt lat="47.68362" lon="7.66166">
        <ele>431</ele>
        <time>2019-04-25T09:54:06Z</time>
      </trkpt>
      <trkpt lat="47.6837" lon="7.66166">
        <ele>431</ele>
        <time>2019-04-25T09:54:12Z</time>
      </trkpt>
      <trkpt lat="47.6838" lon="7.66165">
        <ele>433</ele>
        <time>2019-04-25T09:54:19Z</time>
      </trkpt>
      <trkpt lat="47.68386" lon="7.66167">
        <ele>435</ele>
        <time>2019-04-25T09:54:23Z</time>
      </trkpt>
      <trkpt lat="47.68396" lon="7.66165">
        <ele>433</ele>
        <time>2019-04-25T09:54:33Z</time>
      </trkpt>
      <trkpt lat="47.68432" lon="7.66173">
        <ele>429</ele>
        <time>2019-04-25T09:55:06Z</time>
      </trkpt>
      <trkpt lat="47.68438" lon="7.66174">
        <ele>429</ele>
        <time>2019-04-25T09:55:11Z</time>
      </trkpt>
      <trkpt lat="47.68443" lon="7.66173">
        <ele>430</ele>
        <time>2019-04-25T09:55:17Z</time>
      </trkpt>
      <trkpt lat="47.6845" lon="7.66172">
        <ele>436</ele>
        <time>2019-04-25T09:56:16Z</time>
      </trkpt>
      <trkpt lat="47.68455" lon="7.66171">
        <ele>431</ele>
        <time>2019-04-25T09:56:20Z</time>
      </trkpt>
      <trkpt lat="47.6846" lon="7.66174">
        <ele>432</ele>
        <time>2019-04-25T09:56:24Z</time>
      </trkpt>
      <trkpt lat="47.68464" lon="7.66172">
        <ele>432</ele>
        <time>2019-04-25T09:56:26Z</time>
      </trkpt>
      <trkpt lat="47.68493" lon="7.66176">
        <ele>436</ele>
        <time>2019-04-25T09:56:52Z</time>
      </trkpt>
      <trkpt lat="47.68497" lon="7.66173">
        <ele>441</ele>
        <time>2019-04-25T09:56:57Z</time>
      </trkpt>
      <trkpt lat="47.68502" lon="7.66172">
        <ele>444</ele>
        <time>2019-04-25T09:57:02Z</time>
      </trkpt>
      <trkpt lat="47.68512" lon="7.66176">
        <ele>444</ele>
        <time>2019-04-25T09:57:10Z</time>
      </trkpt>
      <trkpt lat="47.68517" lon="7.6618">
        <ele>442</ele>
        <time>2019-04-25T09:57:13Z</time>
      </trkpt>
      <trkpt lat="47.68523" lon="7.66182">
        <ele>441</ele>
        <time>2019-04-25T09:57:19Z</time>
      </trkpt>
      <trkpt lat="47.68528" lon="7.66188">
        <ele>437</ele>
        <time>2019-04-25T09:57:27Z</time>
      </trkpt>
      <trkpt lat="47.68536" lon="7.66187">
        <ele>436</ele>
        <time>2019-04-25T09:57:31Z</time>
      </trkpt>
      <trkpt lat="47.68542" lon="7.66189">
        <ele>438</ele>
        <time>2019-04-25T09:57:35Z</time>
      </trkpt>
      <trkpt lat="47.68548" lon="7.66192">
        <ele>438</ele>
        <time>2019-04-25T09:57:40Z</time>
      </trkpt>
      <trkpt lat="47.68555" lon="7.6619">
        <ele>436</ele>
        <time>2019-04-25T09:57:49Z</time>
      </trkpt>
      <trkpt lat="47.68559" lon="7.66197">
        <ele>436</ele>
        <time>2019-04-25T09:58:00Z</time>
      </trkpt>
      <trkpt lat="47.68565" lon="7.662">
        <ele>436</ele>
        <time>2019-04-25T09:58:06Z</time>
      </trkpt>
      <trkpt lat="47.68576" lon="7.66203">
        <ele>436</ele>
        <time>2019-04-25T09:58:15Z</time>
      </trkpt>
      <trkpt lat="47.68582" lon="7.66208">
        <ele>436</ele>
        <time>2019-04-25T09:58:22Z</time>
      </trkpt>
      <trkpt lat="47.68588" lon="7.66208">
        <ele>435</ele>
        <time>2019-04-25T09:58:31Z</time>
      </trkpt>
      <trkpt lat="47.68595" lon="7.66217">
        <ele>435</ele>
        <time>2019-04-25T09:58:39Z</time>
      </trkpt>
      <trkpt lat="47.68603" lon="7.66215">
        <ele>440</ele>
        <time>2019-04-25T09:58:46Z</time>
      </trkpt>
      <trkpt lat="47.68604" lon="7.66225">
        <ele>443</ele>
        <time>2019-04-25T09:58:59Z</time>
      </trkpt>
      <trkpt lat="47.6861" lon="7.66239">
        <ele>445</ele>
        <time>2019-04-25T09:59:09Z</time>
      </trkpt>
      <trkpt lat="47.68617" lon="7.66235">
        <ele>452</ele>
        <time>2019-04-25T09:59:15Z</time>
      </trkpt>
      <trkpt lat="47.68633" lon="7.6623">
        <ele>455</ele>
        <time>2019-04-25T09:59:26Z</time>
      </trkpt>
      <trkpt lat="47.6864" lon="7.66229">
        <ele>454</ele>
        <time>2019-04-25T09:59:31Z</time>
      </trkpt>
      <trkpt lat="47.68649" lon="7.66235">
        <ele>454</ele>
        <time>2019-04-25T09:59:38Z</time>
      </trkpt>
      <trkpt lat="47.68672" lon="7.66232">
        <ele>452</ele>
        <time>2019-04-25T09:59:59Z</time>
      </trkpt>
      <trkpt lat="47.6868" lon="7.66238">
        <ele>452</ele>
        <time>2019-04-25T10:00:08Z</time>
      </trkpt>
      <trkpt lat="47.68687" lon="7.66237">
        <ele>456</ele>
        <time>2019-04-25T10:00:15Z</time>
      </trkpt>
      <trkpt lat="47.68693" lon="7.6624">
        <ele>455</ele>
        <time>2019-04-25T10:00:20Z</time>
      </trkpt>
      <trkpt lat="47.68698" lon="7.66244">
        <ele>453</ele>
        <time>2019-04-25T10:00:24Z</time>
      </trkpt>
      <trkpt lat="47.68704" lon="7.66245">
        <ele>452</ele>
        <time>2019-04-25T10:00:27Z</time>
      </trkpt>
      <trkpt lat="47.68712" lon="7.66247">
        <ele>450</ele>
        <time>2019-04-25T10:00:33Z</time>
      </trkpt>
      <trkpt lat="47.68719" lon="7.66246">
        <ele>451</ele>
        <time>2019-04-25T10:00:38Z</time>
      </trkpt>
      <trkpt lat="47.6873" lon="7.66249">
        <ele>453</ele>
        <time>2019-04-25T10:00:45Z</time>
      </trkpt>
      <trkpt lat="47.68735" lon="7.66253">
        <ele>453</ele>
        <time>2019-04-25T10:00:50Z</time>
      </trkpt>
      <trkpt lat="47.68745" lon="7.66249">
        <ele>455</ele>
        <time>2019-04-25T10:01:00Z</time>
      </trkpt>
      <trkpt lat="47.68751" lon="7.66252">
        <ele>455</ele>
        <time>2019-04-25T10:01:04Z</time>
      </trkpt>
      <trkpt lat="47.6876" lon="7.66258">
        <ele>458</ele>
        <time>2019-04-25T10:01:11Z</time>
      </trkpt>
      <trkpt lat="47.68768" lon="7.6626">
        <ele>462</ele>
        <time>2019-04-25T10:01:17Z</time>
      </trkpt>
      <trkpt lat="47.68776" lon="7.6626">
        <ele>462</ele>
        <time>2019-04-25T10:01:21Z</time>
      </trkpt>
      <trkpt lat="47.68791" lon="7.66261">
        <ele>462</ele>
        <time>2019-04-25T10:01:33Z</time>
      </trkpt>
      <trkpt lat="47.68797" lon="7.6626">
        <ele>462</ele>
        <time>2019-04-25T10:01:37Z</time>
      </trkpt>
      <trkpt lat="47.68803" lon="7.66263">
        <ele>464</ele>
        <time>2019-04-25T10:01:44Z</time>
      </trkpt>
      <trkpt lat="47.68808" lon="7.66262">
        <ele>465</ele>
        <time>2019-04-25T10:01:48Z</time>
      </trkpt>
      <trkpt lat="47.68814" lon="7.66264">
        <ele>465</ele>
        <time>2019-04-25T10:01:51Z</time>
      </trkpt>
      <trkpt lat="47.6882" lon="7.66263">
        <ele>464</ele>
        <time>2019-04-25T10:01:57Z</time>
      </trkpt>
      <trkpt lat="47.68828" lon="7.66258">
        <ele>461</ele>
        <time>2019-04-25T10:02:01Z</time>
      </trkpt>
      <trkpt lat="47.68839" lon="7.66258">
        <ele>461</ele>
        <time>2019-04-25T10:02:14Z</time>
      </trkpt>
      <trkpt lat="47.68861" lon="7.66248">
        <ele>465</ele>
        <time>2019-04-25T10:02:31Z</time>
      </trkpt>
      <trkpt lat="47.68868" lon="7.66244">
        <ele>465</ele>
        <time>2019-04-25T10:02:37Z</time>
      </trkpt>
      <trkpt lat="47.68876" lon="7.66246">
        <ele>465</ele>
        <time>2019-04-25T10:02:41Z</time>
      </trkpt>
      <trkpt lat="47.68884" lon="7.66242">
        <ele>464</ele>
        <time>2019-04-25T10:02:46Z</time>
      </trkpt>
      <trkpt lat="47.6889" lon="7.66235">
        <ele>463</ele>
        <time>2019-04-25T10:02:54Z</time>
      </trkpt>
      <trkpt lat="47.68899" lon="7.66233">
        <ele>465</ele>
        <time>2019-04-25T10:03:01Z</time>
      </trkpt>
      <trkpt lat="47.68902" lon="7.66226">
        <ele>466</ele>
        <time>2019-04-25T10:03:04Z</time>
      </trkpt>
      <trkpt lat="47.68909" lon="7.66223">
        <ele>469</ele>
        <time>2019-04-25T10:03:07Z</time>
      </trkpt>
      <trkpt lat="47.68916" lon="7.66224">
        <ele>468</ele>
        <time>2019-04-25T10:03:13Z</time>
      </trkpt>
      <trkpt lat="47.68919" lon="7.66214">
        <ele>467</ele>
        <time>2019-04-25T10:03:18Z</time>
      </trkpt>
      <trkpt lat="47.68924" lon="7.66209">
        <ele>468</ele>
        <time>2019-04-25T10:03:23Z</time>
      </trkpt>
      <trkpt lat="47.68931" lon="7.66209">
        <ele>469</ele>
        <time>2019-04-25T10:03:28Z</time>
      </trkpt>
      <trkpt lat="47.68941" lon="7.66205">
        <ele>466</ele>
        <time>2019-04-25T10:03:35Z</time>
      </trkpt>
      <trkpt lat="47.68945" lon="7.66192">
        <ele>467</ele>
        <time>2019-04-25T10:03:42Z</time>
      </trkpt>
      <trkpt lat="47.68972" lon="7.66185">
        <ele>468</ele>
        <time>2019-04-25T10:03:59Z</time>
      </trkpt>
      <trkpt lat="47.68982" lon="7.66175">
        <ele>471</ele>
        <time>2019-04-25T10:04:08Z</time>
      </trkpt>
      <trkpt lat="47.68992" lon="7.66166">
        <ele>468</ele>
        <time>2019-04-25T10:04:17Z</time>
      </trkpt>
      <trkpt lat="47.68997" lon="7.66156">
        <ele>468</ele>
        <time>2019-04-25T10:04:24Z</time>
      </trkpt>
      <trkpt lat="47.69035" lon="7.66116">
        <ele>464</ele>
        <time>2019-04-25T10:04:56Z</time>
      </trkpt>
      <trkpt lat="47.6904" lon="7.66096">
        <ele>477</ele>
        <time>2019-04-25T10:05:10Z</time>
      </trkpt>
      <trkpt lat="47.69064" lon="7.66052">
        <ele>476</ele>
        <time>2019-04-25T10:05:38Z</time>
      </trkpt>
      <trkpt lat="47.69069" lon="7.66034">
        <ele>476</ele>
        <time>2019-04-25T10:05:49Z</time>
      </trkpt>
      <trkpt lat="47.69109" lon="7.6601">
        <ele>476</ele>
        <time>2019-04-25T10:06:20Z</time>
      </trkpt>
      <trkpt lat="47.69114" lon="7.66004">
        <ele>476</ele>
        <time>2019-04-25T10:06:24Z</time>
      </trkpt>
      <trkpt lat="47.69123" lon="7.66002">
        <ele>477</ele>
        <time>2019-04-25T10:06:30Z</time>
      </trkpt>
      <trkpt lat="47.69138" lon="7.65986">
        <ele>480</ele>
        <time>2019-04-25T10:06:44Z</time>
      </trkpt>
      <trkpt lat="47.69165" lon="7.65972">
        <ele>479</ele>
        <time>2019-04-25T10:07:03Z</time>
      </trkpt>
      <trkpt lat="47.69173" lon="7.65975">
        <ele>478</ele>
        <time>2019-04-25T10:07:08Z</time>
      </trkpt>
      <trkpt lat="47.69184" lon="7.65975">
        <ele>475</ele>
        <time>2019-04-25T10:07:15Z</time>
      </trkpt>
      <trkpt lat="47.69196" lon="7.65981">
        <ele>468</ele>
        <time>2019-04-25T10:07:24Z</time>
      </trkpt>
      <trkpt lat="47.69207" lon="7.65976">
        <ele>467</ele>
        <time>2019-04-25T10:07:30Z</time>
      </trkpt>
      <trkpt lat="47.69216" lon="7.65977">
        <ele>465</ele>
        <time>2019-04-25T10:07:36Z</time>
      </trkpt>
      <trkpt lat="47.69231" lon="7.6599">
        <ele>464</ele>
        <time>2019-04-25T10:07:50Z</time>
      </trkpt>
      <trkpt lat="47.69254" lon="7.66013">
        <ele>467</ele>
        <time>2019-04-25T10:08:14Z</time>
      </trkpt>
      <trkpt lat="47.6927" lon="7.6602">
        <ele>465</ele>
        <time>2019-04-25T10:08:22Z</time>
      </trkpt>
      <trkpt lat="47.6927" lon="7.66037">
        <ele>465</ele>
        <time>2019-04-25T10:08:29Z</time>
      </trkpt>
      <trkpt lat="47.69282" lon="7.66047">
        <ele>469</ele>
        <time>2019-04-25T10:08:39Z</time>
      </trkpt>
      <trkpt lat="47.69293" lon="7.66055">
        <ele>471</ele>
        <time>2019-04-25T10:08:46Z</time>
      </trkpt>
      <trkpt lat="47.693" lon="7.66059">
        <ele>472</ele>
        <time>2019-04-25T10:08:52Z</time>
      </trkpt>
      <trkpt lat="47.69306" lon="7.66062">
        <ele>473</ele>
        <time>2019-04-25T10:08:56Z</time>
      </trkpt>
      <trkpt lat="47.69316" lon="7.66062">
        <ele>472</ele>
        <time>2019-04-25T10:09:03Z</time>
      </trkpt>
      <trkpt lat="47.69324" lon="7.66063">
        <ele>470</ele>
        <time>2019-04-25T10:09:08Z</time>
      </trkpt>
      <trkpt lat="47.69336" lon="7.66069">
        <ele>472</ele>
        <time>2019-04-25T10:09:58Z</time>
      </trkpt>
      <trkpt lat="47.69341" lon="7.66074">
        <ele>469</ele>
        <time>2019-04-25T10:10:02Z</time>
      </trkpt>
      <trkpt lat="47.69347" lon="7.66073">
        <ele>469</ele>
        <time>2019-04-25T10:10:05Z</time>
      </trkpt>
      <trkpt lat="47.69351" lon="7.66075">
        <ele>471</ele>
        <time>2019-04-25T10:10:08Z</time>
      </trkpt>
      <trkpt lat="47.69356" lon="7.66075">
        <ele>472</ele>
        <time>2019-04-25T10:10:11Z</time>
      </trkpt>
      <trkpt lat="47.69359" lon="7.6608">
        <ele>471</ele>
        <time>2019-04-25T10:10:16Z</time>
      </trkpt>
      <trkpt lat="47.69382" lon="7.66086">
        <ele>470</ele>
        <time>2019-04-25T10:10:33Z</time>
      </trkpt>
      <trkpt lat="47.69416" lon="7.66093">
        <ele>470</ele>
        <time>2019-04-25T10:10:59Z</time>
      </trkpt>
      <trkpt lat="47.69421" lon="7.66095">
        <ele>471</ele>
        <time>2019-04-25T10:11:02Z</time>
      </trkpt>
      <trkpt lat="47.69426" lon="7.66101">
        <ele>471</ele>
        <time>2019-04-25T10:11:16Z</time>
      </trkpt>
      <trkpt lat="47.69434" lon="7.66103">
        <ele>472</ele>
        <time>2019-04-25T10:11:21Z</time>
      </trkpt>
      <trkpt lat="47.69452" lon="7.66111">
        <ele>473</ele>
        <time>2019-04-25T10:12:37Z</time>
      </trkpt>
      <trkpt lat="47.69461" lon="7.66114">
        <ele>476</ele>
        <time>2019-04-25T10:12:44Z</time>
      </trkpt>
      <trkpt lat="47.69472" lon="7.66117">
        <ele>478</ele>
        <time>2019-04-25T10:12:54Z</time>
      </trkpt>
      <trkpt lat="47.69478" lon="7.66113">
        <ele>481</ele>
        <time>2019-04-25T10:13:01Z</time>
      </trkpt>
      <trkpt lat="47.6949" lon="7.66104">
        <ele>484</ele>
        <time>2019-04-25T10:13:09Z</time>
      </trkpt>
      <trkpt lat="47.69497" lon="7.66105">
        <ele>483</ele>
        <time>2019-04-25T10:13:14Z</time>
      </trkpt>
      <trkpt lat="47.69505" lon="7.66105">
        <ele>482</ele>
        <time>2019-04-25T10:13:19Z</time>
      </trkpt>
      <trkpt lat="47.69512" lon="7.66103">
        <ele>481</ele>
        <time>2019-04-25T10:13:23Z</time>
      </trkpt>
      <trkpt lat="47.69518" lon="7.661">
        <ele>478</ele>
        <time>2019-04-25T10:13:28Z</time>
      </trkpt>
      <trkpt lat="47.69523" lon="7.66097">
        <ele>478</ele>
        <time>2019-04-25T10:13:33Z</time>
      </trkpt>
      <trkpt lat="47.6953" lon="7.6609">
        <ele>478</ele>
        <time>2019-04-25T10:13:39Z</time>
      </trkpt>
      <trkpt lat="47.69539" lon="7.66087">
        <ele>478</ele>
        <time>2019-04-25T10:13:45Z</time>
      </trkpt>
      <trkpt lat="47.69543" lon="7.66076">
        <ele>477</ele>
        <time>2019-04-25T10:13:50Z</time>
      </trkpt>
      <trkpt lat="47.69548" lon="7.6607">
        <ele>478</ele>
        <time>2019-04-25T10:13:54Z</time>
      </trkpt>
      <trkpt lat="47.69551" lon="7.66058">
        <ele>481</ele>
        <time>2019-04-25T10:14:01Z</time>
      </trkpt>
      <trkpt lat="47.69558" lon="7.66051">
        <ele>481</ele>
        <time>2019-04-25T10:14:07Z</time>
      </trkpt>
      <trkpt lat="47.69565" lon="7.66045">
        <ele>482</ele>
        <time>2019-04-25T10:14:12Z</time>
      </trkpt>
      <trkpt lat="47.69572" lon="7.6604">
        <ele>480</ele>
        <time>2019-04-25T10:14:17Z</time>
      </trkpt>
      <trkpt lat="47.69577" lon="7.66033">
        <ele>480</ele>
        <time>2019-04-25T10:14:23Z</time>
      </trkpt>
      <trkpt lat="47.69617" lon="7.65991">
        <ele>481</ele>
        <time>2019-04-25T10:14:57Z</time>
      </trkpt>
      <trkpt lat="47.69623" lon="7.65992">
        <ele>476</ele>
        <time>2019-04-25T10:15:00Z</time>
      </trkpt>
      <trkpt lat="47.69629" lon="7.6599">
        <ele>478</ele>
        <time>2019-04-25T10:15:04Z</time>
      </trkpt>
      <trkpt lat="47.69632" lon="7.65986">
        <ele>481</ele>
        <time>2019-04-25T10:15:06Z</time>
      </trkpt>
      <trkpt lat="47.69636" lon="7.65982">
        <ele>485</ele>
        <time>2019-04-25T10:15:10Z</time>
      </trkpt>
      <trkpt lat="47.69644" lon="7.65981">
        <ele>485</ele>
        <time>2019-04-25T10:15:19Z</time>
      </trkpt>
      <trkpt lat="47.69651" lon="7.65972">
        <ele>481</ele>
        <time>2019-04-25T10:15:31Z</time>
      </trkpt>
      <trkpt lat="47.69655" lon="7.6597">
        <ele>480</ele>
        <time>2019-04-25T10:15:34Z</time>
      </trkpt>
      <trkpt lat="47.69664" lon="7.65966">
        <ele>481</ele>
        <time>2019-04-25T10:15:41Z</time>
      </trkpt>
      <trkpt lat="47.69668" lon="7.65961">
        <ele>482</ele>
        <time>2019-04-25T10:15:45Z</time>
      </trkpt>
      <trkpt lat="47.69671" lon="7.65957">
        <ele>484</ele>
        <time>2019-04-25T10:15:49Z</time>
      </trkpt>
      <trkpt lat="47.69675" lon="7.65955">
        <ele>485</ele>
        <time>2019-04-25T10:15:52Z</time>
      </trkpt>
      <trkpt lat="47.6968" lon="7.65954">
        <ele>485</ele>
        <time>2019-04-25T10:15:55Z</time>
      </trkpt>
      <trkpt lat="47.69704" lon="7.65944">
        <ele>485</ele>
        <time>2019-04-25T10:16:13Z</time>
      </trkpt>
      <trkpt lat="47.69714" lon="7.65943">
        <ele>485</ele>
        <time>2019-04-25T10:16:20Z</time>
      </trkpt>
      <trkpt lat="47.69718" lon="7.65938">
        <ele>485</ele>
        <time>2019-04-25T10:16:23Z</time>
      </trkpt>
      <trkpt lat="47.69723" lon="7.65939">
        <ele>485</ele>
        <time>2019-04-25T10:16:26Z</time>
      </trkpt>
      <trkpt lat="47.69729" lon="7.65944">
        <ele>485</ele>
        <time>2019-04-25T10:16:32Z</time>
      </trkpt>
      <trkpt lat="47.69735" lon="7.65944">
        <ele>484</ele>
        <time>2019-04-25T10:16:37Z</time>
      </trkpt>
      <trkpt lat="47.69742" lon="7.65943">
        <ele>485</ele>
        <time>2019-04-25T10:16:43Z</time>
      </trkpt>
      <trkpt lat="47.69747" lon="7.65943">
        <ele>483</ele>
        <time>2019-04-25T10:16:46Z</time>
      </trkpt>
      <trkpt lat="47.69754" lon="7.65941">
        <ele>483</ele>
        <time>2019-04-25T10:16:51Z</time>
      </trkpt>
      <trkpt lat="47.69765" lon="7.65944">
        <ele>486</ele>
        <time>2019-04-25T10:17:00Z</time>
      </trkpt>
      <trkpt lat="47.6979" lon="7.65947">
        <ele>488</ele>
        <time>2019-04-25T10:17:21Z</time>
      </trkpt>
      <trkpt lat="47.69797" lon="7.65954">
        <ele>487</ele>
        <time>2019-04-25T10:17:23Z</time>
      </trkpt>
      <trkpt lat="47.69804" lon="7.65949">
        <ele>483</ele>
        <time>2019-04-25T10:17:30Z</time>
      </trkpt>
      <trkpt lat="47.69811" lon="7.65947">
        <ele>483</ele>
        <time>2019-04-25T10:17:35Z</time>
      </trkpt>
      <trkpt lat="47.69821" lon="7.65951">
        <ele>479</ele>
        <time>2019-04-25T10:17:40Z</time>
      </trkpt>
      <trkpt lat="47.69827" lon="7.65957">
        <ele>474</ele>
        <time>2019-04-25T10:17:45Z</time>
      </trkpt>
      <trkpt lat="47.69836" lon="7.65955">
        <ele>471</ele>
        <time>2019-04-25T10:17:50Z</time>
      </trkpt>
      <trkpt lat="47.69843" lon="7.65957">
        <ele>470</ele>
        <time>2019-04-25T10:17:56Z</time>
      </trkpt>
      <trkpt lat="47.69853" lon="7.65956">
        <ele>472</ele>
        <time>2019-04-25T10:18:05Z</time>
      </trkpt>
      <trkpt lat="47.69862" lon="7.65969">
        <ele>472</ele>
        <time>2019-04-25T10:18:15Z</time>
      </trkpt>
      <trkpt lat="47.69874" lon="7.65967">
        <ele>473</ele>
        <time>2019-04-25T10:18:20Z</time>
      </trkpt>
      <trkpt lat="47.69879" lon="7.65976">
        <ele>473</ele>
        <time>2019-04-25T10:18:27Z</time>
      </trkpt>
      <trkpt lat="47.6989" lon="7.66003">
        <ele>471</ele>
        <time>2019-04-25T10:18:43Z</time>
      </trkpt>
      <trkpt lat="47.69891" lon="7.66017">
        <ele>470</ele>
        <time>2019-04-25T10:18:50Z</time>
      </trkpt>
      <trkpt lat="47.69901" lon="7.66053">
        <ele>470</ele>
        <time>2019-04-25T10:19:08Z</time>
      </trkpt>
      <trkpt lat="47.69904" lon="7.66067">
        <ele>471</ele>
        <time>2019-04-25T10:19:16Z</time>
      </trkpt>
      <trkpt lat="47.69903" lon="7.66081">
        <ele>473</ele>
        <time>2019-04-25T10:19:22Z</time>
      </trkpt>
      <trkpt lat="47.699" lon="7.66165">
        <ele>470</ele>
        <time>2019-04-25T10:19:59Z</time>
      </trkpt>
      <trkpt lat="47.69911" lon="7.66178">
        <ele>474</ele>
        <time>2019-04-25T10:20:07Z</time>
      </trkpt>
      <trkpt lat="47.69908" lon="7.66191">
        <ele>480</ele>
        <time>2019-04-25T10:20:14Z</time>
      </trkpt>
      <trkpt lat="47.69911" lon="7.66205">
        <ele>485</ele>
        <time>2019-04-25T10:20:22Z</time>
      </trkpt>
      <trkpt lat="47.69912" lon="7.66235">
        <ele>490</ele>
        <time>2019-04-25T10:20:37Z</time>
      </trkpt>
      <trkpt lat="47.69917" lon="7.66256">
        <ele>492</ele>
        <time>2019-04-25T10:20:46Z</time>
      </trkpt>
      <trkpt lat="47.69927" lon="7.66318">
        <ele>490</ele>
        <time>2019-04-25T10:21:19Z</time>
      </trkpt>
      <trkpt lat="47.69938" lon="7.6635">
        <ele>485</ele>
        <time>2019-04-25T10:21:37Z</time>
      </trkpt>
      <trkpt lat="47.69942" lon="7.66359">
        <ele>487</ele>
        <time>2019-04-25T10:21:42Z</time>
      </trkpt>
      <trkpt lat="47.69947" lon="7.66371">
        <ele>490</ele>
        <time>2019-04-25T10:21:48Z</time>
      </trkpt>
      <trkpt lat="47.69957" lon="7.66389">
        <ele>491</ele>
        <time>2019-04-25T10:21:58Z</time>
      </trkpt>
      <trkpt lat="47.69959" lon="7.664">
        <ele>492</ele>
        <time>2019-04-25T10:22:04Z</time>
      </trkpt>
      <trkpt lat="47.69964" lon="7.66409">
        <ele>491</ele>
        <time>2019-04-25T10:22:10Z</time>
      </trkpt>
      <trkpt lat="47.69977" lon="7.66434">
        <ele>496</ele>
        <time>2019-04-25T10:22:50Z</time>
      </trkpt>
      <trkpt lat="47.69987" lon="7.66443">
        <ele>498</ele>
        <time>2019-04-25T10:22:59Z</time>
      </trkpt>
      <trkpt lat="47.69998" lon="7.66454">
        <ele>498</ele>
        <time>2019-04-25T10:23:07Z</time>
      </trkpt>
      <trkpt lat="47.69999" lon="7.66468">
        <ele>495</ele>
        <time>2019-04-25T10:23:15Z</time>
      </trkpt>
      <trkpt lat="47.70007" lon="7.6648">
        <ele>496</ele>
        <time>2019-04-25T10:23:25Z</time>
      </trkpt>
      <trkpt lat="47.70014" lon="7.66484">
        <ele>498</ele>
        <time>2019-04-25T10:23:34Z</time>
      </trkpt>
      <trkpt lat="47.70021" lon="7.66488">
        <ele>495</ele>
        <time>2019-04-25T10:23:39Z</time>
      </trkpt>
      <trkpt lat="47.70027" lon="7.66491">
        <ele>494</ele>
        <time>2019-04-25T10:23:44Z</time>
      </trkpt>
      <trkpt lat="47.70035" lon="7.665">
        <ele>490</ele>
        <time>2019-04-25T10:23:53Z</time>
      </trkpt>
      <trkpt lat="47.70044" lon="7.66499">
        <ele>488</ele>
        <time>2019-04-25T10:23:59Z</time>
      </trkpt>
      <trkpt lat="47.70052" lon="7.66495">
        <ele>489</ele>
        <time>2019-04-25T10:24:09Z</time>
      </trkpt>
      <trkpt lat="47.70116" lon="7.66471">
        <ele>489</ele>
        <time>2019-04-25T10:25:00Z</time>
      </trkpt>
      <trkpt lat="47.70124" lon="7.6647">
        <ele>488</ele>
        <time>2019-04-25T10:25:16Z</time>
      </trkpt>
      <trkpt lat="47.7014" lon="7.66448">
        <ele>488</ele>
        <time>2019-04-25T10:25:35Z</time>
      </trkpt>
      <trkpt lat="47.70148" lon="7.66437">
        <ele>488</ele>
        <time>2019-04-25T10:25:48Z</time>
      </trkpt>
      <trkpt lat="47.70161" lon="7.66425">
        <ele>485</ele>
        <time>2019-04-25T10:25:59Z</time>
      </trkpt>
      <trkpt lat="47.70185" lon="7.66396">
        <ele>485</ele>
        <time>2019-04-25T10:26:29Z</time>
      </trkpt>
      <trkpt lat="47.7019" lon="7.6639">
        <ele>483</ele>
        <time>2019-04-25T10:26:34Z</time>
      </trkpt>
      <trkpt lat="47.70194" lon="7.66379">
        <ele>481</ele>
        <time>2019-04-25T10:26:40Z</time>
      </trkpt>
      <trkpt lat="47.702" lon="7.66362">
        <ele>479</ele>
        <time>2019-04-25T10:26:50Z</time>
      </trkpt>
      <trkpt lat="47.70201" lon="7.66354">
        <ele>479</ele>
        <time>2019-04-25T10:26:54Z</time>
      </trkpt>
      <trkpt lat="47.70212" lon="7.66336">
        <ele>476</ele>
        <time>2019-04-25T10:27:11Z</time>
      </trkpt>
      <trkpt lat="47.70214" lon="7.66328">
        <ele>476</ele>
        <time>2019-04-25T10:27:16Z</time>
      </trkpt>
      <trkpt lat="47.70216" lon="7.6631">
        <ele>478</ele>
        <time>2019-04-25T10:27:26Z</time>
      </trkpt>
      <trkpt lat="47.70216" lon="7.66304">
        <ele>481</ele>
        <time>2019-04-25T10:27:33Z</time>
      </trkpt>
      <trkpt lat="47.7022" lon="7.66299">
        <ele>479</ele>
        <time>2019-04-25T10:27:37Z</time>
      </trkpt>
      <trkpt lat="47.7022" lon="7.66291">
        <ele>478</ele>
        <time>2019-04-25T10:27:41Z</time>
      </trkpt>
      <trkpt lat="47.70222" lon="7.66282">
        <ele>478</ele>
        <time>2019-04-25T10:27:46Z</time>
      </trkpt>
      <trkpt lat="47.70233" lon="7.6627">
        <ele>480</ele>
        <time>2019-04-25T10:28:15Z</time>
      </trkpt>
      <trkpt lat="47.70244" lon="7.66264">
        <ele>471</ele>
        <time>2019-04-25T10:28:23Z</time>
      </trkpt>
      <trkpt lat="47.7025" lon="7.6625">
        <ele>470</ele>
        <time>2019-04-25T10:28:31Z</time>
      </trkpt>
      <trkpt lat="47.70261" lon="7.66239">
        <ele>465</ele>
        <time>2019-04-25T10:28:41Z</time>
      </trkpt>
      <trkpt lat="47.70267" lon="7.66223">
        <ele>465</ele>
        <time>2019-04-25T10:28:50Z</time>
      </trkpt>
      <trkpt lat="47.7027" lon="7.66212">
        <ele>467</ele>
        <time>2019-04-25T10:28:58Z</time>
      </trkpt>
      <trkpt lat="47.70285" lon="7.66199">
        <ele>463</ele>
        <time>2019-04-25T10:29:14Z</time>
      </trkpt>
      <trkpt lat="47.70292" lon="7.66181">
        <ele>463</ele>
        <time>2019-04-25T10:29:19Z</time>
      </trkpt>
      <trkpt lat="47.70294" lon="7.66168">
        <ele>467</ele>
        <time>2019-04-25T10:29:24Z</time>
      </trkpt>
      <trkpt lat="47.70348" lon="7.66132">
        <ele>465</ele>
        <time>2019-04-25T10:29:59Z</time>
      </trkpt>
      <trkpt lat="47.70341" lon="7.66126">
        <ele>464</ele>
        <time>2019-04-25T10:30:04Z</time>
      </trkpt>
      <trkpt lat="47.70338" lon="7.66117">
        <ele>467</ele>
        <time>2019-04-25T10:30:08Z</time>
      </trkpt>
      <trkpt lat="47.7034" lon="7.6611">
        <ele>470</ele>
        <time>2019-04-25T10:30:17Z</time>
      </trkpt>
      <trkpt lat="47.70345" lon="7.66108">
        <ele>471</ele>
        <time>2019-04-25T10:30:24Z</time>
      </trkpt>
      <trkpt lat="47.70351" lon="7.66096">
        <ele>470</ele>
        <time>2019-04-25T10:30:35Z</time>
      </trkpt>
      <trkpt lat="47.70354" lon="7.66091">
        <ele>470</ele>
        <time>2019-04-25T10:30:40Z</time>
      </trkpt>
      <trkpt lat="47.70364" lon="7.6608">
        <ele>468</ele>
        <time>2019-04-25T10:30:51Z</time>
      </trkpt>
      <trkpt lat="47.70383" lon="7.66069">
        <ele>466</ele>
        <time>2019-04-25T10:31:12Z</time>
      </trkpt>
      <trkpt lat="47.70392" lon="7.66068">
        <ele>460</ele>
        <time>2019-04-25T10:31:20Z</time>
      </trkpt>
      <trkpt lat="47.70399" lon="7.66071">
        <ele>460</ele>
        <time>2019-04-25T10:31:28Z</time>
      </trkpt>
      <trkpt lat="47.70407" lon="7.66072">
        <ele>458</ele>
        <time>2019-04-25T10:31:32Z</time>
      </trkpt>
      <trkpt lat="47.70416" lon="7.66066">
        <ele>457</ele>
        <time>2019-04-25T10:31:36Z</time>
      </trkpt>
      <trkpt lat="47.70435" lon="7.66064">
        <ele>455</ele>
        <time>2019-04-25T10:31:51Z</time>
      </trkpt>
      <trkpt lat="47.70448" lon="7.66076">
        <ele>451</ele>
        <time>2019-04-25T10:31:59Z</time>
      </trkpt>
      <trkpt lat="47.70459" lon="7.66069">
        <ele>449</ele>
        <time>2019-04-25T10:32:05Z</time>
      </trkpt>
      <trkpt lat="47.70469" lon="7.66074">
        <ele>455</ele>
        <time>2019-04-25T10:32:18Z</time>
      </trkpt>
      <trkpt lat="47.70478" lon="7.66073">
        <ele>456</ele>
        <time>2019-04-25T10:32:27Z</time>
      </trkpt>
      <trkpt lat="47.70495" lon="7.66073">
        <ele>442</ele>
        <time>2019-04-25T10:32:43Z</time>
      </trkpt>
      <trkpt lat="47.70515" lon="7.66082">
        <ele>438</ele>
        <time>2019-04-25T10:33:03Z</time>
      </trkpt>
      <trkpt lat="47.70519" lon="7.66091">
        <ele>440</ele>
        <time>2019-04-25T10:33:09Z</time>
      </trkpt>
      <trkpt lat="47.70527" lon="7.66094">
        <ele>440</ele>
        <time>2019-04-25T10:33:16Z</time>
      </trkpt>
      <trkpt lat="47.70535" lon="7.66087">
        <ele>441</ele>
        <time>2019-04-25T10:33:24Z</time>
      </trkpt>
      <trkpt lat="47.70547" lon="7.66086">
        <ele>447</ele>
        <time>2019-04-25T10:33:32Z</time>
      </trkpt>
      <trkpt lat="47.70559" lon="7.66085">
        <ele>446</ele>
        <time>2019-04-25T10:33:41Z</time>
      </trkpt>
      <trkpt lat="47.7057" lon="7.66081">
        <ele>447</ele>
        <time>2019-04-25T10:33:52Z</time>
      </trkpt>
      <trkpt lat="47.7058" lon="7.66073">
        <ele>447</ele>
        <time>2019-04-25T10:34:01Z</time>
      </trkpt>
      <trkpt lat="47.70615" lon="7.66048">
        <ele>445</ele>
        <time>2019-04-25T10:34:29Z</time>
      </trkpt>
      <trkpt lat="47.70646" lon="7.66093">
        <ele>434</ele>
        <time>2019-04-25T10:35:02Z</time>
      </trkpt>
      <trkpt lat="47.70651" lon="7.66095">
        <ele>432</ele>
        <time>2019-04-25T10:35:06Z</time>
      </trkpt>
      <trkpt lat="47.7066" lon="7.66101">
        <ele>431</ele>
        <time>2019-04-25T10:35:13Z</time>
      </trkpt>
      <trkpt lat="47.70662" lon="7.66106">
        <ele>430</ele>
        <time>2019-04-25T10:35:16Z</time>
      </trkpt>
      <trkpt lat="47.70665" lon="7.66114">
        <ele>428</ele>
        <time>2019-04-25T10:35:24Z</time>
      </trkpt>
      <trkpt lat="47.70684" lon="7.66123">
        <ele>421</ele>
        <time>2019-04-25T10:35:46Z</time>
      </trkpt>
      <trkpt lat="47.70718" lon="7.66135">
        <ele>414</ele>
        <time>2019-04-25T10:36:18Z</time>
      </trkpt>
      <trkpt lat="47.70723" lon="7.66135">
        <ele>413</ele>
        <time>2019-04-25T10:36:22Z</time>
      </trkpt>
      <trkpt lat="47.70728" lon="7.66136">
        <ele>411</ele>
        <time>2019-04-25T10:36:28Z</time>
      </trkpt>
      <trkpt lat="47.70743" lon="7.66134">
        <ele>411</ele>
        <time>2019-04-25T10:36:37Z</time>
      </trkpt>
      <trkpt lat="47.70748" lon="7.6614">
        <ele>410</ele>
        <time>2019-04-25T10:36:43Z</time>
      </trkpt>
      <trkpt lat="47.70754" lon="7.66147">
        <ele>408</ele>
        <time>2019-04-25T10:36:48Z</time>
      </trkpt>
      <trkpt lat="47.70759" lon="7.66154">
        <ele>405</ele>
        <time>2019-04-25T10:36:55Z</time>
      </trkpt>
      <trkpt lat="47.70768" lon="7.66164">
        <ele>402</ele>
        <time>2019-04-25T10:37:03Z</time>
      </trkpt>
      <trkpt lat="47.70771" lon="7.66176">
        <ele>403</ele>
        <time>2019-04-25T10:37:09Z</time>
      </trkpt>
      <trkpt lat="47.70776" lon="7.66184">
        <ele>400</ele>
        <time>2019-04-25T10:37:17Z</time>
      </trkpt>
      <trkpt lat="47.70788" lon="7.66176">
        <ele>398</ele>
        <time>2019-04-25T10:37:37Z</time>
      </trkpt>
      <trkpt lat="47.708" lon="7.6617">
        <ele>398</ele>
        <time>2019-04-25T10:37:47Z</time>
      </trkpt>
      <trkpt lat="47.7081" lon="7.66167">
        <ele>399</ele>
        <time>2019-04-25T10:37:53Z</time>
      </trkpt>
      <trkpt lat="47.70816" lon="7.66168">
        <ele>401</ele>
        <time>2019-04-25T10:37:57Z</time>
      </trkpt>
      <trkpt lat="47.70833" lon="7.66176">
        <ele>403</ele>
        <time>2019-04-25T10:38:12Z</time>
      </trkpt>
      <trkpt lat="47.70839" lon="7.66181">
        <ele>403</ele>
        <time>2019-04-25T10:38:20Z</time>
      </trkpt>
      <trkpt lat="47.70846" lon="7.6619">
        <ele>399</ele>
        <time>2019-04-25T10:38:27Z</time>
      </trkpt>
      <trkpt lat="47.70856" lon="7.6619">
        <ele>395</ele>
        <time>2019-04-25T10:38:36Z</time>
      </trkpt>
      <trkpt lat="47.70863" lon="7.66195">
        <ele>391</ele>
        <time>2019-04-25T10:38:42Z</time>
      </trkpt>
      <trkpt lat="47.70872" lon="7.66196">
        <ele>391</ele>
        <time>2019-04-25T10:38:48Z</time>
      </trkpt>
      <trkpt lat="47.70881" lon="7.66198">
        <ele>391</ele>
        <time>2019-04-25T10:38:56Z</time>
      </trkpt>
      <trkpt lat="47.7089" lon="7.66197">
        <ele>394</ele>
        <time>2019-04-25T10:39:04Z</time>
      </trkpt>
      <trkpt lat="47.70895" lon="7.66201">
        <ele>392</ele>
        <time>2019-04-25T10:39:23Z</time>
      </trkpt>
      <trkpt lat="47.70932" lon="7.66239">
        <ele>393</ele>
        <time>2019-04-25T10:40:02Z</time>
      </trkpt>
      <trkpt lat="47.70941" lon="7.66241">
        <ele>392</ele>
        <time>2019-04-25T10:40:07Z</time>
      </trkpt>
      <trkpt lat="47.70946" lon="7.66241">
        <ele>395</ele>
        <time>2019-04-25T10:40:10Z</time>
      </trkpt>
      <trkpt lat="47.70951" lon="7.66245">
        <ele>397</ele>
        <time>2019-04-25T10:40:17Z</time>
      </trkpt>
      <trkpt lat="47.70955" lon="7.6625">
        <ele>397</ele>
        <time>2019-04-25T10:40:22Z</time>
      </trkpt>
      <trkpt lat="47.70961" lon="7.66257">
        <ele>396</ele>
        <time>2019-04-25T10:40:34Z</time>
      </trkpt>
      <trkpt lat="47.70965" lon="7.6627">
        <ele>393</ele>
        <time>2019-04-25T10:40:42Z</time>
      </trkpt>
      <trkpt lat="47.70974" lon="7.66276">
        <ele>393</ele>
        <time>2019-04-25T10:40:50Z</time>
      </trkpt>
      <trkpt lat="47.70979" lon="7.66288">
        <ele>394</ele>
        <time>2019-04-25T10:40:57Z</time>
      </trkpt>
      <trkpt lat="47.70985" lon="7.66304">
        <ele>392</ele>
        <time>2019-04-25T10:41:07Z</time>
      </trkpt>
      <trkpt lat="47.70987" lon="7.66316">
        <ele>386</ele>
        <time>2019-04-25T10:41:16Z</time>
      </trkpt>
      <trkpt lat="47.70995" lon="7.66326">
        <ele>404</ele>
        <time>2019-04-25T10:41:23Z</time>
      </trkpt>
      <trkpt lat="47.70999" lon="7.66337">
        <ele>409</ele>
        <time>2019-04-25T10:41:29Z</time>
      </trkpt>
      <trkpt lat="47.71003" lon="7.66347">
        <ele>391</ele>
        <time>2019-04-25T10:41:35Z</time>
      </trkpt>
      <trkpt lat="47.71008" lon="7.66358">
        <ele>389</ele>
        <time>2019-04-25T10:41:46Z</time>
      </trkpt>
      <trkpt lat="47.71017" lon="7.66365">
        <ele>393</ele>
        <time>2019-04-25T10:41:53Z</time>
      </trkpt>
      <trkpt lat="47.71026" lon="7.66378">
        <ele>393</ele>
        <time>2019-04-25T10:42:02Z</time>
      </trkpt>
      <trkpt lat="47.7103" lon="7.66392">
        <ele>394</ele>
        <time>2019-04-25T10:42:12Z</time>
      </trkpt>
      <trkpt lat="47.71037" lon="7.66398">
        <ele>396</ele>
        <time>2019-04-25T10:42:19Z</time>
      </trkpt>
      <trkpt lat="47.71042" lon="7.66406">
        <ele>396</ele>
        <time>2019-04-25T10:42:33Z</time>
      </trkpt>
      <trkpt lat="47.71044" lon="7.66417">
        <ele>390</ele>
        <time>2019-04-25T10:43:03Z</time>
      </trkpt>
      <trkpt lat="47.7104" lon="7.6644">
        <ele>392</ele>
        <time>2019-04-25T10:43:17Z</time>
      </trkpt>
      <trkpt lat="47.71049" lon="7.66438">
        <ele>393</ele>
        <time>2019-04-25T10:43:46Z</time>
      </trkpt>
      <trkpt lat="47.71055" lon="7.66441">
        <ele>390</ele>
        <time>2019-04-25T10:43:52Z</time>
      </trkpt>
      <trkpt lat="47.71061" lon="7.66436">
        <ele>390</ele>
        <time>2019-04-25T10:44:05Z</time>
      </trkpt>
      <trkpt lat="47.71053" lon="7.66431">
        <ele>393</ele>
        <time>2019-04-25T11:01:17Z</time>
      </trkpt>
      <trkpt lat="47.71046" lon="7.66422">
        <ele>388</ele>
        <time>2019-04-25T11:01:39Z</time>
      </trkpt>
      <trkpt lat="47.71036" lon="7.66415">
        <ele>387</ele>
        <time>2019-04-25T11:01:51Z</time>
      </trkpt>
      <trkpt lat="47.71034" lon="7.66401">
        <ele>385</ele>
        <time>2019-04-25T11:02:00Z</time>
      </trkpt>
      <trkpt lat="47.71031" lon="7.66392">
        <ele>384</ele>
        <time>2019-04-25T11:02:07Z</time>
      </trkpt>
      <trkpt lat="47.71033" lon="7.66379">
        <ele>385</ele>
        <time>2019-04-25T11:02:45Z</time>
      </trkpt>
      <trkpt lat="47.71034" lon="7.66361">
        <ele>385</ele>
        <time>2019-04-25T11:03:18Z</time>
      </trkpt>
      <trkpt lat="47.71035" lon="7.66352">
        <ele>390</ele>
        <time>2019-04-25T11:03:24Z</time>
      </trkpt>
      <trkpt lat="47.7105" lon="7.66336">
        <ele>388</ele>
        <time>2019-04-25T11:03:40Z</time>
      </trkpt>
      <trkpt lat="47.71074" lon="7.66307">
        <ele>384</ele>
        <time>2019-04-25T11:04:03Z</time>
      </trkpt>
      <trkpt lat="47.71075" lon="7.663">
        <ele>384</ele>
        <time>2019-04-25T11:04:07Z</time>
      </trkpt>
      <trkpt lat="47.71085" lon="7.66298">
        <ele>383</ele>
        <time>2019-04-25T11:04:17Z</time>
      </trkpt>
      <trkpt lat="47.71088" lon="7.66292">
        <ele>382</ele>
        <time>2019-04-25T11:04:23Z</time>
      </trkpt>
      <trkpt lat="47.71091" lon="7.66287">
        <ele>382</ele>
        <time>2019-04-25T11:04:27Z</time>
      </trkpt>
      <trkpt lat="47.71101" lon="7.66287">
        <ele>380</ele>
        <time>2019-04-25T11:04:38Z</time>
      </trkpt>
      <trkpt lat="47.71105" lon="7.66281">
        <ele>378</ele>
        <time>2019-04-25T11:04:42Z</time>
      </trkpt>
      <trkpt lat="47.71134" lon="7.66252">
        <ele>374</ele>
        <time>2019-04-25T11:05:12Z</time>
      </trkpt>
      <trkpt lat="47.71138" lon="7.66249">
        <ele>374</ele>
        <time>2019-04-25T11:05:16Z</time>
      </trkpt>
      <trkpt lat="47.71171" lon="7.66226">
        <ele>367</ele>
        <time>2019-04-25T11:05:47Z</time>
      </trkpt>
      <trkpt lat="47.71181" lon="7.66227">
        <ele>367</ele>
        <time>2019-04-25T11:05:55Z</time>
      </trkpt>
      <trkpt lat="47.71189" lon="7.66226">
        <ele>366</ele>
        <time>2019-04-25T11:06:03Z</time>
      </trkpt>
      <trkpt lat="47.71208" lon="7.66235">
        <ele>364</ele>
        <time>2019-04-25T11:06:20Z</time>
      </trkpt>
      <trkpt lat="47.71217" lon="7.66233">
        <ele>362</ele>
        <time>2019-04-25T11:06:28Z</time>
      </trkpt>
      <trkpt lat="47.71225" lon="7.66226">
        <ele>361</ele>
        <time>2019-04-25T11:06:36Z</time>
      </trkpt>
      <trkpt lat="47.71226" lon="7.66217">
        <ele>360</ele>
        <time>2019-04-25T11:06:41Z</time>
      </trkpt>
      <trkpt lat="47.71225" lon="7.66212">
        <ele>358</ele>
        <time>2019-04-25T11:06:45Z</time>
      </trkpt>
      <trkpt lat="47.71225" lon="7.66204">
        <ele>358</ele>
        <time>2019-04-25T11:06:49Z</time>
      </trkpt>
      <trkpt lat="47.71225" lon="7.66197">
        <ele>357</ele>
        <time>2019-04-25T11:06:53Z</time>
      </trkpt>
      <trkpt lat="47.71215" lon="7.66174">
        <ele>354</ele>
        <time>2019-04-25T11:07:08Z</time>
      </trkpt>
      <trkpt lat="47.71216" lon="7.66166">
        <ele>354</ele>
        <time>2019-04-25T11:07:12Z</time>
      </trkpt>
      <trkpt lat="47.71221" lon="7.66164">
        <ele>353</ele>
        <time>2019-04-25T11:07:27Z</time>
      </trkpt>
      <trkpt lat="47.7123" lon="7.66146">
        <ele>352</ele>
        <time>2019-04-25T11:07:45Z</time>
      </trkpt>
      <trkpt lat="47.71225" lon="7.66102">
        <ele>350</ele>
        <time>2019-04-25T11:08:18Z</time>
      </trkpt>
      <trkpt lat="47.71228" lon="7.66095">
        <ele>343</ele>
        <time>2019-04-25T11:08:25Z</time>
      </trkpt>
      <trkpt lat="47.71225" lon="7.66089">
        <ele>345</ele>
        <time>2019-04-25T11:08:30Z</time>
      </trkpt>
      <trkpt lat="47.71202" lon="7.66046">
        <ele>349</ele>
        <time>2019-04-25T11:09:01Z</time>
      </trkpt>
      <trkpt lat="47.71191" lon="7.66022">
        <ele>346</ele>
        <time>2019-04-25T11:09:20Z</time>
      </trkpt>
      <trkpt lat="47.71193" lon="7.66015">
        <ele>345</ele>
        <time>2019-04-25T11:09:28Z</time>
      </trkpt>
      <trkpt lat="47.71193" lon="7.66009">
        <ele>344</ele>
        <time>2019-04-25T11:09:32Z</time>
      </trkpt>
      <trkpt lat="47.7119" lon="7.66003">
        <ele>344</ele>
        <time>2019-04-25T11:09:36Z</time>
      </trkpt>
      <trkpt lat="47.71185" lon="7.65999">
        <ele>345</ele>
        <time>2019-04-25T11:09:40Z</time>
      </trkpt>
      <trkpt lat="47.71182" lon="7.65995">
        <ele>346</ele>
        <time>2019-04-25T11:09:43Z</time>
      </trkpt>
      <trkpt lat="47.71179" lon="7.65989">
        <ele>347</ele>
        <time>2019-04-25T11:09:47Z</time>
      </trkpt>
      <trkpt lat="47.71173" lon="7.65978">
        <ele>348</ele>
        <time>2019-04-25T11:09:55Z</time>
      </trkpt>
      <trkpt lat="47.71173" lon="7.65972">
        <ele>347</ele>
        <time>2019-04-25T11:09:58Z</time>
      </trkpt>
      <trkpt lat="47.71182" lon="7.65943">
        <ele>345</ele>
        <time>2019-04-25T11:10:14Z</time>
      </trkpt>
      <trkpt lat="47.71184" lon="7.65938">
        <ele>343</ele>
        <time>2019-04-25T11:10:31Z</time>
      </trkpt>
      <trkpt lat="47.7118" lon="7.65933">
        <ele>343</ele>
        <time>2019-04-25T11:10:38Z</time>
      </trkpt>
      <trkpt lat="47.71188" lon="7.65928">
        <ele>343</ele>
        <time>2019-04-25T11:11:00Z</time>
      </trkpt>
      <trkpt lat="47.71191" lon="7.65921">
        <ele>343</ele>
        <time>2019-04-25T11:11:05Z</time>
      </trkpt>
      <trkpt lat="47.71201" lon="7.6592">
        <ele>342</ele>
        <time>2019-04-25T11:11:12Z</time>
      </trkpt>
      <trkpt lat="47.71205" lon="7.65917">
        <ele>343</ele>
        <time>2019-04-25T11:11:16Z</time>
      </trkpt>
      <trkpt lat="47.71213" lon="7.65909">
        <ele>344</ele>
        <time>2019-04-25T11:11:23Z</time>
      </trkpt>
      <trkpt lat="47.71227" lon="7.65902">
        <ele>344</ele>
        <time>2019-04-25T11:11:35Z</time>
      </trkpt>
      <trkpt lat="47.71236" lon="7.65895">
        <ele>343</ele>
        <time>2019-04-25T11:11:43Z</time>
      </trkpt>
      <trkpt lat="47.7124" lon="7.65896">
        <ele>344</ele>
        <time>2019-04-25T11:11:46Z</time>
      </trkpt>
      <trkpt lat="47.71245" lon="7.65898">
        <ele>343</ele>
        <time>2019-04-25T11:11:50Z</time>
      </trkpt>
      <trkpt lat="47.71257" lon="7.65911">
        <ele>341</ele>
        <time>2019-04-25T11:12:00Z</time>
      </trkpt>
      <trkpt lat="47.71282" lon="7.65943">
        <ele>342</ele>
        <time>2019-04-25T11:12:27Z</time>
      </trkpt>
      <trkpt lat="47.71288" lon="7.65954">
        <ele>343</ele>
        <time>2019-04-25T11:12:35Z</time>
      </trkpt>
      <trkpt lat="47.71291" lon="7.65959">
        <ele>343</ele>
        <time>2019-04-25T11:12:39Z</time>
      </trkpt>
      <trkpt lat="47.71305" lon="7.65962">
        <ele>344</ele>
        <time>2019-04-25T11:12:50Z</time>
      </trkpt>
      <trkpt lat="47.71313" lon="7.65961">
        <ele>344</ele>
        <time>2019-04-25T11:12:58Z</time>
      </trkpt>
      <trkpt lat="47.71318" lon="7.65962">
        <ele>345</ele>
        <time>2019-04-25T11:13:21Z</time>
      </trkpt>
      <trkpt lat="47.71322" lon="7.65961">
        <ele>344</ele>
        <time>2019-04-25T11:13:25Z</time>
      </trkpt>
      <trkpt lat="47.71326" lon="7.65958">
        <ele>344</ele>
        <time>2019-04-25T11:13:29Z</time>
      </trkpt>
      <trkpt lat="47.71342" lon="7.65942">
        <ele>341</ele>
        <time>2019-04-25T11:13:47Z</time>
      </trkpt>
      <trkpt lat="47.71347" lon="7.65941">
        <ele>338</ele>
        <time>2019-04-25T11:13:58Z</time>
      </trkpt>
      <trkpt lat="47.7136" lon="7.65939">
        <ele>340</ele>
        <time>2019-04-25T11:14:15Z</time>
      </trkpt>
      <trkpt lat="47.71374" lon="7.6595">
        <ele>341</ele>
        <time>2019-04-25T11:14:27Z</time>
      </trkpt>
      <trkpt lat="47.71377" lon="7.65955">
        <ele>343</ele>
        <time>2019-04-25T11:14:32Z</time>
      </trkpt>
      <trkpt lat="47.71391" lon="7.65975">
        <ele>340</ele>
        <time>2019-04-25T11:14:49Z</time>
      </trkpt>
      <trkpt lat="47.71394" lon="7.65981">
        <ele>341</ele>
        <time>2019-04-25T11:14:55Z</time>
      </trkpt>
      <trkpt lat="47.71403" lon="7.6598">
        <ele>344</ele>
        <time>2019-04-25T11:15:15Z</time>
      </trkpt>
      <trkpt lat="47.71402" lon="7.65979">
        <ele>344</ele>
        <time>2019-04-25T11:15:39Z</time>
      </trkpt>
      <trkpt lat="47.714" lon="7.65974">
        <ele>345</ele>
        <time>2019-04-25T11:15:45Z</time>
      </trkpt>
      <trkpt lat="47.71396" lon="7.6597">
        <ele>346</ele>
        <time>2019-04-25T11:15:49Z</time>
      </trkpt>
      <trkpt lat="47.71394" lon="7.65965">
        <ele>346</ele>
        <time>2019-04-25T11:15:53Z</time>
      </trkpt>
      <trkpt lat="47.71395" lon="7.65963">
        <ele>342</ele>
        <time>2019-04-25T11:31:30Z</time>
      </trkpt>
      <trkpt lat="47.7139" lon="7.65961">
        <ele>342</ele>
        <time>2019-04-25T11:31:49Z</time>
      </trkpt>
      <trkpt lat="47.71389" lon="7.65955">
        <ele>342</ele>
        <time>2019-04-25T11:31:53Z</time>
      </trkpt>
      <trkpt lat="47.71381" lon="7.65946">
        <ele>344</ele>
        <time>2019-04-25T11:32:03Z</time>
      </trkpt>
      <trkpt lat="47.71373" lon="7.65939">
        <ele>342</ele>
        <time>2019-04-25T11:32:12Z</time>
      </trkpt>
      <trkpt lat="47.7137" lon="7.65933">
        <ele>341</ele>
        <time>2019-04-25T11:32:16Z</time>
      </trkpt>
      <trkpt lat="47.71369" lon="7.65927">
        <ele>341</ele>
        <time>2019-04-25T11:32:28Z</time>
      </trkpt>
      <trkpt lat="47.71364" lon="7.65926">
        <ele>340</ele>
        <time>2019-04-25T11:32:57Z</time>
      </trkpt>
      <trkpt lat="47.71365" lon="7.65919">
        <ele>340</ele>
        <time>2019-04-25T11:33:00Z</time>
      </trkpt>
      <trkpt lat="47.71369" lon="7.65908">
        <ele>343</ele>
        <time>2019-04-25T11:33:10Z</time>
      </trkpt>
      <trkpt lat="47.71365" lon="7.65895">
        <ele>343</ele>
        <time>2019-04-25T11:33:17Z</time>
      </trkpt>
      <trkpt lat="47.71369" lon="7.65895">
        <ele>344</ele>
        <time>2019-04-25T11:33:44Z</time>
      </trkpt>
      <trkpt lat="47.71369" lon="7.65903">
        <ele>344</ele>
        <time>2019-04-25T11:33:50Z</time>
      </trkpt>
      <trkpt lat="47.7136" lon="7.65921">
        <ele>348</ele>
        <time>2019-04-25T11:34:01Z</time>
      </trkpt>
      <trkpt lat="47.71351" lon="7.65928">
        <ele>347</ele>
        <time>2019-04-25T11:34:13Z</time>
      </trkpt>
      <trkpt lat="47.71345" lon="7.65939">
        <ele>346</ele>
        <time>2019-04-25T11:34:21Z</time>
      </trkpt>
      <trkpt lat="47.71341" lon="7.65941">
        <ele>347</ele>
        <time>2019-04-25T11:34:25Z</time>
      </trkpt>
      <trkpt lat="47.71332" lon="7.65937">
        <ele>348</ele>
        <time>2019-04-25T11:34:33Z</time>
      </trkpt>
      <trkpt lat="47.71322" lon="7.65937">
        <ele>348</ele>
        <time>2019-04-25T11:34:39Z</time>
      </trkpt>
      <trkpt lat="47.71318" lon="7.65935">
        <ele>346</ele>
        <time>2019-04-25T11:34:43Z</time>
      </trkpt>
      <trkpt lat="47.71311" lon="7.65925">
        <ele>343</ele>
        <time>2019-04-25T11:34:50Z</time>
      </trkpt>
      <trkpt lat="47.7131" lon="7.65925">
        <ele>344</ele>
        <time>2019-04-25T11:35:15Z</time>
      </trkpt>
      <trkpt lat="47.71318" lon="7.65935">
        <ele>346</ele>
        <time>2019-04-25T11:35:23Z</time>
      </trkpt>
      <trkpt lat="47.71347" lon="7.65934">
        <ele>346</ele>
        <time>2019-04-25T11:35:46Z</time>
      </trkpt>
      <trkpt lat="47.71353" lon="7.65924">
        <ele>347</ele>
        <time>2019-04-25T11:35:52Z</time>
      </trkpt>
      <trkpt lat="47.7136" lon="7.65901">
        <ele>347</ele>
        <time>2019-04-25T11:36:05Z</time>
      </trkpt>
      <trkpt lat="47.71364" lon="7.65895">
        <ele>347</ele>
        <time>2019-04-25T11:36:08Z</time>
      </trkpt>
      <trkpt lat="47.71364" lon="7.65886">
        <ele>347</ele>
        <time>2019-04-25T11:36:12Z</time>
      </trkpt>
      <trkpt lat="47.71364" lon="7.65884">
        <ele>346</ele>
        <time>2019-04-25T11:36:34Z</time>
      </trkpt>
      <trkpt lat="47.71365" lon="7.65896">
        <ele>346</ele>
        <time>2019-04-25T11:36:39Z</time>
      </trkpt>
      <trkpt lat="47.71368" lon="7.65903">
        <ele>346</ele>
        <time>2019-04-25T11:36:45Z</time>
      </trkpt>
      <trkpt lat="47.71368" lon="7.65913">
        <ele>345</ele>
        <time>2019-04-25T11:36:50Z</time>
      </trkpt>
      <trkpt lat="47.71369" lon="7.65928">
        <ele>347</ele>
        <time>2019-04-25T11:36:58Z</time>
      </trkpt>
      <trkpt lat="47.71399" lon="7.65972">
        <ele>347</ele>
        <time>2019-04-25T11:37:31Z</time>
      </trkpt>
      <trkpt lat="47.71399" lon="7.65986">
        <ele>344</ele>
        <time>2019-04-25T11:37:39Z</time>
      </trkpt>
      <trkpt lat="47.71401" lon="7.65992">
        <ele>344</ele>
        <time>2019-04-25T11:37:43Z</time>
      </trkpt>
      <trkpt lat="47.71404" lon="7.66002">
        <ele>344</ele>
        <time>2019-04-25T11:37:49Z</time>
      </trkpt>
      <trkpt lat="47.7141" lon="7.66">
        <ele>345</ele>
        <time>2019-04-25T11:38:20Z</time>
      </trkpt>
      <trkpt lat="47.71403" lon="7.65985">
        <ele>348</ele>
        <time>2019-04-25T11:38:29Z</time>
      </trkpt>
      <trkpt lat="47.71402" lon="7.65978">
        <ele>347</ele>
        <time>2019-04-25T11:38:33Z</time>
      </trkpt>
      <trkpt lat="47.71403" lon="7.65972">
        <ele>346</ele>
        <time>2019-04-25T11:38:36Z</time>
      </trkpt>
      <trkpt lat="47.71415" lon="7.65964">
        <ele>347</ele>
        <time>2019-04-25T11:38:46Z</time>
      </trkpt>
      <trkpt lat="47.7142" lon="7.65966">
        <ele>347</ele>
        <time>2019-04-25T11:38:50Z</time>
      </trkpt>
      <trkpt lat="47.71425" lon="7.65966">
        <ele>347</ele>
        <time>2019-04-25T11:38:53Z</time>
      </trkpt>
      <trkpt lat="47.71429" lon="7.65971">
        <ele>347</ele>
        <time>2019-04-25T11:38:57Z</time>
      </trkpt>
      <trkpt lat="47.71453" lon="7.6597">
        <ele>346</ele>
        <time>2019-04-25T11:39:18Z</time>
      </trkpt>
      <trkpt lat="47.71459" lon="7.65972">
        <ele>345</ele>
        <time>2019-04-25T11:39:21Z</time>
      </trkpt>
      <trkpt lat="47.71465" lon="7.65973">
        <ele>345</ele>
        <time>2019-04-25T11:39:25Z</time>
      </trkpt>
      <trkpt lat="47.71488" lon="7.65963">
        <ele>346</ele>
        <time>2019-04-25T11:39:43Z</time>
      </trkpt>
      <trkpt lat="47.71516" lon="7.65939">
        <ele>350</ele>
        <time>2019-04-25T11:40:10Z</time>
      </trkpt>
      <trkpt lat="47.71521" lon="7.65938">
        <ele>350</ele>
        <time>2019-04-25T11:40:13Z</time>
      </trkpt>
      <trkpt lat="47.71529" lon="7.65931">
        <ele>350</ele>
        <time>2019-04-25T11:40:21Z</time>
      </trkpt>
      <trkpt lat="47.71532" lon="7.65926">
        <ele>350</ele>
        <time>2019-04-25T11:40:25Z</time>
      </trkpt>
      <trkpt lat="47.71535" lon="7.65921">
        <ele>349</ele>
        <time>2019-04-25T11:40:29Z</time>
      </trkpt>
      <trkpt lat="47.7154" lon="7.65908">
        <ele>347</ele>
        <time>2019-04-25T11:40:37Z</time>
      </trkpt>
      <trkpt lat="47.71543" lon="7.65902">
        <ele>347</ele>
        <time>2019-04-25T11:40:41Z</time>
      </trkpt>
      <trkpt lat="47.71542" lon="7.65903">
        <ele>348</ele>
        <time>2019-04-25T11:40:57Z</time>
      </trkpt>
      <trkpt lat="47.71538" lon="7.65923">
        <ele>347</ele>
        <time>2019-04-25T11:41:08Z</time>
      </trkpt>
      <trkpt lat="47.71536" lon="7.65929">
        <ele>346</ele>
        <time>2019-04-25T11:41:12Z</time>
      </trkpt>
      <trkpt lat="47.71533" lon="7.65934">
        <ele>345</ele>
        <time>2019-04-25T11:41:16Z</time>
      </trkpt>
      <trkpt lat="47.71515" lon="7.65946">
        <ele>346</ele>
        <time>2019-04-25T11:41:30Z</time>
      </trkpt>
      <trkpt lat="47.71475" lon="7.65966">
        <ele>345</ele>
        <time>2019-04-25T11:42:03Z</time>
      </trkpt>
      <trkpt lat="47.71471" lon="7.65966">
        <ele>345</ele>
        <time>2019-04-25T11:42:06Z</time>
      </trkpt>
      <trkpt lat="47.71466" lon="7.65966">
        <ele>345</ele>
        <time>2019-04-25T11:42:10Z</time>
      </trkpt>
      <trkpt lat="47.7147" lon="7.65946">
        <ele>343</ele>
        <time>2019-04-25T11:42:22Z</time>
      </trkpt>
      <trkpt lat="47.71479" lon="7.65915">
        <ele>343</ele>
        <time>2019-04-25T11:42:40Z</time>
      </trkpt>
      <trkpt lat="47.71482" lon="7.65911">
        <ele>343</ele>
        <time>2019-04-25T11:42:43Z</time>
      </trkpt>
      <trkpt lat="47.71488" lon="7.65886">
        <ele>345</ele>
        <time>2019-04-25T11:42:58Z</time>
      </trkpt>
      <trkpt lat="47.71489" lon="7.6588">
        <ele>346</ele>
        <time>2019-04-25T11:43:02Z</time>
      </trkpt>
      <trkpt lat="47.71491" lon="7.65873">
        <ele>346</ele>
        <time>2019-04-25T11:43:06Z</time>
      </trkpt>
      <trkpt lat="47.71499" lon="7.65815">
        <ele>349</ele>
        <time>2019-04-25T11:43:38Z</time>
      </trkpt>
      <trkpt lat="47.71501" lon="7.6581">
        <ele>349</ele>
        <time>2019-04-25T11:43:41Z</time>
      </trkpt>
      <trkpt lat="47.71501" lon="7.65795">
        <ele>351</ele>
        <time>2019-04-25T11:43:48Z</time>
      </trkpt>
      <trkpt lat="47.71508" lon="7.65761">
        <ele>351</ele>
        <time>2019-04-25T11:44:07Z</time>
      </trkpt>
      <trkpt lat="47.71511" lon="7.65757">
        <ele>351</ele>
        <time>2019-04-25T11:44:11Z</time>
      </trkpt>
      <trkpt lat="47.71515" lon="7.65736">
        <ele>349</ele>
        <time>2019-04-25T11:44:22Z</time>
      </trkpt>
      <trkpt lat="47.71513" lon="7.65742">
        <ele>352</ele>
        <time>2019-04-25T11:45:16Z</time>
      </trkpt>
      <trkpt lat="47.71509" lon="7.65762">
        <ele>350</ele>
        <time>2019-04-25T11:45:34Z</time>
      </trkpt>
      <trkpt lat="47.71508" lon="7.65769">
        <ele>350</ele>
        <time>2019-04-25T11:45:38Z</time>
      </trkpt>
      <trkpt lat="47.71505" lon="7.65781">
        <ele>349</ele>
        <time>2019-04-25T11:45:46Z</time>
      </trkpt>
      <trkpt lat="47.71507" lon="7.65787">
        <ele>349</ele>
        <time>2019-04-25T11:45:52Z</time>
      </trkpt>
      <trkpt lat="47.71504" lon="7.65792">
        <ele>347</ele>
        <time>2019-04-25T11:45:57Z</time>
      </trkpt>
      <trkpt lat="47.71507" lon="7.65793">
        <ele>347</ele>
        <time>2019-04-25T11:46:53Z</time>
      </trkpt>
      <trkpt lat="47.71514" lon="7.65785">
        <ele>348</ele>
        <time>2019-04-25T11:47:01Z</time>
      </trkpt>
      <trkpt lat="47.7152" lon="7.65776">
        <ele>348</ele>
        <time>2019-04-25T11:47:09Z</time>
      </trkpt>
      <trkpt lat="47.7153" lon="7.65759">
        <ele>348</ele>
        <time>2019-04-25T11:47:21Z</time>
      </trkpt>
      <trkpt lat="47.71536" lon="7.65746">
        <ele>349</ele>
        <time>2019-04-25T11:47:29Z</time>
      </trkpt>
      <trkpt lat="47.71546" lon="7.65729">
        <ele>352</ele>
        <time>2019-04-25T11:47:41Z</time>
      </trkpt>
      <trkpt lat="47.71555" lon="7.65712">
        <ele>354</ele>
        <time>2019-04-25T11:47:53Z</time>
      </trkpt>
      <trkpt lat="47.71557" lon="7.65706">
        <ele>354</ele>
        <time>2019-04-25T11:47:57Z</time>
      </trkpt>
      <trkpt lat="47.71573" lon="7.65655">
        <ele>352</ele>
        <time>2019-04-25T11:48:28Z</time>
      </trkpt>
      <trkpt lat="47.7158" lon="7.65636">
        <ele>353</ele>
        <time>2019-04-25T11:48:40Z</time>
      </trkpt>
      <trkpt lat="47.71581" lon="7.65629">
        <ele>353</ele>
        <time>2019-04-25T11:48:44Z</time>
      </trkpt>
      <trkpt lat="47.71583" lon="7.65622">
        <ele>354</ele>
        <time>2019-04-25T11:48:48Z</time>
      </trkpt>
      <trkpt lat="47.71596" lon="7.65574">
        <ele>356</ele>
        <time>2019-04-25T11:49:16Z</time>
      </trkpt>
      <trkpt lat="47.7161" lon="7.65524">
        <ele>362</ele>
        <time>2019-04-25T11:49:49Z</time>
      </trkpt>
      <trkpt lat="47.71615" lon="7.65507">
        <ele>362</ele>
        <time>2019-04-25T11:50:01Z</time>
      </trkpt>
      <trkpt lat="47.71612" lon="7.65494">
        <ele>363</ele>
        <time>2019-04-25T11:50:08Z</time>
      </trkpt>
      <trkpt lat="47.71611" lon="7.65487">
        <ele>363</ele>
        <time>2019-04-25T11:50:12Z</time>
      </trkpt>
      <trkpt lat="47.71609" lon="7.65481">
        <ele>363</ele>
        <time>2019-04-25T11:50:15Z</time>
      </trkpt>
      <trkpt lat="47.71605" lon="7.65469">
        <ele>362</ele>
        <time>2019-04-25T11:50:22Z</time>
      </trkpt>
      <trkpt lat="47.71592" lon="7.65414">
        <ele>364</ele>
        <time>2019-04-25T11:50:52Z</time>
      </trkpt>
      <trkpt lat="47.71587" lon="7.65392">
        <ele>365</ele>
        <time>2019-04-25T11:51:04Z</time>
      </trkpt>
      <trkpt lat="47.71576" lon="7.65336">
        <ele>363</ele>
        <time>2019-04-25T11:51:35Z</time>
      </trkpt>
      <trkpt lat="47.71563" lon="7.65297">
        <ele>362</ele>
        <time>2019-04-25T11:51:58Z</time>
      </trkpt>
      <trkpt lat="47.71563" lon="7.6529">
        <ele>363</ele>
        <time>2019-04-25T11:52:02Z</time>
      </trkpt>
      <trkpt lat="47.71565" lon="7.65283">
        <ele>363</ele>
        <time>2019-04-25T11:52:06Z</time>
      </trkpt>
      <trkpt lat="47.71574" lon="7.65267">
        <ele>362</ele>
        <time>2019-04-25T11:52:18Z</time>
      </trkpt>
      <trkpt lat="47.71581" lon="7.65256">
        <ele>362</ele>
        <time>2019-04-25T11:52:26Z</time>
      </trkpt>
      <trkpt lat="47.71587" lon="7.65243">
        <ele>363</ele>
        <time>2019-04-25T11:52:34Z</time>
      </trkpt>
      <trkpt lat="47.71593" lon="7.65234">
        <ele>362</ele>
        <time>2019-04-25T11:52:40Z</time>
      </trkpt>
      <trkpt lat="47.71604" lon="7.6522">
        <ele>360</ele>
        <time>2019-04-25T11:52:52Z</time>
      </trkpt>
      <trkpt lat="47.71606" lon="7.65214">
        <ele>360</ele>
        <time>2019-04-25T11:52:56Z</time>
      </trkpt>
      <trkpt lat="47.71634" lon="7.6518">
        <ele>358</ele>
        <time>2019-04-25T11:53:27Z</time>
      </trkpt>
      <trkpt lat="47.71638" lon="7.65177">
        <ele>358</ele>
        <time>2019-04-25T11:53:31Z</time>
      </trkpt>
      <trkpt lat="47.71639" lon="7.6517">
        <ele>358</ele>
        <time>2019-04-25T11:53:36Z</time>
      </trkpt>
      <trkpt lat="47.71625" lon="7.65154">
        <ele>358</ele>
        <time>2019-04-25T11:54:07Z</time>
      </trkpt>
      <trkpt lat="47.71621" lon="7.65152">
        <ele>358</ele>
        <time>2019-04-25T11:54:10Z</time>
      </trkpt>
      <trkpt lat="47.71617" lon="7.65146">
        <ele>358</ele>
        <time>2019-04-25T11:54:14Z</time>
      </trkpt>
      <trkpt lat="47.71614" lon="7.65142">
        <ele>360</ele>
        <time>2019-04-25T11:54:51Z</time>
      </trkpt>
      <trkpt lat="47.71609" lon="7.65139">
        <ele>355</ele>
        <time>2019-04-25T11:54:55Z</time>
      </trkpt>
      <trkpt lat="47.71574" lon="7.65102">
        <ele>356</ele>
        <time>2019-04-25T11:55:28Z</time>
      </trkpt>
      <trkpt lat="47.71549" lon="7.65081">
        <ele>359</ele>
        <time>2019-04-25T11:55:52Z</time>
      </trkpt>
      <trkpt lat="47.71542" lon="7.6507">
        <ele>359</ele>
        <time>2019-04-25T11:56:00Z</time>
      </trkpt>
      <trkpt lat="47.71539" lon="7.65064">
        <ele>360</ele>
        <time>2019-04-25T11:56:04Z</time>
      </trkpt>
      <trkpt lat="47.71538" lon="7.65056">
        <ele>359</ele>
        <time>2019-04-25T11:56:09Z</time>
      </trkpt>
      <trkpt lat="47.71536" lon="7.65022">
        <ele>359</ele>
        <time>2019-04-25T11:56:40Z</time>
      </trkpt>
      <trkpt lat="47.71532" lon="7.65011">
        <ele>359</ele>
        <time>2019-04-25T11:56:46Z</time>
      </trkpt>
      <trkpt lat="47.71531" lon="7.65004">
        <ele>360</ele>
        <time>2019-04-25T11:56:49Z</time>
      </trkpt>
      <trkpt lat="47.71547" lon="7.6495">
        <ele>359</ele>
        <time>2019-04-25T11:57:26Z</time>
      </trkpt>
      <trkpt lat="47.71558" lon="7.64925">
        <ele>359</ele>
        <time>2019-04-25T11:57:41Z</time>
      </trkpt>
      <trkpt lat="47.71565" lon="7.64907">
        <ele>359</ele>
        <time>2019-04-25T11:57:51Z</time>
      </trkpt>
      <trkpt lat="47.71581" lon="7.6487">
        <ele>359</ele>
        <time>2019-04-25T11:58:14Z</time>
      </trkpt>
      <trkpt lat="47.7161" lon="7.64824">
        <ele>353</ele>
        <time>2019-04-25T11:58:47Z</time>
      </trkpt>
      <trkpt lat="47.7162" lon="7.64806">
        <ele>352</ele>
        <time>2019-04-25T11:59:02Z</time>
      </trkpt>
      <trkpt lat="47.71634" lon="7.64762">
        <ele>348</ele>
        <time>2019-04-25T11:59:27Z</time>
      </trkpt>
      <trkpt lat="47.7164" lon="7.64745">
        <ele>348</ele>
        <time>2019-04-25T11:59:37Z</time>
      </trkpt>
      <trkpt lat="47.71654" lon="7.64684">
        <ele>344</ele>
        <time>2019-04-25T12:00:08Z</time>
      </trkpt>
      <trkpt lat="47.71655" lon="7.64678">
        <ele>344</ele>
        <time>2019-04-25T12:00:11Z</time>
      </trkpt>
      <trkpt lat="47.71655" lon="7.64657">
        <ele>343</ele>
        <time>2019-04-25T12:00:22Z</time>
      </trkpt>
      <trkpt lat="47.71655" lon="7.64643">
        <ele>344</ele>
        <time>2019-04-25T12:00:29Z</time>
      </trkpt>
      <trkpt lat="47.71655" lon="7.6462">
        <ele>343</ele>
        <time>2019-04-25T12:00:40Z</time>
      </trkpt>
      <trkpt lat="47.71658" lon="7.64614">
        <ele>342</ele>
        <time>2019-04-25T12:00:44Z</time>
      </trkpt>
      <trkpt lat="47.71662" lon="7.64594">
        <ele>340</ele>
        <time>2019-04-25T12:00:55Z</time>
      </trkpt>
      <trkpt lat="47.71674" lon="7.64573">
        <ele>337</ele>
        <time>2019-04-25T12:01:19Z</time>
      </trkpt>
      <trkpt lat="47.71681" lon="7.6454">
        <ele>336</ele>
        <time>2019-04-25T12:01:36Z</time>
      </trkpt>
      <trkpt lat="47.71682" lon="7.64513">
        <ele>336</ele>
        <time>2019-04-25T12:01:50Z</time>
      </trkpt>
      <trkpt lat="47.71687" lon="7.64502">
        <ele>337</ele>
        <time>2019-04-25T12:01:56Z</time>
      </trkpt>
      <trkpt lat="47.71721" lon="7.64491">
        <ele>339</ele>
        <time>2019-04-25T12:02:21Z</time>
      </trkpt>
      <trkpt lat="47.71726" lon="7.64491">
        <ele>339</ele>
        <time>2019-04-25T12:02:25Z</time>
      </trkpt>
      <trkpt lat="47.7173" lon="7.64493">
        <ele>339</ele>
        <time>2019-04-25T12:02:29Z</time>
      </trkpt>
      <trkpt lat="47.71734" lon="7.64498">
        <ele>339</ele>
        <time>2019-04-25T12:02:33Z</time>
      </trkpt>
      <trkpt lat="47.71742" lon="7.64514">
        <ele>339</ele>
        <time>2019-04-25T12:02:43Z</time>
      </trkpt>
      <trkpt lat="47.71751" lon="7.6453">
        <ele>340</ele>
        <time>2019-04-25T12:02:54Z</time>
      </trkpt>
      <trkpt lat="47.71765" lon="7.64538">
        <ele>342</ele>
        <time>2019-04-25T12:03:06Z</time>
      </trkpt>
      <trkpt lat="47.71761" lon="7.64538">
        <ele>342</ele>
        <time>2019-04-25T12:03:18Z</time>
      </trkpt>
      <trkpt lat="47.71757" lon="7.64536">
        <ele>342</ele>
        <time>2019-04-25T12:03:21Z</time>
      </trkpt>
      <trkpt lat="47.71753" lon="7.64532">
        <ele>342</ele>
        <time>2019-04-25T12:03:24Z</time>
      </trkpt>
      <trkpt lat="47.71731" lon="7.64493">
        <ele>338</ele>
        <time>2019-04-25T12:03:59Z</time>
      </trkpt>
      <trkpt lat="47.71726" lon="7.64489">
        <ele>338</ele>
        <time>2019-04-25T12:04:03Z</time>
      </trkpt>
      <trkpt lat="47.71721" lon="7.64488">
        <ele>338</ele>
        <time>2019-04-25T12:04:07Z</time>
      </trkpt>
      <trkpt lat="47.71712" lon="7.64491">
        <ele>337</ele>
        <time>2019-04-25T12:04:14Z</time>
      </trkpt>
      <trkpt lat="47.71711" lon="7.64485">
        <ele>336</ele>
        <time>2019-04-25T12:04:22Z</time>
      </trkpt>
      <trkpt lat="47.71719" lon="7.6446">
        <ele>338</ele>
        <time>2019-04-25T12:04:39Z</time>
      </trkpt>
      <trkpt lat="47.71722" lon="7.64453">
        <ele>338</ele>
        <time>2019-04-25T12:04:45Z</time>
      </trkpt>
      <trkpt lat="47.71721" lon="7.64447">
        <ele>337</ele>
        <time>2019-04-25T12:04:53Z</time>
      </trkpt>
      <trkpt lat="47.71721" lon="7.64439">
        <ele>337</ele>
        <time>2019-04-25T12:05:01Z</time>
      </trkpt>
      <trkpt lat="47.71722" lon="7.64432">
        <ele>336</ele>
        <time>2019-04-25T12:05:07Z</time>
      </trkpt>
      <trkpt lat="47.71711" lon="7.64399">
        <ele>340</ele>
        <time>2019-04-25T12:05:25Z</time>
      </trkpt>
      <trkpt lat="47.71707" lon="7.64399">
        <ele>341</ele>
        <time>2019-04-25T12:05:29Z</time>
      </trkpt>
      <trkpt lat="47.71704" lon="7.64405">
        <ele>341</ele>
        <time>2019-04-25T12:05:34Z</time>
      </trkpt>
      <trkpt lat="47.71703" lon="7.64413">
        <ele>341</ele>
        <time>2019-04-25T12:05:39Z</time>
      </trkpt>
      <trkpt lat="47.71696" lon="7.64438">
        <ele>343</ele>
        <time>2019-04-25T12:05:53Z</time>
      </trkpt>
      <trkpt lat="47.71693" lon="7.64444">
        <ele>344</ele>
        <time>2019-04-25T12:05:57Z</time>
      </trkpt>
      <trkpt lat="47.71692" lon="7.64453">
        <ele>344</ele>
        <time>2019-04-25T12:06:02Z</time>
      </trkpt>
      <trkpt lat="47.71688" lon="7.64449">
        <ele>347</ele>
        <time>2019-04-25T12:06:23Z</time>
      </trkpt>
      <trkpt lat="47.71685" lon="7.64444">
        <ele>345</ele>
        <time>2019-04-25T12:06:26Z</time>
      </trkpt>
      <trkpt lat="47.71686" lon="7.64431">
        <ele>343</ele>
        <time>2019-04-25T12:06:34Z</time>
      </trkpt>
      <trkpt lat="47.71682" lon="7.64417">
        <ele>344</ele>
        <time>2019-04-25T12:06:45Z</time>
      </trkpt>
      <trkpt lat="47.71681" lon="7.6441">
        <ele>344</ele>
        <time>2019-04-25T12:06:50Z</time>
      </trkpt>
      <trkpt lat="47.71677" lon="7.64404">
        <ele>346</ele>
        <time>2019-04-25T12:06:55Z</time>
      </trkpt>
      <trkpt lat="47.71675" lon="7.64372">
        <ele>347</ele>
        <time>2019-04-25T12:07:21Z</time>
      </trkpt>
      <trkpt lat="47.71671" lon="7.64367">
        <ele>347</ele>
        <time>2019-04-25T12:07:25Z</time>
      </trkpt>
      <trkpt lat="47.71649" lon="7.64346">
        <ele>342</ele>
        <time>2019-04-25T12:07:45Z</time>
      </trkpt>
      <trkpt lat="47.7162" lon="7.64312">
        <ele>338</ele>
        <time>2019-04-25T12:08:11Z</time>
      </trkpt>
      <trkpt lat="47.71617" lon="7.64298">
        <ele>340</ele>
        <time>2019-04-25T12:08:16Z</time>
      </trkpt>
      <trkpt lat="47.71613" lon="7.64291">
        <ele>340</ele>
        <time>2019-04-25T12:08:21Z</time>
      </trkpt>
      <trkpt lat="47.71609" lon="7.64287">
        <ele>337</ele>
        <time>2019-04-25T12:08:27Z</time>
      </trkpt>
      <trkpt lat="47.71609" lon="7.6428">
        <ele>336</ele>
        <time>2019-04-25T12:08:32Z</time>
      </trkpt>
      <trkpt lat="47.716" lon="7.64255">
        <ele>332</ele>
        <time>2019-04-25T12:08:47Z</time>
      </trkpt>
      <trkpt lat="47.716" lon="7.64248">
        <ele>330</ele>
        <time>2019-04-25T12:08:52Z</time>
      </trkpt>
      <trkpt lat="47.71598" lon="7.64241">
        <ele>327</ele>
        <time>2019-04-25T12:08:56Z</time>
      </trkpt>
      <trkpt lat="47.716" lon="7.64187">
        <ele>324</ele>
        <time>2019-04-25T12:09:26Z</time>
      </trkpt>
      <trkpt lat="47.71599" lon="7.64155">
        <ele>322</ele>
        <time>2019-04-25T12:09:45Z</time>
      </trkpt>
      <trkpt lat="47.716" lon="7.64142">
        <ele>322</ele>
        <time>2019-04-25T12:09:52Z</time>
      </trkpt>
      <trkpt lat="47.71603" lon="7.64131">
        <ele>325</ele>
        <time>2019-04-25T12:09:58Z</time>
      </trkpt>
      <trkpt lat="47.71602" lon="7.64112">
        <ele>325</ele>
        <time>2019-04-25T12:10:07Z</time>
      </trkpt>
      <trkpt lat="47.71604" lon="7.64103">
        <ele>325</ele>
        <time>2019-04-25T12:10:12Z</time>
      </trkpt>
      <trkpt lat="47.71603" lon="7.64091">
        <ele>328</ele>
        <time>2019-04-25T12:10:17Z</time>
      </trkpt>
      <trkpt lat="47.71607" lon="7.64081">
        <ele>329</ele>
        <time>2019-04-25T12:10:21Z</time>
      </trkpt>
      <trkpt lat="47.71608" lon="7.64071">
        <ele>324</ele>
        <time>2019-04-25T12:10:28Z</time>
      </trkpt>
      <trkpt lat="47.71608" lon="7.64036">
        <ele>322</ele>
        <time>2019-04-25T12:10:47Z</time>
      </trkpt>
      <trkpt lat="47.7161" lon="7.64028">
        <ele>322</ele>
        <time>2019-04-25T12:10:51Z</time>
      </trkpt>
      <trkpt lat="47.71612" lon="7.64021">
        <ele>322</ele>
        <time>2019-04-25T12:10:55Z</time>
      </trkpt>
      <trkpt lat="47.71612" lon="7.64001">
        <ele>320</ele>
        <time>2019-04-25T12:11:05Z</time>
      </trkpt>
      <trkpt lat="47.71609" lon="7.63994">
        <ele>318</ele>
        <time>2019-04-25T12:11:07Z</time>
      </trkpt>
      <trkpt lat="47.71613" lon="7.6399">
        <ele>317</ele>
        <time>2019-04-25T12:11:11Z</time>
      </trkpt>
      <trkpt lat="47.71615" lon="7.63983">
        <ele>316</ele>
        <time>2019-04-25T12:11:15Z</time>
      </trkpt>
      <trkpt lat="47.71617" lon="7.63975">
        <ele>317</ele>
        <time>2019-04-25T12:11:19Z</time>
      </trkpt>
      <trkpt lat="47.71624" lon="7.63943">
        <ele>319</ele>
        <time>2019-04-25T12:11:36Z</time>
      </trkpt>
      <trkpt lat="47.71623" lon="7.63905">
        <ele>315</ele>
        <time>2019-04-25T12:11:55Z</time>
      </trkpt>
      <trkpt lat="47.71619" lon="7.63845">
        <ele>315</ele>
        <time>2019-04-25T12:12:26Z</time>
      </trkpt>
      <trkpt lat="47.71613" lon="7.63783">
        <ele>315</ele>
        <time>2019-04-25T12:12:57Z</time>
      </trkpt>
      <trkpt lat="47.71611" lon="7.63777">
        <ele>313</ele>
        <time>2019-04-25T12:13:00Z</time>
      </trkpt>
      <trkpt lat="47.71613" lon="7.6375">
        <ele>313</ele>
        <time>2019-04-25T12:13:13Z</time>
      </trkpt>
      <trkpt lat="47.7161" lon="7.63744">
        <ele>314</ele>
        <time>2019-04-25T12:13:18Z</time>
      </trkpt>
      <trkpt lat="47.71608" lon="7.63738">
        <ele>314</ele>
        <time>2019-04-25T12:13:21Z</time>
      </trkpt>
      <trkpt lat="47.71606" lon="7.63733">
        <ele>314</ele>
        <time>2019-04-25T12:13:24Z</time>
      </trkpt>
      <trkpt lat="47.71593" lon="7.63723">
        <ele>313</ele>
        <time>2019-04-25T12:13:36Z</time>
      </trkpt>
      <trkpt lat="47.71589" lon="7.6372">
        <ele>315</ele>
        <time>2019-04-25T12:14:02Z</time>
      </trkpt>
      <trkpt lat="47.71581" lon="7.63718">
        <ele>314</ele>
        <time>2019-04-25T12:14:17Z</time>
      </trkpt>
      <trkpt lat="47.71578" lon="7.63713">
        <ele>315</ele>
        <time>2019-04-25T12:14:26Z</time>
      </trkpt>
      <trkpt lat="47.71578" lon="7.63705">
        <ele>313</ele>
        <time>2019-04-25T12:14:30Z</time>
      </trkpt>
      <trkpt lat="47.71576" lon="7.63699">
        <ele>313</ele>
        <time>2019-04-25T12:14:34Z</time>
      </trkpt>
      <trkpt lat="47.71573" lon="7.63641">
        <ele>307</ele>
        <time>2019-04-25T12:15:04Z</time>
      </trkpt>
      <trkpt lat="47.71573" lon="7.63607">
        <ele>308</ele>
        <time>2019-04-25T12:15:21Z</time>
      </trkpt>
      <trkpt lat="47.71574" lon="7.63601">
        <ele>310</ele>
        <time>2019-04-25T12:15:24Z</time>
      </trkpt>
      <trkpt lat="47.71572" lon="7.63596">
        <ele>310</ele>
        <time>2019-04-25T12:15:33Z</time>
      </trkpt>
      <trkpt lat="47.71572" lon="7.63589">
        <ele>308</ele>
        <time>2019-04-25T12:15:53Z</time>
      </trkpt>
      <trkpt lat="47.71578" lon="7.63559">
        <ele>306</ele>
        <time>2019-04-25T12:16:09Z</time>
      </trkpt>
      <trkpt lat="47.71579" lon="7.63543">
        <ele>304</ele>
        <time>2019-04-25T12:16:18Z</time>
      </trkpt>
      <trkpt lat="47.71581" lon="7.63535">
        <ele>306</ele>
        <time>2019-04-25T12:16:22Z</time>
      </trkpt>
      <trkpt lat="47.7158" lon="7.63528">
        <ele>308</ele>
        <time>2019-04-25T12:16:37Z</time>
      </trkpt>
      <trkpt lat="47.71583" lon="7.63523">
        <ele>309</ele>
        <time>2019-04-25T12:16:42Z</time>
      </trkpt>
      <trkpt lat="47.71588" lon="7.63525">
        <ele>309</ele>
        <time>2019-04-25T12:16:47Z</time>
      </trkpt>
      <trkpt lat="47.71611" lon="7.63526">
        <ele>311</ele>
        <time>2019-04-25T12:17:07Z</time>
      </trkpt>
      <trkpt lat="47.71626" lon="7.63511">
        <ele>311</ele>
        <time>2019-04-25T12:17:20Z</time>
      </trkpt>
      <trkpt lat="47.71631" lon="7.63507">
        <ele>308</ele>
        <time>2019-04-25T12:17:24Z</time>
      </trkpt>
      <trkpt lat="47.71637" lon="7.63502">
        <ele>307</ele>
        <time>2019-04-25T12:17:28Z</time>
      </trkpt>
      <trkpt lat="47.71643" lon="7.63485">
        <ele>307</ele>
        <time>2019-04-25T12:17:41Z</time>
      </trkpt>
      <trkpt lat="47.71648" lon="7.63482">
        <ele>308</ele>
        <time>2019-04-25T12:17:44Z</time>
      </trkpt>
      <trkpt lat="47.71655" lon="7.63467">
        <ele>307</ele>
        <time>2019-04-25T12:17:54Z</time>
      </trkpt>
      <trkpt lat="47.71661" lon="7.63453">
        <ele>303</ele>
        <time>2019-04-25T12:18:03Z</time>
      </trkpt>
      <trkpt lat="47.71666" lon="7.63449">
        <ele>303</ele>
        <time>2019-04-25T12:18:09Z</time>
      </trkpt>
      <trkpt lat="47.71669" lon="7.63442">
        <ele>304</ele>
        <time>2019-04-25T12:18:14Z</time>
      </trkpt>
      <trkpt lat="47.71672" lon="7.63435">
        <ele>305</ele>
        <time>2019-04-25T12:18:18Z</time>
      </trkpt>
      <trkpt lat="47.71674" lon="7.63429">
        <ele>308</ele>
        <time>2019-04-25T12:18:23Z</time>
      </trkpt>
      <trkpt lat="47.71677" lon="7.63424">
        <ele>308</ele>
        <time>2019-04-25T12:18:26Z</time>
      </trkpt>
      <trkpt lat="47.7168" lon="7.6342">
        <ele>307</ele>
        <time>2019-04-25T12:18:29Z</time>
      </trkpt>
      <trkpt lat="47.71689" lon="7.63401">
        <ele>307</ele>
        <time>2019-04-25T12:18:40Z</time>
      </trkpt>
      <trkpt lat="47.71697" lon="7.63391">
        <ele>312</ele>
        <time>2019-04-25T12:18:49Z</time>
      </trkpt>
      <trkpt lat="47.71702" lon="7.63379">
        <ele>316</ele>
        <time>2019-04-25T12:18:56Z</time>
      </trkpt>
      <trkpt lat="47.71712" lon="7.63371">
        <ele>315</ele>
        <time>2019-04-25T12:19:04Z</time>
      </trkpt>
      <trkpt lat="47.7172" lon="7.63357">
        <ele>311</ele>
        <time>2019-04-25T12:19:12Z</time>
      </trkpt>
      <trkpt lat="47.71723" lon="7.63349">
        <ele>310</ele>
        <time>2019-04-25T12:19:16Z</time>
      </trkpt>
      <trkpt lat="47.71725" lon="7.63342">
        <ele>310</ele>
        <time>2019-04-25T12:19:20Z</time>
      </trkpt>
      <trkpt lat="47.71729" lon="7.63335">
        <ele>312</ele>
        <time>2019-04-25T12:19:26Z</time>
      </trkpt>
      <trkpt lat="47.71733" lon="7.6333">
        <ele>313</ele>
        <time>2019-04-25T12:19:29Z</time>
      </trkpt>
      <trkpt lat="47.71737" lon="7.63325">
        <ele>311</ele>
        <time>2019-04-25T12:19:34Z</time>
      </trkpt>
      <trkpt lat="47.71739" lon="7.63317">
        <ele>312</ele>
        <time>2019-04-25T12:19:38Z</time>
      </trkpt>
      <trkpt lat="47.71752" lon="7.63303">
        <ele>315</ele>
        <time>2019-04-25T12:19:50Z</time>
      </trkpt>
      <trkpt lat="47.71759" lon="7.63301">
        <ele>316</ele>
        <time>2019-04-25T12:20:02Z</time>
      </trkpt>
      <trkpt lat="47.71764" lon="7.63295">
        <ele>316</ele>
        <time>2019-04-25T12:20:09Z</time>
      </trkpt>
      <trkpt lat="47.71769" lon="7.63296">
        <ele>317</ele>
        <time>2019-04-25T12:20:14Z</time>
      </trkpt>
      <trkpt lat="47.71774" lon="7.63289">
        <ele>314</ele>
        <time>2019-04-25T12:20:21Z</time>
      </trkpt>
      <trkpt lat="47.71778" lon="7.63283">
        <ele>313</ele>
        <time>2019-04-25T12:20:24Z</time>
      </trkpt>
      <trkpt lat="47.71787" lon="7.63272">
        <ele>313</ele>
        <time>2019-04-25T12:20:32Z</time>
      </trkpt>
      <trkpt lat="47.71791" lon="7.63264">
        <ele>311</ele>
        <time>2019-04-25T12:20:37Z</time>
      </trkpt>
      <trkpt lat="47.71795" lon="7.63254">
        <ele>313</ele>
        <time>2019-04-25T12:20:40Z</time>
      </trkpt>
      <trkpt lat="47.71795" lon="7.63245">
        <ele>312</ele>
        <time>2019-04-25T12:20:46Z</time>
      </trkpt>
      <trkpt lat="47.71805" lon="7.63221">
        <ele>304</ele>
        <time>2019-04-25T12:21:03Z</time>
      </trkpt>
      <trkpt lat="47.7181" lon="7.63196">
        <ele>306</ele>
        <time>2019-04-25T12:21:14Z</time>
      </trkpt>
      <trkpt lat="47.7181" lon="7.63187">
        <ele>306</ele>
        <time>2019-04-25T12:21:17Z</time>
      </trkpt>
      <trkpt lat="47.71813" lon="7.63183">
        <ele>310</ele>
        <time>2019-04-25T12:21:21Z</time>
      </trkpt>
      <trkpt lat="47.71818" lon="7.63181">
        <ele>311</ele>
        <time>2019-04-25T12:21:24Z</time>
      </trkpt>
      <trkpt lat="47.71835" lon="7.63139">
        <ele>316</ele>
        <time>2019-04-25T12:21:50Z</time>
      </trkpt>
      <trkpt lat="47.71845" lon="7.63115">
        <ele>322</ele>
        <time>2019-04-25T12:22:07Z</time>
      </trkpt>
      <trkpt lat="47.71851" lon="7.63103">
        <ele>321</ele>
        <time>2019-04-25T12:22:14Z</time>
      </trkpt>
      <trkpt lat="47.71855" lon="7.63097">
        <ele>321</ele>
        <time>2019-04-25T12:22:18Z</time>
      </trkpt>
      <trkpt lat="47.71853" lon="7.63091">
        <ele>321</ele>
        <time>2019-04-25T12:22:19Z</time>
      </trkpt>
      <trkpt lat="47.71858" lon="7.63084">
        <ele>321</ele>
        <time>2019-04-25T12:22:29Z</time>
      </trkpt>
      <trkpt lat="47.7186" lon="7.63079">
        <ele>320</ele>
        <time>2019-04-25T12:22:32Z</time>
      </trkpt>
      <trkpt lat="47.71863" lon="7.63073">
        <ele>322</ele>
        <time>2019-04-25T12:22:35Z</time>
      </trkpt>
      <trkpt lat="47.71869" lon="7.63069">
        <ele>322</ele>
        <time>2019-04-25T12:22:41Z</time>
      </trkpt>
      <trkpt lat="47.71908" lon="7.63051">
        <ele>326</ele>
        <time>2019-04-25T12:23:11Z</time>
      </trkpt>
      <trkpt lat="47.71912" lon="7.63045">
        <ele>325</ele>
        <time>2019-04-25T12:23:16Z</time>
      </trkpt>
      <trkpt lat="47.71918" lon="7.63042">
        <ele>323</ele>
        <time>2019-04-25T12:23:22Z</time>
      </trkpt>
      <trkpt lat="47.71922" lon="7.6304">
        <ele>323</ele>
        <time>2019-04-25T12:23:26Z</time>
      </trkpt>
      <trkpt lat="47.71948" lon="7.6302">
        <ele>322</ele>
        <time>2019-04-25T12:23:51Z</time>
      </trkpt>
      <trkpt lat="47.71951" lon="7.63015">
        <ele>322</ele>
        <time>2019-04-25T12:23:56Z</time>
      </trkpt>
      <trkpt lat="47.71959" lon="7.63007">
        <ele>323</ele>
        <time>2019-04-25T12:24:05Z</time>
      </trkpt>
      <trkpt lat="47.71967" lon="7.62999">
        <ele>324</ele>
        <time>2019-04-25T12:24:12Z</time>
      </trkpt>
      <trkpt lat="47.71971" lon="7.62996">
        <ele>326</ele>
        <time>2019-04-25T12:24:17Z</time>
      </trkpt>
      <trkpt lat="47.71985" lon="7.62978">
        <ele>328</ele>
        <time>2019-04-25T12:24:31Z</time>
      </trkpt>
      <trkpt lat="47.71997" lon="7.62965">
        <ele>331</ele>
        <time>2019-04-25T12:24:42Z</time>
      </trkpt>
      <trkpt lat="47.72001" lon="7.62959">
        <ele>330</ele>
        <time>2019-04-25T12:24:48Z</time>
      </trkpt>
      <trkpt lat="47.72028" lon="7.6292">
        <ele>331</ele>
        <time>2019-04-25T12:25:19Z</time>
      </trkpt>
      <trkpt lat="47.72031" lon="7.62916">
        <ele>332</ele>
        <time>2019-04-25T12:25:23Z</time>
      </trkpt>
      <trkpt lat="47.72034" lon="7.62911">
        <ele>334</ele>
        <time>2019-04-25T12:25:26Z</time>
      </trkpt>
      <trkpt lat="47.72037" lon="7.62907">
        <ele>335</ele>
        <time>2019-04-25T12:25:30Z</time>
      </trkpt>
      <trkpt lat="47.72041" lon="7.62896">
        <ele>334</ele>
        <time>2019-04-25T12:25:38Z</time>
      </trkpt>
      <trkpt lat="47.72043" lon="7.6289">
        <ele>336</ele>
        <time>2019-04-25T12:25:42Z</time>
      </trkpt>
      <trkpt lat="47.72057" lon="7.62873">
        <ele>339</ele>
        <time>2019-04-25T12:25:56Z</time>
      </trkpt>
      <trkpt lat="47.72072" lon="7.62858">
        <ele>338</ele>
        <time>2019-04-25T12:26:10Z</time>
      </trkpt>
      <trkpt lat="47.72073" lon="7.62851">
        <ele>338</ele>
        <time>2019-04-25T12:26:13Z</time>
      </trkpt>
      <trkpt lat="47.72076" lon="7.62848">
        <ele>340</ele>
        <time>2019-04-25T12:26:17Z</time>
      </trkpt>
      <trkpt lat="47.72077" lon="7.62841">
        <ele>339</ele>
        <time>2019-04-25T12:26:20Z</time>
      </trkpt>
      <trkpt lat="47.72085" lon="7.62833">
        <ele>339</ele>
        <time>2019-04-25T12:26:27Z</time>
      </trkpt>
      <trkpt lat="47.72089" lon="7.62829">
        <ele>340</ele>
        <time>2019-04-25T12:26:31Z</time>
      </trkpt>
      <trkpt lat="47.72093" lon="7.62823">
        <ele>341</ele>
        <time>2019-04-25T12:26:35Z</time>
      </trkpt>
      <trkpt lat="47.72126" lon="7.62792">
        <ele>340</ele>
        <time>2019-04-25T12:27:05Z</time>
      </trkpt>
      <trkpt lat="47.72149" lon="7.6278">
        <ele>341</ele>
        <time>2019-04-25T12:27:27Z</time>
      </trkpt>
      <trkpt lat="47.72159" lon="7.62778">
        <ele>344</ele>
        <time>2019-04-25T12:27:35Z</time>
      </trkpt>
      <trkpt lat="47.72169" lon="7.62772">
        <ele>344</ele>
        <time>2019-04-25T12:27:44Z</time>
      </trkpt>
      <trkpt lat="47.722" lon="7.62763">
        <ele>345</ele>
        <time>2019-04-25T12:28:07Z</time>
      </trkpt>
      <trkpt lat="47.72204" lon="7.62759">
        <ele>349</ele>
        <time>2019-04-25T12:28:11Z</time>
      </trkpt>
      <trkpt lat="47.72209" lon="7.62761">
        <ele>348</ele>
        <time>2019-04-25T12:28:18Z</time>
      </trkpt>
      <trkpt lat="47.72217" lon="7.62759">
        <ele>347</ele>
        <time>2019-04-25T12:28:21Z</time>
      </trkpt>
      <trkpt lat="47.72222" lon="7.62753">
        <ele>349</ele>
        <time>2019-04-25T12:28:25Z</time>
      </trkpt>
      <trkpt lat="47.7223" lon="7.62753">
        <ele>351</ele>
        <time>2019-04-25T12:28:33Z</time>
      </trkpt>
      <trkpt lat="47.72237" lon="7.62758">
        <ele>350</ele>
        <time>2019-04-25T12:28:42Z</time>
      </trkpt>
      <trkpt lat="47.72244" lon="7.62759">
        <ele>350</ele>
        <time>2019-04-25T12:28:49Z</time>
      </trkpt>
      <trkpt lat="47.7225" lon="7.62757">
        <ele>351</ele>
        <time>2019-04-25T12:28:54Z</time>
      </trkpt>
      <trkpt lat="47.7226" lon="7.62753">
        <ele>353</ele>
        <time>2019-04-25T12:29:03Z</time>
      </trkpt>
      <trkpt lat="47.72273" lon="7.62752">
        <ele>356</ele>
        <time>2019-04-25T12:29:14Z</time>
      </trkpt>
      <trkpt lat="47.7228" lon="7.62748">
        <ele>362</ele>
        <time>2019-04-25T12:29:21Z</time>
      </trkpt>
      <trkpt lat="47.72287" lon="7.62743">
        <ele>361</ele>
        <time>2019-04-25T12:29:27Z</time>
      </trkpt>
      <trkpt lat="47.72295" lon="7.62739">
        <ele>361</ele>
        <time>2019-04-25T12:29:33Z</time>
      </trkpt>
      <trkpt lat="47.72324" lon="7.62709">
        <ele>357</ele>
        <time>2019-04-25T12:29:56Z</time>
      </trkpt>
      <trkpt lat="47.7233" lon="7.62709">
        <ele>356</ele>
        <time>2019-04-25T12:30:02Z</time>
      </trkpt>
      <trkpt lat="47.72333" lon="7.62696">
        <ele>356</ele>
        <time>2019-04-25T12:30:05Z</time>
      </trkpt>
      <trkpt lat="47.72337" lon="7.62689">
        <ele>362</ele>
        <time>2019-04-25T12:30:08Z</time>
      </trkpt>
      <trkpt lat="47.72343" lon="7.62686">
        <ele>361</ele>
        <time>2019-04-25T12:30:13Z</time>
      </trkpt>
      <trkpt lat="47.72356" lon="7.62672">
        <ele>360</ele>
        <time>2019-04-25T12:30:29Z</time>
      </trkpt>
      <trkpt lat="47.72362" lon="7.62656">
        <ele>360</ele>
        <time>2019-04-25T12:30:41Z</time>
      </trkpt>
      <trkpt lat="47.72372" lon="7.62646">
        <ele>358</ele>
        <time>2019-04-25T12:30:51Z</time>
      </trkpt>
      <trkpt lat="47.72377" lon="7.62635">
        <ele>356</ele>
        <time>2019-04-25T12:30:59Z</time>
      </trkpt>
      <trkpt lat="47.72386" lon="7.62623">
        <ele>354</ele>
        <time>2019-04-25T12:31:12Z</time>
      </trkpt>
      <trkpt lat="47.72392" lon="7.62606">
        <ele>350</ele>
        <time>2019-04-25T12:31:16Z</time>
      </trkpt>
      <trkpt lat="47.72397" lon="7.62591">
        <ele>348</ele>
        <time>2019-04-25T12:31:24Z</time>
      </trkpt>
      <trkpt lat="47.72403" lon="7.62581">
        <ele>350</ele>
        <time>2019-04-25T12:31:32Z</time>
      </trkpt>
      <trkpt lat="47.72421" lon="7.62539">
        <ele>353</ele>
        <time>2019-04-25T12:31:56Z</time>
      </trkpt>
      <trkpt lat="47.72426" lon="7.62525">
        <ele>358</ele>
        <time>2019-04-25T12:32:04Z</time>
      </trkpt>
      <trkpt lat="47.72431" lon="7.62512">
        <ele>362</ele>
        <time>2019-04-25T12:32:10Z</time>
      </trkpt>
      <trkpt lat="47.72442" lon="7.62491">
        <ele>363</ele>
        <time>2019-04-25T12:32:24Z</time>
      </trkpt>
      <trkpt lat="47.72448" lon="7.62481">
        <ele>362</ele>
        <time>2019-04-25T12:32:38Z</time>
      </trkpt>
      <trkpt lat="47.72445" lon="7.62474">
        <ele>357</ele>
        <time>2019-04-25T12:32:45Z</time>
      </trkpt>
      <trkpt lat="47.72446" lon="7.62463">
        <ele>353</ele>
        <time>2019-04-25T12:32:54Z</time>
      </trkpt>
      <trkpt lat="47.72444" lon="7.62448">
        <ele>346</ele>
        <time>2019-04-25T12:33:05Z</time>
      </trkpt>
      <trkpt lat="47.72444" lon="7.62438">
        <ele>349</ele>
        <time>2019-04-25T12:33:15Z</time>
      </trkpt>
      <trkpt lat="47.72441" lon="7.62421">
        <ele>347</ele>
        <time>2019-04-25T12:33:28Z</time>
      </trkpt>
      <trkpt lat="47.72445" lon="7.62386">
        <ele>348</ele>
        <time>2019-04-25T12:33:47Z</time>
      </trkpt>
      <trkpt lat="47.72443" lon="7.62377">
        <ele>348</ele>
        <time>2019-04-25T12:33:50Z</time>
      </trkpt>
      <trkpt lat="47.72445" lon="7.62369">
        <ele>349</ele>
        <time>2019-04-25T12:33:55Z</time>
      </trkpt>
      <trkpt lat="47.72446" lon="7.62343">
        <ele>347</ele>
        <time>2019-04-25T12:34:08Z</time>
      </trkpt>
      <trkpt lat="47.72447" lon="7.62335">
        <ele>349</ele>
        <time>2019-04-25T12:34:12Z</time>
      </trkpt>
      <trkpt lat="47.72447" lon="7.62326">
        <ele>348</ele>
        <time>2019-04-25T12:34:18Z</time>
      </trkpt>
      <trkpt lat="47.72448" lon="7.62317">
        <ele>347</ele>
        <time>2019-04-25T12:34:24Z</time>
      </trkpt>
      <trkpt lat="47.72449" lon="7.62308">
        <ele>348</ele>
        <time>2019-04-25T12:34:28Z</time>
      </trkpt>
      <trkpt lat="47.72446" lon="7.623">
        <ele>348</ele>
        <time>2019-04-25T12:34:32Z</time>
      </trkpt>
      <trkpt lat="47.72445" lon="7.62286">
        <ele>351</ele>
        <time>2019-04-25T12:34:39Z</time>
      </trkpt>
      <trkpt lat="47.72444" lon="7.6228">
        <ele>351</ele>
        <time>2019-04-25T12:34:43Z</time>
      </trkpt>
      <trkpt lat="47.72449" lon="7.62252">
        <ele>355</ele>
        <time>2019-04-25T12:34:57Z</time>
      </trkpt>
      <trkpt lat="47.72448" lon="7.62244">
        <ele>356</ele>
        <time>2019-04-25T12:35:02Z</time>
      </trkpt>
      <trkpt lat="47.72447" lon="7.62236">
        <ele>359</ele>
        <time>2019-04-25T12:35:06Z</time>
      </trkpt>
      <trkpt lat="47.72447" lon="7.62227">
        <ele>359</ele>
        <time>2019-04-25T12:35:10Z</time>
      </trkpt>
      <trkpt lat="47.7245" lon="7.6222">
        <ele>358</ele>
        <time>2019-04-25T12:35:15Z</time>
      </trkpt>
      <trkpt lat="47.7245" lon="7.62213">
        <ele>358</ele>
        <time>2019-04-25T12:35:19Z</time>
      </trkpt>
      <trkpt lat="47.72451" lon="7.62183">
        <ele>358</ele>
        <time>2019-04-25T12:35:36Z</time>
      </trkpt>
      <trkpt lat="47.72453" lon="7.62169">
        <ele>358</ele>
        <time>2019-04-25T12:35:43Z</time>
      </trkpt>
      <trkpt lat="47.72453" lon="7.62145">
        <ele>359</ele>
        <time>2019-04-25T12:35:57Z</time>
      </trkpt>
      <trkpt lat="47.72454" lon="7.62093">
        <ele>366</ele>
        <time>2019-04-25T12:36:28Z</time>
      </trkpt>
      <trkpt lat="47.72454" lon="7.6208">
        <ele>367</ele>
        <time>2019-04-25T12:36:36Z</time>
      </trkpt>
      <trkpt lat="47.72454" lon="7.62068">
        <ele>370</ele>
        <time>2019-04-25T12:36:43Z</time>
      </trkpt>
      <trkpt lat="47.72453" lon="7.62056">
        <ele>370</ele>
        <time>2019-04-25T12:36:47Z</time>
      </trkpt>
      <trkpt lat="47.72446" lon="7.62034">
        <ele>370</ele>
        <time>2019-04-25T12:36:55Z</time>
      </trkpt>
      <trkpt lat="47.72443" lon="7.62022">
        <ele>369</ele>
        <time>2019-04-25T12:37:00Z</time>
      </trkpt>
      <trkpt lat="47.72441" lon="7.62015">
        <ele>371</ele>
        <time>2019-04-25T12:37:05Z</time>
      </trkpt>
      <trkpt lat="47.72439" lon="7.62003">
        <ele>371</ele>
        <time>2019-04-25T12:37:15Z</time>
      </trkpt>
      <trkpt lat="47.72434" lon="7.61991">
        <ele>375</ele>
        <time>2019-04-25T12:37:25Z</time>
      </trkpt>
      <trkpt lat="47.7243" lon="7.61963">
        <ele>376</ele>
        <time>2019-04-25T12:37:43Z</time>
      </trkpt>
      <trkpt lat="47.72425" lon="7.61953">
        <ele>375</ele>
        <time>2019-04-25T12:37:48Z</time>
      </trkpt>
      <trkpt lat="47.72422" lon="7.6194">
        <ele>377</ele>
        <time>2019-04-25T12:37:57Z</time>
      </trkpt>
      <trkpt lat="47.72418" lon="7.6193">
        <ele>378</ele>
        <time>2019-04-25T12:38:03Z</time>
      </trkpt>
      <trkpt lat="47.72413" lon="7.61918">
        <ele>381</ele>
        <time>2019-04-25T12:38:10Z</time>
      </trkpt>
      <trkpt lat="47.7241" lon="7.61907">
        <ele>382</ele>
        <time>2019-04-25T12:38:25Z</time>
      </trkpt>
      <trkpt lat="47.7241" lon="7.61892">
        <ele>386</ele>
        <time>2019-04-25T12:38:36Z</time>
      </trkpt>
      <trkpt lat="47.72408" lon="7.61855">
        <ele>385</ele>
        <time>2019-04-25T12:39:00Z</time>
      </trkpt>
      <trkpt lat="47.72411" lon="7.61827">
        <ele>388</ele>
        <time>2019-04-25T12:39:14Z</time>
      </trkpt>
      <trkpt lat="47.7241" lon="7.61817">
        <ele>390</ele>
        <time>2019-04-25T12:39:22Z</time>
      </trkpt>
      <trkpt lat="47.7241" lon="7.61807">
        <ele>393</ele>
        <time>2019-04-25T12:39:33Z</time>
      </trkpt>
      <trkpt lat="47.72416" lon="7.61801">
        <ele>394</ele>
        <time>2019-04-25T12:40:24Z</time>
      </trkpt>
      <trkpt lat="47.72416" lon="7.61784">
        <ele>394</ele>
        <time>2019-04-25T12:40:31Z</time>
      </trkpt>
      <trkpt lat="47.72422" lon="7.61776">
        <ele>396</ele>
        <time>2019-04-25T12:40:41Z</time>
      </trkpt>
      <trkpt lat="47.7243" lon="7.61734">
        <ele>397</ele>
        <time>2019-04-25T12:41:03Z</time>
      </trkpt>
      <trkpt lat="47.72432" lon="7.6172">
        <ele>398</ele>
        <time>2019-04-25T12:41:12Z</time>
      </trkpt>
      <trkpt lat="47.72433" lon="7.61706">
        <ele>397</ele>
        <time>2019-04-25T12:41:22Z</time>
      </trkpt>
      <trkpt lat="47.72436" lon="7.6169">
        <ele>397</ele>
        <time>2019-04-25T12:41:30Z</time>
      </trkpt>
      <trkpt lat="47.72437" lon="7.61673">
        <ele>395</ele>
        <time>2019-04-25T12:41:39Z</time>
      </trkpt>
      <trkpt lat="47.7244" lon="7.61658">
        <ele>394</ele>
        <time>2019-04-25T12:41:47Z</time>
      </trkpt>
      <trkpt lat="47.72443" lon="7.6164">
        <ele>397</ele>
        <time>2019-04-25T12:41:55Z</time>
      </trkpt>
      <trkpt lat="47.72463" lon="7.61589">
        <ele>395</ele>
        <time>2019-04-25T12:42:34Z</time>
      </trkpt>
      <trkpt lat="47.72468" lon="7.6154">
        <ele>389</ele>
        <time>2019-04-25T12:43:01Z</time>
      </trkpt>
      <trkpt lat="47.72468" lon="7.61517">
        <ele>388</ele>
        <time>2019-04-25T12:43:12Z</time>
      </trkpt>
      <trkpt lat="47.72476" lon="7.61497">
        <ele>389</ele>
        <time>2019-04-25T12:43:23Z</time>
      </trkpt>
      <trkpt lat="47.72491" lon="7.61461">
        <ele>393</ele>
        <time>2019-04-25T12:43:43Z</time>
      </trkpt>
      <trkpt lat="47.72502" lon="7.61439">
        <ele>399</ele>
        <time>2019-04-25T12:43:55Z</time>
      </trkpt>
      <trkpt lat="47.72512" lon="7.61423">
        <ele>402</ele>
        <time>2019-04-25T12:44:06Z</time>
      </trkpt>
      <trkpt lat="47.72518" lon="7.61407">
        <ele>404</ele>
        <time>2019-04-25T12:44:15Z</time>
      </trkpt>
      <trkpt lat="47.72535" lon="7.61366">
        <ele>406</ele>
        <time>2019-04-25T12:44:45Z</time>
      </trkpt>
      <trkpt lat="47.72544" lon="7.61358">
        <ele>409</ele>
        <time>2019-04-25T12:44:53Z</time>
      </trkpt>
      <trkpt lat="47.72547" lon="7.61346">
        <ele>409</ele>
        <time>2019-04-25T12:45:00Z</time>
      </trkpt>
      <trkpt lat="47.7255" lon="7.61335">
        <ele>409</ele>
        <time>2019-04-25T12:45:07Z</time>
      </trkpt>
      <trkpt lat="47.72558" lon="7.61284">
        <ele>411</ele>
        <time>2019-04-25T12:45:35Z</time>
      </trkpt>
      <trkpt lat="47.72562" lon="7.61271">
        <ele>410</ele>
        <time>2019-04-25T12:45:41Z</time>
      </trkpt>
      <trkpt lat="47.72564" lon="7.6126">
        <ele>415</ele>
        <time>2019-04-25T12:45:45Z</time>
      </trkpt>
      <trkpt lat="47.72568" lon="7.6125">
        <ele>415</ele>
        <time>2019-04-25T12:45:52Z</time>
      </trkpt>
      <trkpt lat="47.72573" lon="7.6124">
        <ele>418</ele>
        <time>2019-04-25T12:45:57Z</time>
      </trkpt>
      <trkpt lat="47.7258" lon="7.61224">
        <ele>417</ele>
        <time>2019-04-25T12:46:10Z</time>
      </trkpt>
      <trkpt lat="47.72586" lon="7.61214">
        <ele>416</ele>
        <time>2019-04-25T12:46:21Z</time>
      </trkpt>
      <trkpt lat="47.72591" lon="7.61198">
        <ele>414</ele>
        <time>2019-04-25T12:46:26Z</time>
      </trkpt>
      <trkpt lat="47.72599" lon="7.61193">
        <ele>418</ele>
        <time>2019-04-25T12:46:35Z</time>
      </trkpt>
      <trkpt lat="47.72617" lon="7.61163">
        <ele>427</ele>
        <time>2019-04-25T12:47:00Z</time>
      </trkpt>
      <trkpt lat="47.72622" lon="7.6115">
        <ele>424</ele>
        <time>2019-04-25T12:47:06Z</time>
      </trkpt>
      <trkpt lat="47.72627" lon="7.61137">
        <ele>423</ele>
        <time>2019-04-25T12:47:13Z</time>
      </trkpt>
      <trkpt lat="47.72633" lon="7.61126">
        <ele>421</ele>
        <time>2019-04-25T12:47:22Z</time>
      </trkpt>
      <trkpt lat="47.72639" lon="7.61113">
        <ele>418</ele>
        <time>2019-04-25T12:47:33Z</time>
      </trkpt>
      <trkpt lat="47.72639" lon="7.61103">
        <ele>422</ele>
        <time>2019-04-25T12:47:49Z</time>
      </trkpt>
      <trkpt lat="47.72642" lon="7.61097">
        <ele>424</ele>
        <time>2019-04-25T12:47:56Z</time>
      </trkpt>
      <trkpt lat="47.72647" lon="7.61094">
        <ele>426</ele>
        <time>2019-04-25T12:48:00Z</time>
      </trkpt>
      <trkpt lat="47.72649" lon="7.61088">
        <ele>428</ele>
        <time>2019-04-25T12:48:36Z</time>
      </trkpt>
      <trkpt lat="47.72655" lon="7.61089">
        <ele>429</ele>
        <time>2019-04-25T12:48:40Z</time>
      </trkpt>
      <trkpt lat="47.72664" lon="7.61086">
        <ele>428</ele>
        <time>2019-04-25T12:48:46Z</time>
      </trkpt>
      <trkpt lat="47.72671" lon="7.61077">
        <ele>429</ele>
        <time>2019-04-25T12:48:53Z</time>
      </trkpt>
      <trkpt lat="47.72677" lon="7.61067">
        <ele>430</ele>
        <time>2019-04-25T12:49:02Z</time>
      </trkpt>
      <trkpt lat="47.72686" lon="7.61062">
        <ele>429</ele>
        <time>2019-04-25T12:49:05Z</time>
      </trkpt>
      <trkpt lat="47.72694" lon="7.61053">
        <ele>430</ele>
        <time>2019-04-25T12:49:14Z</time>
      </trkpt>
      <trkpt lat="47.72703" lon="7.61053">
        <ele>429</ele>
        <time>2019-04-25T12:49:21Z</time>
      </trkpt>
      <trkpt lat="47.7271" lon="7.61047">
        <ele>426</ele>
        <time>2019-04-25T12:49:30Z</time>
      </trkpt>
      <trkpt lat="47.7273" lon="7.61044">
        <ele>426</ele>
        <time>2019-04-25T12:49:44Z</time>
      </trkpt>
      <trkpt lat="47.72748" lon="7.61029">
        <ele>424</ele>
        <time>2019-04-25T12:49:59Z</time>
      </trkpt>
      <trkpt lat="47.72767" lon="7.61018">
        <ele>424</ele>
        <time>2019-04-25T12:50:10Z</time>
      </trkpt>
      <trkpt lat="47.72784" lon="7.61006">
        <ele>429</ele>
        <time>2019-04-25T12:50:21Z</time>
      </trkpt>
      <trkpt lat="47.72789" lon="7.60995">
        <ele>429</ele>
        <time>2019-04-25T12:50:26Z</time>
      </trkpt>
      <trkpt lat="47.72827" lon="7.6099">
        <ele>425</ele>
        <time>2019-04-25T12:50:55Z</time>
      </trkpt>
      <trkpt lat="47.72856" lon="7.60974">
        <ele>422</ele>
        <time>2019-04-25T12:51:21Z</time>
      </trkpt>
      <trkpt lat="47.72865" lon="7.60969">
        <ele>418</ele>
        <time>2019-04-25T12:51:26Z</time>
      </trkpt>
      <trkpt lat="47.72872" lon="7.60953">
        <ele>414</ele>
        <time>2019-04-25T12:51:40Z</time>
      </trkpt>
      <trkpt lat="47.72882" lon="7.60944">
        <ele>414</ele>
        <time>2019-04-25T12:51:46Z</time>
      </trkpt>
      <trkpt lat="47.7289" lon="7.60935">
        <ele>412</ele>
        <time>2019-04-25T12:51:55Z</time>
      </trkpt>
      <trkpt lat="47.72896" lon="7.60915">
        <ele>411</ele>
        <time>2019-04-25T12:52:05Z</time>
      </trkpt>
      <trkpt lat="47.72903" lon="7.60905">
        <ele>415</ele>
        <time>2019-04-25T12:52:11Z</time>
      </trkpt>
      <trkpt lat="47.72921" lon="7.60882">
        <ele>414</ele>
        <time>2019-04-25T12:52:25Z</time>
      </trkpt>
      <trkpt lat="47.72925" lon="7.60867">
        <ele>418</ele>
        <time>2019-04-25T12:52:35Z</time>
      </trkpt>
      <trkpt lat="47.72936" lon="7.60857">
        <ele>418</ele>
        <time>2019-04-25T12:52:47Z</time>
      </trkpt>
      <trkpt lat="47.72964" lon="7.60836">
        <ele>413</ele>
        <time>2019-04-25T12:53:11Z</time>
      </trkpt>
      <trkpt lat="47.72974" lon="7.60837">
        <ele>414</ele>
        <time>2019-04-25T12:53:23Z</time>
      </trkpt>
      <trkpt lat="47.72985" lon="7.60837">
        <ele>410</ele>
        <time>2019-04-25T12:53:29Z</time>
      </trkpt>
      <trkpt lat="47.72994" lon="7.60838">
        <ele>407</ele>
        <time>2019-04-25T12:53:36Z</time>
      </trkpt>
      <trkpt lat="47.73025" lon="7.60832">
        <ele>404</ele>
        <time>2019-04-25T12:53:54Z</time>
      </trkpt>
      <trkpt lat="47.73047" lon="7.60832">
        <ele>401</ele>
        <time>2019-04-25T12:54:09Z</time>
      </trkpt>
      <trkpt lat="47.73073" lon="7.60817">
        <ele>401</ele>
        <time>2019-04-25T12:54:27Z</time>
      </trkpt>
      <trkpt lat="47.73082" lon="7.6081">
        <ele>403</ele>
        <time>2019-04-25T12:54:38Z</time>
      </trkpt>
      <trkpt lat="47.73091" lon="7.60802">
        <ele>396</ele>
        <time>2019-04-25T12:54:46Z</time>
      </trkpt>
      <trkpt lat="47.73105" lon="7.60779">
        <ele>395</ele>
        <time>2019-04-25T12:54:59Z</time>
      </trkpt>
      <trkpt lat="47.7311" lon="7.60772">
        <ele>396</ele>
        <time>2019-04-25T12:55:03Z</time>
      </trkpt>
      <trkpt lat="47.73115" lon="7.60761">
        <ele>399</ele>
        <time>2019-04-25T12:55:09Z</time>
      </trkpt>
      <trkpt lat="47.7312" lon="7.60755">
        <ele>402</ele>
        <time>2019-04-25T12:55:13Z</time>
      </trkpt>
      <trkpt lat="47.73134" lon="7.60733">
        <ele>399</ele>
        <time>2019-04-25T12:55:27Z</time>
      </trkpt>
      <trkpt lat="47.73145" lon="7.6072">
        <ele>401</ele>
        <time>2019-04-25T12:55:37Z</time>
      </trkpt>
      <trkpt lat="47.73152" lon="7.60716">
        <ele>398</ele>
        <time>2019-04-25T12:55:44Z</time>
      </trkpt>
      <trkpt lat="47.73163" lon="7.60706">
        <ele>396</ele>
        <time>2019-04-25T12:55:54Z</time>
      </trkpt>
      <trkpt lat="47.73172" lon="7.60702">
        <ele>398</ele>
        <time>2019-04-25T12:55:59Z</time>
      </trkpt>
      <trkpt lat="47.73181" lon="7.60691">
        <ele>397</ele>
        <time>2019-04-25T12:56:10Z</time>
      </trkpt>
      <trkpt lat="47.73189" lon="7.60681">
        <ele>400</ele>
        <time>2019-04-25T12:56:17Z</time>
      </trkpt>
      <trkpt lat="47.73191" lon="7.60667">
        <ele>400</ele>
        <time>2019-04-25T12:56:23Z</time>
      </trkpt>
      <trkpt lat="47.73197" lon="7.60635">
        <ele>400</ele>
        <time>2019-04-25T12:56:39Z</time>
      </trkpt>
      <trkpt lat="47.73201" lon="7.60624">
        <ele>397</ele>
        <time>2019-04-25T12:56:48Z</time>
      </trkpt>
      <trkpt lat="47.73203" lon="7.60608">
        <ele>395</ele>
        <time>2019-04-25T12:56:57Z</time>
      </trkpt>
      <trkpt lat="47.73211" lon="7.60585">
        <ele>388</ele>
        <time>2019-04-25T12:57:09Z</time>
      </trkpt>
      <trkpt lat="47.73217" lon="7.60567">
        <ele>387</ele>
        <time>2019-04-25T12:57:19Z</time>
      </trkpt>
      <trkpt lat="47.73225" lon="7.60552">
        <ele>388</ele>
        <time>2019-04-25T12:57:28Z</time>
      </trkpt>
      <trkpt lat="47.73228" lon="7.60549">
        <ele>388</ele>
        <time>2019-04-25T12:57:31Z</time>
      </trkpt>
      <trkpt lat="47.73233" lon="7.60537">
        <ele>390</ele>
        <time>2019-04-25T12:57:36Z</time>
      </trkpt>
      <trkpt lat="47.73233" lon="7.60527">
        <ele>391</ele>
        <time>2019-04-25T12:57:41Z</time>
      </trkpt>
      <trkpt lat="47.73239" lon="7.60508">
        <ele>390</ele>
        <time>2019-04-25T12:57:50Z</time>
      </trkpt>
      <trkpt lat="47.73238" lon="7.60499">
        <ele>389</ele>
        <time>2019-04-25T12:57:54Z</time>
      </trkpt>
      <trkpt lat="47.73253" lon="7.60453">
        <ele>388</ele>
        <time>2019-04-25T12:58:16Z</time>
      </trkpt>
      <trkpt lat="47.7326" lon="7.6043">
        <ele>385</ele>
        <time>2019-04-25T12:58:34Z</time>
      </trkpt>
      <trkpt lat="47.7326" lon="7.60416">
        <ele>381</ele>
        <time>2019-04-25T12:58:41Z</time>
      </trkpt>
      <trkpt lat="47.73264" lon="7.60398">
        <ele>380</ele>
        <time>2019-04-25T12:58:50Z</time>
      </trkpt>
      <trkpt lat="47.73264" lon="7.60371">
        <ele>384</ele>
        <time>2019-04-25T12:59:02Z</time>
      </trkpt>
      <trkpt lat="47.73264" lon="7.60355">
        <ele>381</ele>
        <time>2019-04-25T12:59:13Z</time>
      </trkpt>
      <trkpt lat="47.73265" lon="7.60338">
        <ele>371</ele>
        <time>2019-04-25T12:59:24Z</time>
      </trkpt>
      <trkpt lat="47.7327" lon="7.60317">
        <ele>370</ele>
        <time>2019-04-25T12:59:40Z</time>
      </trkpt>
      <trkpt lat="47.73275" lon="7.60297">
        <ele>363</ele>
        <time>2019-04-25T12:59:51Z</time>
      </trkpt>
      <trkpt lat="47.73282" lon="7.60237">
        <ele>359</ele>
        <time>2019-04-25T13:00:24Z</time>
      </trkpt>
      <trkpt lat="47.73279" lon="7.60225">
        <ele>364</ele>
        <time>2019-04-25T13:00:36Z</time>
      </trkpt>
      <trkpt lat="47.7328" lon="7.60208">
        <ele>367</ele>
        <time>2019-04-25T13:00:42Z</time>
      </trkpt>
      <trkpt lat="47.73285" lon="7.60195">
        <ele>371</ele>
        <time>2019-04-25T13:00:48Z</time>
      </trkpt>
      <trkpt lat="47.73291" lon="7.60173">
        <ele>375</ele>
        <time>2019-04-25T13:00:59Z</time>
      </trkpt>
      <trkpt lat="47.73295" lon="7.60163">
        <ele>375</ele>
        <time>2019-04-25T13:01:04Z</time>
      </trkpt>
      <trkpt lat="47.73302" lon="7.60144">
        <ele>370</ele>
        <time>2019-04-25T13:01:14Z</time>
      </trkpt>
      <trkpt lat="47.73307" lon="7.60135">
        <ele>372</ele>
        <time>2019-04-25T13:01:26Z</time>
      </trkpt>
      <trkpt lat="47.73328" lon="7.60083">
        <ele>371</ele>
        <time>2019-04-25T13:01:53Z</time>
      </trkpt>
      <trkpt lat="47.73336" lon="7.60078">
        <ele>369</ele>
        <time>2019-04-25T13:02:01Z</time>
      </trkpt>
      <trkpt lat="47.73339" lon="7.60088">
        <ele>368</ele>
        <time>2019-04-25T13:02:15Z</time>
      </trkpt>
      <trkpt lat="47.73336" lon="7.60095">
        <ele>368</ele>
        <time>2019-04-25T13:02:19Z</time>
      </trkpt>
      <trkpt lat="47.73337" lon="7.60108">
        <ele>365</ele>
        <time>2019-04-25T13:02:50Z</time>
      </trkpt>
      <trkpt lat="47.73331" lon="7.60117">
        <ele>366</ele>
        <time>2019-04-25T13:03:06Z</time>
      </trkpt>
      <trkpt lat="47.73328" lon="7.60128">
        <ele>367</ele>
        <time>2019-04-25T13:03:12Z</time>
      </trkpt>
      <trkpt lat="47.73332" lon="7.60176">
        <ele>365</ele>
        <time>2019-04-25T13:03:38Z</time>
      </trkpt>
      <trkpt lat="47.73327" lon="7.60196">
        <ele>362</ele>
        <time>2019-04-25T13:03:49Z</time>
      </trkpt>
      <trkpt lat="47.73327" lon="7.60214">
        <ele>359</ele>
        <time>2019-04-25T13:03:56Z</time>
      </trkpt>
      <trkpt lat="47.73328" lon="7.60226">
        <ele>357</ele>
        <time>2019-04-25T13:04:02Z</time>
      </trkpt>
      <trkpt lat="47.73334" lon="7.60246">
        <ele>356</ele>
        <time>2019-04-25T13:04:11Z</time>
      </trkpt>
      <trkpt lat="47.73339" lon="7.60256">
        <ele>360</ele>
        <time>2019-04-25T13:04:15Z</time>
      </trkpt>
      <trkpt lat="47.73341" lon="7.60269">
        <ele>360</ele>
        <time>2019-04-25T13:04:21Z</time>
      </trkpt>
      <trkpt lat="47.7334" lon="7.60282">
        <ele>358</ele>
        <time>2019-04-25T13:04:27Z</time>
      </trkpt>
      <trkpt lat="47.73337" lon="7.60298">
        <ele>357</ele>
        <time>2019-04-25T13:04:38Z</time>
      </trkpt>
      <trkpt lat="47.73337" lon="7.60312">
        <ele>352</ele>
        <time>2019-04-25T13:04:46Z</time>
      </trkpt>
      <trkpt lat="47.7334" lon="7.60326">
        <ele>352</ele>
        <time>2019-04-25T13:04:53Z</time>
      </trkpt>
      <trkpt lat="47.73341" lon="7.6034">
        <ele>354</ele>
        <time>2019-04-25T13:04:59Z</time>
      </trkpt>
      <trkpt lat="47.73342" lon="7.60352">
        <ele>353</ele>
        <time>2019-04-25T13:05:06Z</time>
      </trkpt>
      <trkpt lat="47.73342" lon="7.60363">
        <ele>351</ele>
        <time>2019-04-25T13:05:12Z</time>
      </trkpt>
      <trkpt lat="47.73341" lon="7.60373">
        <ele>350</ele>
        <time>2019-04-25T13:05:17Z</time>
      </trkpt>
      <trkpt lat="47.73343" lon="7.60384">
        <ele>350</ele>
        <time>2019-04-25T13:05:22Z</time>
      </trkpt>
      <trkpt lat="47.73341" lon="7.60402">
        <ele>350</ele>
        <time>2019-04-25T13:05:30Z</time>
      </trkpt>
      <trkpt lat="47.73339" lon="7.60411">
        <ele>347</ele>
        <time>2019-04-25T13:05:36Z</time>
      </trkpt>
      <trkpt lat="47.73342" lon="7.60436">
        <ele>349</ele>
        <time>2019-04-25T13:05:49Z</time>
      </trkpt>
      <trkpt lat="47.7334" lon="7.60446">
        <ele>346</ele>
        <time>2019-04-25T13:05:54Z</time>
      </trkpt>
      <trkpt lat="47.73342" lon="7.60455">
        <ele>344</ele>
        <time>2019-04-25T13:05:58Z</time>
      </trkpt>
      <trkpt lat="47.7334" lon="7.60466">
        <ele>342</ele>
        <time>2019-04-25T13:06:05Z</time>
      </trkpt>
      <trkpt lat="47.73337" lon="7.60512">
        <ele>335</ele>
        <time>2019-04-25T13:06:26Z</time>
      </trkpt>
      <trkpt lat="47.73346" lon="7.60558">
        <ele>338</ele>
        <time>2019-04-25T13:06:49Z</time>
      </trkpt>
      <trkpt lat="47.73352" lon="7.60577">
        <ele>337</ele>
        <time>2019-04-25T13:07:01Z</time>
      </trkpt>
      <trkpt lat="47.73355" lon="7.60583">
        <ele>338</ele>
        <time>2019-04-25T13:07:04Z</time>
      </trkpt>
      <trkpt lat="47.73372" lon="7.60624">
        <ele>336</ele>
        <time>2019-04-25T13:07:29Z</time>
      </trkpt>
      <trkpt lat="47.73373" lon="7.60632">
        <ele>336</ele>
        <time>2019-04-25T13:07:33Z</time>
      </trkpt>
      <trkpt lat="47.73373" lon="7.60643">
        <ele>334</ele>
        <time>2019-04-25T13:07:40Z</time>
      </trkpt>
      <trkpt lat="47.73376" lon="7.60661">
        <ele>330</ele>
        <time>2019-04-25T13:07:48Z</time>
      </trkpt>
      <trkpt lat="47.7338" lon="7.60668">
        <ele>330</ele>
        <time>2019-04-25T13:07:54Z</time>
      </trkpt>
      <trkpt lat="47.73384" lon="7.60672">
        <ele>331</ele>
        <time>2019-04-25T13:07:57Z</time>
      </trkpt>
      <trkpt lat="47.73394" lon="7.60683">
        <ele>334</ele>
        <time>2019-04-25T13:08:07Z</time>
      </trkpt>
      <trkpt lat="47.73403" lon="7.60686">
        <ele>331</ele>
        <time>2019-04-25T13:08:13Z</time>
      </trkpt>
      <trkpt lat="47.7342" lon="7.60697">
        <ele>328</ele>
        <time>2019-04-25T13:08:28Z</time>
      </trkpt>
      <trkpt lat="47.73424" lon="7.60695">
        <ele>328</ele>
        <time>2019-04-25T13:08:31Z</time>
      </trkpt>
      <trkpt lat="47.73458" lon="7.60703">
        <ele>326</ele>
        <time>2019-04-25T13:09:02Z</time>
      </trkpt>
      <trkpt lat="47.73468" lon="7.60704">
        <ele>326</ele>
        <time>2019-04-25T13:09:10Z</time>
      </trkpt>
      <trkpt lat="47.73472" lon="7.60707">
        <ele>324</ele>
        <time>2019-04-25T13:09:13Z</time>
      </trkpt>
      <trkpt lat="47.73477" lon="7.60708">
        <ele>322</ele>
        <time>2019-04-25T13:09:18Z</time>
      </trkpt>
      <trkpt lat="47.73513" lon="7.6072">
        <ele>313</ele>
        <time>2019-04-25T13:09:51Z</time>
      </trkpt>
      <trkpt lat="47.73522" lon="7.60721">
        <ele>311</ele>
        <time>2019-04-25T13:09:59Z</time>
      </trkpt>
      <trkpt lat="47.7356" lon="7.60723">
        <ele>304</ele>
        <time>2019-04-25T13:10:30Z</time>
      </trkpt>
      <trkpt lat="47.73569" lon="7.60722">
        <ele>303</ele>
        <time>2019-04-25T13:10:38Z</time>
      </trkpt>
      <trkpt lat="47.73582" lon="7.60721">
        <ele>300</ele>
        <time>2019-04-25T13:10:55Z</time>
      </trkpt>
      <trkpt lat="47.73611" lon="7.60718">
        <ele>293</ele>
        <time>2019-04-25T13:11:17Z</time>
      </trkpt>
      <trkpt lat="47.73615" lon="7.60716">
        <ele>291</ele>
        <time>2019-04-25T13:11:21Z</time>
      </trkpt>
      <trkpt lat="47.73632" lon="7.60716">
        <ele>292</ele>
        <time>2019-04-25T13:11:33Z</time>
      </trkpt>
      <trkpt lat="47.73649" lon="7.60721">
        <ele>292</ele>
        <time>2019-04-25T13:11:49Z</time>
      </trkpt>
      <trkpt lat="47.73682" lon="7.60723">
        <ele>289</ele>
        <time>2019-04-25T13:12:21Z</time>
      </trkpt>
      <trkpt lat="47.73698" lon="7.60728">
        <ele>292</ele>
        <time>2019-04-25T13:12:31Z</time>
      </trkpt>
      <trkpt lat="47.73708" lon="7.60726">
        <ele>291</ele>
        <time>2019-04-25T13:12:39Z</time>
      </trkpt>
      <trkpt lat="47.73737" lon="7.60731">
        <ele>292</ele>
        <time>2019-04-25T13:13:02Z</time>
      </trkpt>
      <trkpt lat="47.73742" lon="7.60731">
        <ele>291</ele>
        <time>2019-04-25T13:13:07Z</time>
      </trkpt>
      <trkpt lat="47.73748" lon="7.60731">
        <ele>287</ele>
        <time>2019-04-25T13:13:11Z</time>
      </trkpt>
      <trkpt lat="47.73755" lon="7.60739">
        <ele>287</ele>
        <time>2019-04-25T13:13:20Z</time>
      </trkpt>
      <trkpt lat="47.73759" lon="7.60746">
        <ele>285</ele>
        <time>2019-04-25T13:13:25Z</time>
      </trkpt>
      <trkpt lat="47.73763" lon="7.60751">
        <ele>284</ele>
        <time>2019-04-25T13:13:28Z</time>
      </trkpt>
      <trkpt lat="47.73779" lon="7.60787">
        <ele>277</ele>
        <time>2019-04-25T13:13:51Z</time>
      </trkpt>
      <trkpt lat="47.73783" lon="7.60793">
        <ele>276</ele>
        <time>2019-04-25T13:13:55Z</time>
      </trkpt>
      <trkpt lat="47.73793" lon="7.60798">
        <ele>277</ele>
        <time>2019-04-25T13:14:03Z</time>
      </trkpt>
      <trkpt lat="47.73814" lon="7.60784">
        <ele>276</ele>
        <time>2019-04-25T13:14:17Z</time>
      </trkpt>
      <trkpt lat="47.73822" lon="7.60779">
        <ele>273</ele>
        <time>2019-04-25T13:14:23Z</time>
      </trkpt>
      <trkpt lat="47.73836" lon="7.60761">
        <ele>280</ele>
        <time>2019-04-25T13:14:42Z</time>
      </trkpt>
      <trkpt lat="47.73839" lon="7.60753">
        <ele>277</ele>
        <time>2019-04-25T13:14:49Z</time>
      </trkpt>
      <trkpt lat="47.73843" lon="7.60751">
        <ele>277</ele>
        <time>2019-04-25T13:14:55Z</time>
      </trkpt>
      <trkpt lat="47.73839" lon="7.60738">
        <ele>276</ele>
        <time>2019-04-25T13:15:02Z</time>
      </trkpt>
      <trkpt lat="47.73841" lon="7.6073">
        <ele>276</ele>
        <time>2019-04-25T13:15:06Z</time>
      </trkpt>
      <trkpt lat="47.73837" lon="7.60714">
        <ele>278</ele>
        <time>2019-04-25T13:15:15Z</time>
      </trkpt>
      <trkpt lat="47.73838" lon="7.6069">
        <ele>276</ele>
        <time>2019-04-25T13:15:28Z</time>
      </trkpt>
      <trkpt lat="47.73833" lon="7.60685">
        <ele>275</ele>
        <time>2019-04-25T13:15:32Z</time>
      </trkpt>
      <trkpt lat="47.73827" lon="7.60682">
        <ele>274</ele>
        <time>2019-04-25T13:15:37Z</time>
      </trkpt>
      <trkpt lat="47.73821" lon="7.60677">
        <ele>274</ele>
        <time>2019-04-25T13:15:42Z</time>
      </trkpt>
      <trkpt lat="47.73814" lon="7.60663">
        <ele>273</ele>
        <time>2019-04-25T13:15:50Z</time>
      </trkpt>
      <trkpt lat="47.73814" lon="7.60655">
        <ele>274</ele>
        <time>2019-04-25T13:15:57Z</time>
      </trkpt>
      <trkpt lat="47.73818" lon="7.60649">
        <ele>275</ele>
        <time>2019-04-25T13:16:02Z</time>
      </trkpt>
      <trkpt lat="47.73819" lon="7.60639">
        <ele>275</ele>
        <time>2019-04-25T13:16:08Z</time>
      </trkpt>
      <trkpt lat="47.73822" lon="7.60627">
        <ele>275</ele>
        <time>2019-04-25T13:16:14Z</time>
      </trkpt>
      <trkpt lat="47.73825" lon="7.60614">
        <ele>272</ele>
        <time>2019-04-25T13:16:24Z</time>
      </trkpt>
      <trkpt lat="47.73825" lon="7.60601">
        <ele>270</ele>
        <time>2019-04-25T13:16:30Z</time>
      </trkpt>
      <trkpt lat="47.73824" lon="7.6059">
        <ele>270</ele>
        <time>2019-04-25T13:16:36Z</time>
      </trkpt>
      <trkpt lat="47.73826" lon="7.60582">
        <ele>270</ele>
        <time>2019-04-25T13:16:40Z</time>
      </trkpt>
      <trkpt lat="47.73828" lon="7.60574">
        <ele>271</ele>
        <time>2019-04-25T13:16:45Z</time>
      </trkpt>
      <trkpt lat="47.73831" lon="7.60566">
        <ele>273</ele>
        <time>2019-04-25T13:16:49Z</time>
      </trkpt>
      <trkpt lat="47.73835" lon="7.60559">
        <ele>273</ele>
        <time>2019-04-25T13:16:55Z</time>
      </trkpt>
      <trkpt lat="47.73841" lon="7.60555">
        <ele>272</ele>
        <time>2019-04-25T13:17:00Z</time>
      </trkpt>
      <trkpt lat="47.73846" lon="7.60552">
        <ele>268</ele>
        <time>2019-04-25T13:17:05Z</time>
      </trkpt>
      <trkpt lat="47.7385" lon="7.60546">
        <ele>266</ele>
        <time>2019-04-25T13:17:11Z</time>
      </trkpt>
      <trkpt lat="47.73852" lon="7.60535">
        <ele>265</ele>
        <time>2019-04-25T13:17:24Z</time>
      </trkpt>
      <trkpt lat="47.73857" lon="7.60528">
        <ele>265</ele>
        <time>2019-04-25T13:17:29Z</time>
      </trkpt>
      <trkpt lat="47.73865" lon="7.6053">
        <ele>261</ele>
        <time>2019-04-25T13:17:32Z</time>
      </trkpt>
      <trkpt lat="47.73871" lon="7.60515">
        <ele>261</ele>
        <time>2019-04-25T13:17:45Z</time>
      </trkpt>
      <trkpt lat="47.73867" lon="7.60503">
        <ele>266</ele>
        <time>2019-04-25T13:17:46Z</time>
      </trkpt>
      <trkpt lat="47.7387" lon="7.60498">
        <ele>268</ele>
        <time>2019-04-25T13:17:49Z</time>
      </trkpt>
      <trkpt lat="47.73869" lon="7.60485">
        <ele>275</ele>
        <time>2019-04-25T13:17:52Z</time>
      </trkpt>
      <trkpt lat="47.73873" lon="7.60481">
        <ele>277</ele>
        <time>2019-04-25T13:17:55Z</time>
      </trkpt>
      <trkpt lat="47.73877" lon="7.60478">
        <ele>276</ele>
        <time>2019-04-25T13:17:58Z</time>
      </trkpt>
      <trkpt lat="47.73877" lon="7.60472">
        <ele>276</ele>
        <time>2019-04-25T13:18:04Z</time>
      </trkpt>
      <trkpt lat="47.73884" lon="7.60467">
        <ele>274</ele>
        <time>2019-04-25T13:18:11Z</time>
      </trkpt>
      <trkpt lat="47.73887" lon="7.60458">
        <ele>270</ele>
        <time>2019-04-25T13:18:18Z</time>
      </trkpt>
      <trkpt lat="47.73887" lon="7.60447">
        <ele>272</ele>
        <time>2019-04-25T13:18:21Z</time>
      </trkpt>
      <trkpt lat="47.73892" lon="7.6044">
        <ele>271</ele>
        <time>2019-04-25T13:18:27Z</time>
      </trkpt>
      <trkpt lat="47.73891" lon="7.60422">
        <ele>270</ele>
        <time>2019-04-25T13:18:35Z</time>
      </trkpt>
      <trkpt lat="47.73894" lon="7.60418">
        <ele>270</ele>
        <time>2019-04-25T13:18:39Z</time>
      </trkpt>
      <trkpt lat="47.73897" lon="7.60413">
        <ele>268</ele>
        <time>2019-04-25T13:19:26Z</time>
      </trkpt>
      <trkpt lat="47.739" lon="7.60409">
        <ele>266</ele>
        <time>2019-04-25T13:19:48Z</time>
      </trkpt>
      <trkpt lat="47.73903" lon="7.60404">
        <ele>264</ele>
        <time>2019-04-25T13:19:52Z</time>
      </trkpt>
      <trkpt lat="47.7391" lon="7.60405">
        <ele>264</ele>
        <time>2019-04-25T13:20:01Z</time>
      </trkpt>
      <trkpt lat="47.73917" lon="7.60401">
        <ele>260</ele>
        <time>2019-04-25T13:20:08Z</time>
      </trkpt>
      <trkpt lat="47.73926" lon="7.60396">
        <ele>260</ele>
        <time>2019-04-25T13:20:16Z</time>
      </trkpt>
      <trkpt lat="47.73933" lon="7.60395">
        <ele>261</ele>
        <time>2019-04-25T13:20:19Z</time>
      </trkpt>
      <trkpt lat="47.73939" lon="7.60393">
        <ele>262</ele>
        <time>2019-04-25T13:20:24Z</time>
      </trkpt>
      <trkpt lat="47.73943" lon="7.60396">
        <ele>261</ele>
        <time>2019-04-25T13:20:30Z</time>
      </trkpt>
      <trkpt lat="47.73958" lon="7.60398">
        <ele>261</ele>
        <time>2019-04-25T13:20:39Z</time>
      </trkpt>
      <trkpt lat="47.73962" lon="7.60395">
        <ele>263</ele>
        <time>2019-04-25T13:20:43Z</time>
      </trkpt>
      <trkpt lat="47.73963" lon="7.60389">
        <ele>265</ele>
        <time>2019-04-25T13:20:48Z</time>
      </trkpt>
    </trkseg>
  </trk>
</gpx>